     2              OBSERVATION DATA    GPS                 RINEX VERSION / TYPE
TRRINEXO V2.8.4 LH                                          PGM / RUN BY / DATE
                                                            COMMENT
BIT 2 OF LLI (+4) FLAGS DATA COLLECTED UNDER "AS" CONDITION COMMENT
Original Marker Name: 0110                                  COMMENT
Campaign Name: coachelle valley 1990                        COMMENT
4-Character Station Name: 0110                              COMMENT
6-Character Antenna Code: TRMSST                            COMMENT
Vertical Measurement Point: TGP                             COMMENT
Vertical Offset to Rinex Ref. Point: 0.0629                 COMMENT
Radial Measurement Point: NGP                               COMMENT
Radial Offset to Rinex Ref. Point: 0.2334                   COMMENT
Antenna Height from Field Measurement: 1.0800 m             COMMENT
Original XYZ: -2306299.0036 -4787915.8881 3515732.3904      COMMENT
New XYZ position is based on association with SCEC monument COMMENT
E1D0M3T8+0011. Position of that monument is believed to be  COMMENT
valid to within 1 m horizontally; vertical accuracy         COMMENT
should be no worse than 3-times this value.                 COMMENT
                                                            COMMENT
Revised Rinex header created by UCSD GPS archive for        COMMENT
GSAC on 12-Apr-1999 (1999:102) 13:39:19 GMT                 COMMENT
For assistance contact dagnew@ucsd.edu or hjohnson@ucsd.edu COMMENT
                                                            COMMENT
BLACK BUTTE                                                 MARKER NAME
UNKNOWN OBSERVER CALIF INST OF TECHNOLOGY                   OBSERVER / AGENCY
497 TRIMBLE 4000 SST 4.11 / 4.10                            REC # / TYPE / VERS
129 TR 4000SST L1/L2 GEO                                    ANT # / TYPE
 -2306307.0000 -4787914.0000  3515736.0000                  APPROX POSITION XYZ
        0.9916        0.0000        0.0000                  ANTENNA: DELTA H/E/N
     1     2     0                                          WAVELENGTH FACT L1/2
     3    C1    L1    L2                                    # / TYPES OF OBSERV
     0                                                      INTERVAL
  1990    10    11    11    56   45.000000                  TIME OF FIRST OBS
  1990    10    11    18    25   60.000000                  TIME OF LAST OBS
     0                                                      # OF SATELLITES
                                                            END OF HEADER
 90 10 11 11 56 45.0000000  0  4 02 06 13 11
  20839329.570          -0.683 7
  21519115.281          -0.00417
  23594241.125          -0.36915
  24466549.289          -0.06215
 90 10 11 11 57  0.0000000  0  4 02 06 13 11
  20838950.063       -1991.690 7
  21512045.688      -37148.614 7
  23581581.602      -66513.912 5
  24474017.516       39255.632 5
 90 10 11 11 57 15.0000000  0  5 02 06 13 11 09
  20838582.539       -3925.747 7        -0.33513
  21504984.398      -74255.268 7        -0.42312
  23568934.672     -132976.370 5
  24481501.852       78580.272 5        -0.31311
  24519192.383          -0.23313
 90 10 11 11 57 30.0000000  0  5 02 06 13 11 09
  20838219.891       -5829.629 7     -1483.890 3
  21497927.289     -111346.419 7    -28902.610 2
  23556293.648     -199414.000 6        -0.02111
  24488993.039      117947.073 5     30675.132 1
  24509081.602      -53150.402 3
 90 10 11 11 57 45.0000000  0  5 02 06 13 11 09
  20837871.047       -7664.344 7     -2913.534 3
  21490879.391     -148382.986 7    -57762.275 2
  23543660.180     -265787.416 6    -51719.518 1
  24496497.695      157394.390 5     61413.326 1
  24498969.766     -106295.899 3        -0.03911
 90 10 11 11 58  0.0000000  0  5 02 06 13 11 09
  20837535.250       -9426.471 7     -4286.618 3
  21483841.586     -185361.231 7    -86576.484 2
  23531043.617     -332092.864 5   -103386.067 1
  24504024.094      196925.288 5     92216.607 1
  24488855.922     -159433.187 3    -41405.679 1
 90 10 11 11 58 15.0000000  0  5 02 06 13 11 09
  20837212.281      -11130.538 7     -5614.459 3
  21476814.461     -222295.350 7   -115356.307 2
  23518435.727     -398344.292 6   -155010.559 1
  24511558.773      236524.935 5    123073.445 1
  24478741.664     -212576.691 2    -82816.215 1
 90 10 11 11 58 30.0000000  0  5 02 06 13 11 09
  20836896.805      -12785.479 7     -6904.022 3
  21469792.281     -259194.061 7   -144108.548 2
  23505836.391     -464550.406 6   -206599.690 1
  24519101.883      276184.141 5    153976.655 1
  24468631.227     -265735.236 2   -124238.457 1
 90 10 11 11 58 45.0000000  0  5 02 06 13 11 09
  20836589.500      -14400.203 7     -8162.246 3
  21462775.969     -296065.706 7   -172839.690 2
  23493247.570     -530719.271 6   -258159.816 1
  24526660.656      315893.966 5    184919.362 1
  24458507.172     -318917.101 3   -165678.832 1
 90 10 11 11 59  0.0000000  0  5 02 06 13 11 09
  20836292.766      -15961.458 7     -9378.804 3
  21455766.195     -332896.876 7   -201539.296 2
  23480664.508     -596837.435 6   -309680.441 1
  24534229.586      355667.267 5    215911.572 1
  24448390.641     -372109.270 3   -207127.286 1
 90 10 11 11 59 15.0000000  0  6 02 06 13 18 11 09
  20836006.766      -17464.920 7    -10550.338 3
  21448766.430     -369682.904 7   -230203.722 2
  23468091.211     -662900.391 5   -361158.014 1
  22457772.289          -0.16416
  24541810.930      395507.957 5    246956.285 1
  24438262.211     -425306.952 2   -248580.018 1
 90 10 11 11 59 30.0000000  0  6 02 06 13 18 11 09
  20835729.445      -18919.772 7    -11683.994 3
  21441773.297     -406432.582 7   -258839.838 2
  23455532.531     -728916.681 6   -412599.270 1
  22465192.305       38994.451 6
  24549407.008      435406.618 5    278046.105 1
  24428133.922     -478519.304 2   -290044.167 1
 90 10 11 11 59 45.0000000  0  6 02 06 13 18 11 09
  20835460.984      -20332.776 7    -12785.030 3
  21434785.258     -443152.448 7   -287452.718 2
  23442973.828     -794892.376 6   -464008.871 1
  22472621.922       78042.337 6
  24557006.164      475356.338 5    309175.686 1
  24418008.469     -531752.621 2   -331524.648 1
 90 10 11 12  0  0.0000000  0  6 02 06 13 18 11 09
  20835198.977      -21707.119 7    -13855.944 3
  21427802.688     -479845.302 7   -316044.544 2
  23430428.664     -860830.379 6   -515389.144 1
  22480061.070      117140.069 6        -0.02911
  24564617.813      515353.591 5    340342.365 1
  24407871.531     -585010.135 2   -373024.023 1
 90 10 11 12  0 15.0000000  0  6 02 06 13 18 11 09
  20834947.508      -23027.674 7    -14884.944 3
  21420829.492     -516495.850 7   -344603.408 2
  23417892.281     -926715.088 6   -566727.880 1
  22487514.492      156302.509 6     30516.142 1
  24572240.047      555413.214 5    371557.664 1
  24397735.906     -638276.489 3   -414530.249 1
 90 10 11 12  0 30.0000000  0  6 02 06 13 18 11 09
  20834707.188      -24292.257 7    -15870.342 3
  21413863.461     -553101.346 7   -373127.165 2
  23405363.508     -992543.690 6   -618022.870 1
  22494978.031      195531.769 6     61084.387 1
  24579876.813      595537.299 5    402823.208 1
  24387599.461     -691549.151 2   -456041.441 1
 90 10 11 12  0 45.0000000  0  6 02 06 13 18 11 09
  20834476.680      -25501.509 7    -16812.608 3
  21406905.258     -589662.300 7   -401616.218 2
  23392845.828    -1058316.595 6   -669274.452 1
  22502458.883      234826.669 6     91703.778 1
  24587520.625      635724.615 5    434138.025 1
  24377460.789     -744828.730 2   -497558.000 1
 90 10 11 12  1  0.0000000  0  6 02 06 13 18 11 09
  20834258.438      -26651.224 7    -17708.480 3
  21399958.594     -626174.279 7   -430067.107 2
  23380346.078    -1124029.140 6   -720479.008 1
  22509950.617      274191.201 6    122377.431 1
  24595183.656      675979.074 5    465505.209 1
  24367320.656     -798110.918 2   -539076.551 1
 90 10 11 12  1 15.0000000  0  6 02 06 13 18 11 09
  20834049.266      -27744.673 7    -18560.521 3
  21393018.930     -662640.113 7   -458482.043 2
  23367848.875    -1189684.337 6   -771638.904 1
  22517455.250      313621.649 6    153102.450 1
  24602855.523      716297.040 5    496921.842 1
  24357183.609     -851398.702 3   -580599.494 1
 90 10 11 12  1 30.0000000  0  6 02 06 13 18 11 09
  20833852.891      -28786.738 7    -19372.517 3
  21386087.961     -699064.434 7   -486864.613 2
  23355367.234    -1255286.468 6   -822757.426 1
  22524967.336      353113.032 6    183874.954 1
  24610537.492      756673.555 5    528384.087 1
  24347040.289     -904696.766 3   -622130.446 1
 90 10 11 12  1 45.0000000  0  6 02 06 13 18 11 09
  20833663.727      -29774.192 7    -20141.958 3
  21379164.445     -735443.750 7   -515212.130 2
  23342894.453    -1320831.886 6   -873831.748 1
  22532495.977      392668.146 6    214697.113 1
  24618234.852      797111.419 5    559894.131 1
  24336893.516     -958001.667 3   -663666.764 1
 90 10 11 12  2  0.0000000  0  6 02 06 13 18 11 09
  20833486.547      -30713.720 7    -20874.068 3
  21372249.734     -771784.025 7   -543529.218 2
  23330430.289    -1386326.581 6   -924866.533 1
  22540031.875      432280.595 6    245563.949 1
  24625938.359      837603.965 5    591446.764 1
  24326746.750    -1011319.549 3   -705213.136 1
 90 10 11 12  2 15.0000000  0  6 02 06 13 18 11 09
  20833316.945      -31592.753 7    -21559.022 3
  21365345.063     -808072.571 7   -571806.006 2
  23317979.586    -1451757.682 6   -975851.765 1
  22547585.609      471962.392 6    276484.833 1
  24633657.891      878163.303 5    623051.425 1
  24316604.563    -1064637.816 3   -746759.855 1
 90 10 11 12  2 30.0000000  0  6 02 06 13 18 11 09
  20833160.352      -32423.792 7    -22206.584 3
  21358445.969     -844321.834 7   -600052.183 2
  23305538.383    -1517137.337 6  -1026796.919 1
  22555146.531      511700.506 6    307449.590 1
  24641385.602      918776.594 5    654698.191 1
  24306453.109    -1117968.976 3   -788316.615 1
 90 10 11 12  2 45.0000000  0  6 02 06 13 18 11 09
  20833014.617      -33190.702 7    -22804.176 3
  21351559.070     -880515.200 7   -628254.794 2
  23293107.242    -1582449.067 6  -1077689.135 1
  22562722.555      551510.414 6    338470.281 1
  24649128.367      959459.618 5    686399.234 1
  24296306.352    -1171296.798 3   -829870.740 1
 90 10 11 12  3  0.0000000  0  6 02 06 13 18 11 09
  20832873.719      -33929.240 7    -23379.659 3
  21344674.844     -916688.077 7   -656441.447 2
  23280685.883    -1647728.019 6  -1128555.820 1
  22570302.930      591356.649 6    369519.280 1
  24656875.406     1000176.500 5    718126.688 1
  24286152.086    -1224656.481 3   -871449.737 1
 90 10 11 12  3 15.0000000  0  6 02 06 13 18 11 09
  20832744.906      -34600.359 7    -23902.614 3
  21337802.891     -952801.091 7   -684581.446 2
  23268276.938    -1712934.524 6  -1179366.042 1
  22577901.461      631278.087 6    400626.881 1
  24664637.820     1040965.874 5    749910.585 1
  24275999.156    -1278008.899 3   -913023.038 1
 90 10 11 12  3 30.0000000  0  6 02 06 13 18 11 09
  20832623.125      -35233.446 7    -24395.934 3
  21330936.266     -988883.509 7   -712697.618 2
  23255875.680    -1778097.932 6  -1230142.672 1
  22585505.023      671244.691 6    431769.691 1
  24672408.031     1081797.939 5    781727.778 1
  24265842.063    -1331383.366 3   -954613.508 1
 90 10 11 12  3 45.0000000  0  6 02 06 13 18 11 09
  20832508.367      -35844.696 7    -24872.221 3
  21324073.531    -1024951.093 7   -740802.219 2
  23243483.992    -1843233.964 6  -1280898.007 1
  22593117.656      711240.086 6    462934.919 1
  24680183.453     1122656.376 5    813565.508 1
  24255673.531    -1384795.849 3   -996233.625 1
 90 10 11 12  4  0.0000000  0  6 02 06 13 18 11 09
  20832402.281      -36396.597 7    -25302.267 3
  21317219.539    -1060965.911 7   -768865.712 2
  23231099.484    -1908304.390 6  -1331602.184 1
  22600741.781      751301.715 6    494151.768 1
  24687971.125     1163578.443 5    845452.824 1
  24245512.094    -1438208.542 4  -1037853.908 1
 90 10 11 12  4 15.0000000  0  6 02 06 13 18 11 09
  20832308.539      -36897.652 7    -25692.705 3
  21310374.922    -1096936.017 7   -796894.359 2
  23218728.250    -1973317.133 6  -1382261.431 1
  22608375.344      791420.748 6    525413.350 1
  24695768.016     1204555.442 5    877382.954 1
  24235349.305    -1491629.610 4  -1079480.717 1
 90 10 11 12  4 30.0000000  0  6 02 06 13 18 11 09
  20832222.617      -37338.202 7    -26035.989 3
  21303540.195    -1132851.574 7   -824880.513 2
  23206370.352    -2038262.242 6  -1432867.976 1
  22616020.477      831606.618 6    556727.015 1
  24703577.242     1245596.666 5    909363.148 1
  24225182.422    -1545049.209 4  -1121106.380 1
 90 10 11 12  4 45.0000000  0  6 02 06 13 18 11 09
  20832153.031      -37705.035 7    -26321.838 3
  21296719.273    -1168699.034 7   -852813.585 2
  23194028.891    -2103126.234 6  -1483411.296 1
  22623684.125      871871.838 6    588102.500 1
  24711402.453     1286715.050 5    941403.497 1
  24215018.766    -1598454.118 4
 90 10 11 12  5  0.0000000  0  6 02 06 13 18 11 09
  20832095.516      -38026.297 7    -26572.175 3
  21289905.367    -1204506.380 7   -880715.403 2
  23181696.539    -2167936.827 6  -1533913.012 1
  22631356.563      912188.275 6    619517.904 1
  24719235.383     1327881.996 5    973481.643 1
  24204856.781    -1651872.223 5
 90 10 11 12  5 15.0000000  0  6 02 06 13 18 11 09
  20832036.984      -38313.191 7    -26795.726 3
  21283097.578    -1240284.603 7   -908594.531 2
  23169369.852    -2232705.035 6  -1584381.722 1
  22639034.578      952543.938 6    650963.871 1
  24727076.039     1369085.973 5   1005588.675 1
  24194686.727    -1705314.741 5
 90 10 11 12  5 30.0000000  0  6 02 06 13 18 11 09
  20831995.188      -38549.233 7    -26979.648 3
  21276296.859    -1276016.707 7   -936437.720 2
  23157054.062    -2297413.510 6  -1634803.864 1
  22646727.383      992955.456 6    682453.363 1
  24734928.836     1410343.223 5   1037737.200 1
  24184518.359    -1758764.758 5
 90 10 11 12  5 45.0000000  0  6 02 06 13 18 11 09
  20831960.938      -38720.863 7
  21269509.211    -1311688.895 7   -964234.222 2
  23144756.984    -2362048.485 6  -1685168.741 1
  22654430.148     1033436.090 6    713996.692 1
  24742793.531     1451666.945 5   1069937.476 1
  24174347.086    -1812208.608 5        -0.15211
 90 10 11 12  6  0.0000000  0  6 02 06 13 18 11 09
  20831933.805      -38856.945 7
  21262727.008    -1347329.698 7   -992006.270 2
  23132466.219    -2426638.311 6  -1735498.440 1
  22662139.695     1073956.403 6    745570.954 1
  24750663.195     1493027.975 5   1102166.839 1
  24164171.586    -1865675.053 5    -41662.269 1
 90 10 11 12  6 15.0000000  0  6 02 06 13 18 11 09
  20831919.398      -38943.346 7
  21255953.320    -1382924.818 7  -1019742.712 2
  23120184.813    -2491168.397 6  -1785781.578 1
  22669858.633     1114530.309 6    777186.974 1
  24758544.047     1534440.153 5   1134436.018 1
  24153993.227    -1919149.454 5    -83330.649 1
 90 10 11 12  6 30.0000000  0  6 02 06 13 18 11 09
  20831914.680      -38976.099 7
  21249189.805    -1418469.646 7  -1047439.981 2
  23107919.039    -2555634.116 6  -1836014.568 1
  22677592.703     1155161.943 6    808847.984 1
  24766433.438     1575907.494 5   1166748.268 1
  24143817.391    -1972627.747 5   -125002.063 1
 90 10 11 12  6 45.0000000  0  6 02 06 13 18 11 09
  20831919.164      -38945.244 7
  21242436.773    -1453953.765 7  -1075089.938 2
  23095663.883    -2620025.142 6  -1886189.364 1
  22685337.211     1195860.637 6    840561.245 1
  24774338.180     1617439.657 5   1199110.924 1
  24133644.727    -2026099.571 5   -166668.473 1
 90 10 11 12  7  0.0000000  0  6 02 06 13 18 11 09
  20831930.219      -38877.843 7
  21235691.250    -1489404.330 7  -1102713.747 2
  23083421.000    -2684368.240 6  -1936326.810 1
  22693091.539     1236598.960 6    872305.382 1
  24782248.898     1659009.107 5   1231502.694 1
  24123463.227    -2079591.964 5   -208350.805 1
 90 10 11 12  7 15.0000000  0  6 02 06 13 18 11 09
  20831955.523      -38757.456 7
  21228954.344    -1524804.282 7  -1130298.115 2
  23071186.031    -2748646.259 6  -1986413.524 1
  22700853.992     1277393.292 6    904093.168 1
  24790166.961     1700632.139 5   1263936.238 1
  24113282.484    -2133088.210 5   -250036.219 1
 90 10 11 12  7 30.0000000  0  6 02 06 13 18 11 09
  20831989.336      -38585.298 7
  21222226.914    -1560154.665 7  -1157843.859 2
  23058967.859    -2812860.129 6  -2036450.281 1
  22708627.773     1318242.023 6    935923.337 1
  24798098.883     1742307.285 5   1296410.336 1
  24103101.500    -2186589.331 5   -291725.386 1
 90 10 11 12  7 45.0000000  0  6 02 06 13 18 11 09
  20832028.883      -38365.435 7
  21215509.203    -1595459.104 7  -1185353.800 2
  23046762.266    -2877013.620 6  -2086439.971 1
  22716407.836     1359140.775 6    967792.489 1
  24806038.547     1784029.992 5   1328921.525 1
  24092919.984    -2240099.175 5   -333421.404 1
 90 10 11 12  8  0.0000000  0  6 02 06 13 18 11 09
  20832080.180      -38087.037 7        -0.48013
  21208801.609    -1630706.594 7  -1212819.378 2
  23034565.023    -2941095.427 6  -2136373.818 1
  22724204.445     1400100.176 6    999708.887 1
  24813990.391     1825810.745 5   1361477.978 1
  24082739.484    -2293606.744 5   -375115.613 1
 90 10 11 12  8 15.0000000  0  6 02 06 13 18 11 09
  20832141.711      -37771.991 7       245.003 3
  21202100.961    -1665918.761 7  -1240257.427 2
  23022381.289    -3005127.094 6  -2186268.573 1
  22732004.242     1441098.101 6   1031655.322 1
  24821945.539     1867627.435 5   1394062.402 1
  24072551.227    -2347133.769 5   -416824.991 1
 90 10 11 12  8 30.0000000  0  6 02 06 13 18 11 09
  20832212.133      -37408.470 7       528.262 3
  21195409.602    -1701083.316 7  -1267658.369 2
  23010211.234    -3069096.246 6  -2236114.621 1
  22739816.367     1482146.046 6   1063640.725 1
  24829915.570     1909491.592 5   1426683.827 1
  24062364.195    -2400668.206 5   -458540.104 1
 90 10 11 12  8 45.0000000  0  6 02 06 13 18 11 09
  20832288.742      -36996.419 7       849.343 3
  21188727.234    -1736199.937 7  -1295021.959 2
  22998047.828    -3133002.570 6  -2285911.699 1
  22747637.086     1523243.376 6   1095664.611 1
  24837886.938     1951402.909 5   1459342.023 1
  24052175.641    -2454209.817 5   -500260.863 1
 90 10 11 12  9  0.0000000  0  6 02 06 13 18 11 09
  20832375.586      -36537.176 7      1207.194 3
  21182053.914    -1771269.703 7  -1322349.046 2
  22985898.547    -3196846.888 6  -2335660.469 1
  22755466.023     1564388.856 6   1127726.011 1
  24845873.117     1993359.728 4   1492035.643 1
  24041985.602    -2507759.496 5   -541987.935 1
 90 10 11 12  9 15.0000000  0  6 02 06 13 18 11 09
  20832474.008      -36025.445 7      1605.944 3
  21175390.688    -1806287.036 7  -1349635.276 2
  22973762.555    -3260623.594 6  -2385356.592 1
  22763306.430     1605587.354 6   1159828.734 1
  24853865.813     2035367.154 5   1524768.675 1
  24031797.391    -2561312.095 5   -583717.198 1
 90 10 11 12  9 30.0000000  0  6 02 06 13 18 11 09
  20832580.961      -35463.910 7      2043.500 3
  21168736.125    -1841253.986 7  -1376882.240 2
  22961638.867    -3324334.673 6  -2435001.556 1
  22771157.125     1646835.542 6   1191970.172 1
  24861868.984     2077422.142 4   1557538.738 1
  24021602.406    -2614869.906 5   -625450.560 1
 90 10 11 12  9 45.0000000  0  6 02 06 13 18 11 09
  20832696.898      -34848.039 7      2523.397 3
  21162092.156    -1876165.987 7  -1404086.386 2
  22949529.391    -3387975.244 6  -2484591.583 1
  22779013.469     1688138.073 6   1224153.948 1
  24869878.523     2119529.175 4   1590349.428 1
  24011411.164    -2668428.090 5   -667184.214 1
 90 10 11 12 10  0.0000000  0  6 02 06 13 18 11 09
  20832826.602      -34177.335 7      3046.022 3
  21155460.070    -1911022.234 7  -1431247.096 2
  22937431.281    -3451544.543 6  -2534126.074 1
  22786886.023     1729495.253 6   1256380.315 1
  24877906.102     2161688.297 4   1623200.700 1
  24001220.813    -2721985.998 5   -708917.641 1
 90 10 11 12 10 15.0000000  0  6 02 06 13 18 11 09
  20832963.031      -33456.690 7      3607.569 3
  21148836.047    -1945827.044 7  -1458367.722 2
  22925345.273    -3515046.874 6  -2583608.387 1
  22794766.898     1770901.581 6   1288644.975 1
  24885935.891     2203894.502 3   1656088.628 1
  23991028.727    -2775548.236 5   -750654.430 1
 90 10 11 12 10 30.0000000  0  6 02 06 13 18 11 09
  20833110.063      -32683.502 7      4210.058 3
  21142223.688    -1980577.467 7  -1485445.965 2
  22913279.320    -3578479.046 6  -2633036.022 1
  22802652.914     1812359.670 6   1320949.973 1
  24893979.453     2246149.973 4   1689014.935 1
  23980833.594    -2829111.984 5   -792392.445 1
 90 10 11 12 10 45.0000000  0  6 02 06 13 18 11 09
  20833263.094      -31882.077 7      4834.540 3
  21135616.344    -2015297.660 7  -1512500.651 2
  22901214.508    -3641864.989 6  -2682427.635 1
  22810547.141     1853845.024 6   1353276.213 1
  24902022.711     2288430.077 4   1721960.423 1
  23970637.852    -2882701.348 5   -834150.348 1
 90 10 11 12 11  0.0000000  0  6 02 06 13 18 11 09
  20833425.500      -31027.573 7      5500.388 3
  21129019.875    -2049962.438 7  -1539512.166 2
  22889164.102    -3705179.576 6  -2731763.643 1
  22818452.891     1895381.774 6   1385642.512 1
  24910077.305     2330759.266 3   1754944.195 1
  23960439.945    -2936291.398 5   -875908.844 1
 90 10 11 12 11 15.0000000  0  6 02 06 13 18 11 09
  20833599.133      -30121.363 7      6206.520 3
  21122432.844    -2084573.030 7  -1566481.452 2
  22877129.891    -3768423.818 6  -2781044.874 1
  22826366.164     1936968.574 6   1418047.799 1
  24918144.469     2373135.974 3   1787964.956 1
  23950240.859    -2989883.256 5   -917668.730 1
 90 10 11 12 11 30.0000000  0  6 02 06 13 18 11 09
  20833782.078      -29159.010 7      6956.407 3
  21115858.586    -2119124.467 7  -1593404.635 2
  22865111.492    -3831592.828 6  -2830267.450 1
  22834288.172     1978609.143 6   1450494.989 1
  24926217.648     2415564.317 4   1821026.017 1
  23940043.102    -3043472.237 5   -959426.374 1
 90 10 11 12 11 45.0000000  0  6 02 06 13 18 11 09
  20833972.750      -28153.533 7      7739.893 3
  21109292.523    -2153629.412 7  -1620291.600 2
  22853099.039    -3894699.174 6  -2879441.190 1
  22842222.594     2020290.452 6   1482973.923 1
  24934300.820     2458031.036 3   1854116.956 1
  23929844.414    -3097071.185 4  -1001191.774 1
 90 10 11 12 12  0.0000000  0  6 02 06 13 18 11 09
  20834172.133      -27104.961 7      8556.958 3
  21102735.914    -2188087.741 7  -1647142.244 2
  22841105.977    -3957742.540 6  -2928565.846 1
  22850158.680     2062012.190 6   1515484.348 1
  24942382.367     2500535.778 2   1887237.517 1
  23919641.641    -3150679.749 4  -1042964.659 1
 90 10 11 12 12 15.0000000  0  6 02 06 13 18 11 09
  20834380.039      -26007.284 7      9412.295 3
  21096188.578    -2222492.922 7  -1673951.461 2
  22829119.844    -4020716.543 6  -2977636.451 1
  22858108.219     2103779.909 6   1548030.620 1
  24950481.500     2543084.265 3   1920392.111 1
  23909440.914    -3204291.779 4  -1084740.262 1
 90 10 11 12 12 30.0000000  0  6 02 06 13 18 11 09
  20834596.461      -24871.547 7     10297.294 3
  21089649.531    -2256855.801 7  -1700727.716 2
  22817150.336    -4083631.652 6  -3026661.165 1
  22866064.758     2145582.164 6   1580603.795 1
  24958589.070     2585665.065 3   1953571.922 1
  23899233.234    -3257918.213 4  -1126527.095 1
 90 10 11 12 12 45.0000000  0  6 02 06 13 18 11 09
  20834819.813      -23694.693 7     11214.318 3
  21083118.992    -2291172.987 7  -1727468.384 2
  22805188.031    -4146484.300 6  -3075637.223 1
  22874027.484     2187421.909 6   1613206.179 1
  24966695.586     2628281.021 3   1986779.131 1
  23889028.219    -3311555.532 4  -1168322.400 1
 90 10 11 12 13  0.0000000  0  6 02 06 13 18 11 09
  20835058.625      -22445.228 7     12187.925 3
  21076603.992    -2325412.581 7  -1754148.581 3
  22793244.563    -4209242.639 6  -3124539.816 1
  22882000.453     2229330.513 6   1645862.226 1
  24974819.188     2670963.499 3   2020038.129 1
  23878824.008    -3365172.201 4  -1210101.630 1
 90 10 11 12 13 14.9990000  0  6 02 06 13 18 11 09
  20835307.909      -21136.132 7     13208.001 3
  21070100.628    -2359584.925 7  -1780776.370 2
  22781320.769    -4271915.027 6  -3173375.423 1
  22889985.776     2271291.563 6   1678559.136 1
  24982946.198     2713696.346 3   2053336.424 1
  23868626.862    -3418777.358 4  -1251871.883 1
 90 10 11 12 13 29.9990000  0  5 02 06 13 18 09
  20835563.378      -19791.263 7     14255.952 3
  21063606.003    -2393718.345 7  -1807373.830 3
  22769405.315    -4334533.423 6  -3222168.962 1
  22897977.315     2313286.680 6   1711282.596 1
  23858419.401    -3472401.762 4  -1293657.125 1
 90 10 11 12 13 44.9990000  0  5 02 06 13 18 09
  20835827.847      -18403.416 7     15337.400 3
  21057119.323    -2427802.958 7  -1833933.270 2
  22757500.987    -4397086.113 6  -3270911.290 1
  22905975.495     2355319.874 6   1744035.730 1
  23848213.237    -3526034.625 5  -1335448.941 1
 90 10 11 12 13 59.9990000  0  5 02 06 13 18 09
  20836099.862      -16969.371 7     16454.838 3
  21050643.761    -2461835.085 7  -1860451.802 2
  22745609.050    -4459569.266 6  -3319599.454 1
  22913982.948     2397394.207 6   1776820.931 1
  23838005.761    -3579672.396 4  -1377244.601 1
 90 10 11 12 14 14.9990000  0  5 02 06 13 18 09
  20836381.972      -15491.362 7     17606.535 3
  21044176.831    -2495816.532 7  -1886930.839 3
  22733732.425    -4521984.256 6  -3368234.492 1
  22921996.565     2439507.309 6   1809636.332 1
  23827797.956    -3633316.671 4  -1419045.324 1
 90 10 11 12 14 29.9990000  0  5 02 06 13 18 09
  20836672.370      -13966.803 7     18794.499 3
  21037720.284    -2529744.558 7  -1913368.261 2
  22721869.519    -4584328.566 6  -3416814.443 1
  22930014.745     2481661.201 6   1842483.508 1
  23817589.714    -3686964.999 4  -1460849.199 1
 90 10 11 12 14 44.9990000  0  5 02 06 13 18 09
  20836973.050      -12385.573 7     20026.624 3
  21031276.472    -2563608.868 7  -1939756.027 2
  22710023.737    -4646591.955 6  -3465331.357 1
  22938048.495     2523865.772 6   1875370.168 1
  23807384.183    -3740607.089 4  -1502648.209 1
 90 10 11 12 14 59.9990000  0  5 02 06 13 18 09
  20837284.339      -10749.141 7     21301.759 3
  21024843.417    -2597410.056 7  -1966094.615 3
  22698187.386    -4708774.774 6  -3513785.484 1
  22946090.487     2566119.505 6   1908295.162 1
  23797177.269    -3794243.858 4  -1544443.095 1
 90 10 11 12 15 14.9990000  0  5 02 06 13 18 09
  20837605.776       -9062.381 7     22616.115 3
  21018422.956    -2631153.193 7  -1992387.961 3
  22686369.620    -4770881.782 6  -3562180.514 1
  22954139.386     2608416.678 6   1941253.987 1
  23786965.042    -3847880.382 3  -1586237.774 1
 90 10 11 12 15 29.9990000  0  5 02 06 13 18 09
  20837932.683       -7344.797 7     23954.504 3
  21012008.714    -2664857.352 7  -2018650.938 2
  22674561.378    -4832932.450 6  -3610531.662 1
  22962191.276     2650737.600 6   1974231.319 1
  23776757.159    -3901535.790 4  -1628047.152 1
 90 10 11 12 15 44.9990000  0  5 02 06 13 18 09
  20838268.870       -5576.267 7     25332.581 3
  21005606.604    -2698502.075 7  -2044867.596 2
  22662767.237    -4894906.142 6  -3658822.820 1
  22970250.620     2693102.296 6   2007242.760 1
  23766547.597    -3955189.731 4  -1669855.424 1
 90 10 11 12 15 59.9990000  0  5 02 06 13 18 09
  20838614.026       -3758.373 7     26749.123 3
  20999215.190    -2732088.748 7  -2071039.023 2
  22650988.433    -4956803.777 6  -3707054.710 1
  22978320.979     2735508.814 6   2040286.788 1
  23756337.183    -4008843.614 4  -1711663.651 1
 90 10 11 12 16 14.9990000  0  5 02 06 13 18 09
  20838968.831       -1894.707 7     28201.320 3
  20992834.550    -2765620.698 7  -2097167.815 2
  22639224.901    -5018628.695 6  -3755229.953 1
  22986399.589     2777952.899 6   2073360.088 1
  23746126.089    -4062500.940 4  -1753474.522 1
 90 10 11 12 16 29.9990000  0  5 02 06 13 18 09
  20839328.378          -8.965 7     29670.729 3
  20986459.222    -2799121.030 7  -2123271.962 3
  22627467.308    -5080403.979 6  -3803366.495 1
  22994479.667     2820410.842 6   2106444.203 1
  23735911.933    -4116185.043 4  -1795306.273 1
 90 10 11 12 16 44.9990000  0  5 02 06 13 18 09
  20839697.081        1925.424 7     31178.045 3
  20980096.167    -2832563.050 7  -2149330.663 3
  22615728.269    -5142102.648 6  -3851443.351 1
  23002566.987     2862909.032 6   2139559.663 1
  23725695.776    -4169869.107 4  -1837138.012 1
 90 10 11 12 16 59.9990000  0  5 02 06 13 18 09
  20840072.995        3906.735 7     32721.921 3
  20973743.495    -2865947.648 7  -2175344.625 3
  22604001.886    -5203725.896 6  -3899461.434 1
  23010662.956     2905445.607 6   2172705.041 1
  23715478.792    -4223554.207 4  -1878970.552 1
 90 10 11 12 17 14.9990000  0  5 02 06 13 18 09
  20840455.839        5917.167 7     34288.489 3
  20967397.229    -2899292.752 7  -2201327.817 2
  22592285.612    -5265291.461 6  -3947434.565 1
  23018757.886     2948002.117 6   2205865.947 1
  23705259.120    -4277258.437 4  -1920817.991 1
 90 10 11 12 17 29.9990000  0  5 02 06 13 18 09
  20840845.604        7967.836 7     35886.404 3
  20961061.894    -2932586.817 7  -2227271.235 2
  22580583.331    -5326787.806 6  -3995353.764 1
  23026861.784     2990589.448 6   2239050.881 1
  23695041.159    -4330970.288 5  -1962671.374 1
 90 10 11 12 17 44.9990000  0  5 02 06 13 18 09
  20841241.980       10051.117 7     37509.748 3
  20954734.269    -2965837.118 7  -2253180.559 2
  22568893.315    -5388222.203 6  -4043224.703 1
  23034973.323     3033199.762 6   2272253.712 1
  23684814.878    -4384697.162 4  -2004536.443 1
 90 10 11 12 17 59.9990000  0  5 02 06 13 18 09
  20841646.378       12171.271 7     39161.814 3
  20948417.386    -2999039.216 7  -2279052.314 2
  22557215.261    -5449589.961 6  -4091043.714 1
  23043085.214     3075836.935 6   2305477.463 1
  23674591.073    -4438434.589 5  -2046409.756 1
 90 10 11 12 18 14.9990000  0  5 02 06 13 18 09
  20842062.698       14364.004 7     40870.435 3
  20942114.870    -3032157.126 7  -2304858.474 3
  22545556.073    -5510854.770 6  -4138782.499 1
  23051209.573     3118536.258 6   2338749.666 1
  23664369.394    -4492146.793 5  -2088263.434 1
 90 10 11 12 18 29.9990000  0  5 02 06 13 18 09
  20842489.714       16605.099 7     42616.752 3
  20935823.558    -3065214.534 7  -2330617.490 3
  22533913.847    -5572040.412 6  -4186459.629 1
  23059339.683     3161273.470 6   2372051.378 1
  23654149.050    -4545857.491 5  -2130115.917 1
 90 10 11 12 18 44.9990000  0  5 02 06 13 18 09
  20842927.729       18905.864 7     44409.561 3
  20929546.237    -3098199.746 7  -2356320.249 2
  22522287.089    -5633135.351 6  -4234066.044 1
  23067486.339     3204059.422 6   2405391.076 1
  23643928.511    -4599555.088 5  -2171958.166 1
 90 10 11 12 18 59.9990000  0  5 02 06 13 18 09
  20843374.190       21253.047 7     46238.531 3
  20923281.667    -3131125.876 7  -2381976.962 2
  22510676.815    -5694152.418 6  -4281611.800 1
  23075631.511     3246880.518 6   2438758.150 1
  23633712.417    -4653252.856 5  -2213800.583 1
 90 10 11 12 19 14.9990000  0  5 02 06 13 18 09
  20843832.362       23660.712 7     48114.637 3
  20917029.128    -3163978.515 7  -2407576.416 3
  22499083.831    -5755077.111 6  -4329085.577 1
  23083789.386     3289750.476 6   2472163.314 1
  23623495.292    -4706936.480 5  -2255631.967 1
 90 10 11 12 19 29.9990000  0  5 02 06 13 18 09
  20844300.761       26124.329 7     50034.333 3
  20910791.284    -3196761.640 7  -2433121.705 2
  22487506.667    -5815913.485 6  -4376490.527 1
  23091960.065     3332664.494 6   2505602.800 1
  23613280.683    -4760610.048 5  -2297455.515 1
 90 10 11 12 19 44.9990000  0  5 02 06 13 18 09
  20844780.050       28640.556 7     51995.023 3
  20904566.151    -3229478.612 7  -2458615.437 2
  22475944.979    -5876664.611 6  -4423829.046 1
  23100135.190     3375618.866 6   2539073.719 1
  23603069.511    -4814276.975 5  -2339273.900 1
 90 10 11 12 19 59.9990000  0  5 02 06 13 18 09
  20845261.644       31173.521 7     53968.754 3
  20898345.362    -3262164.936 7  -2484085.297 2
  22464396.870    -5937366.048 6  -4471128.835 1
  23108305.612     3418577.329 6   2572547.827 1
  23592852.815    -4867972.712 5  -2381114.730 1
 90 10 11 12 20 14.9990000  0  5 02 06 13 18 09
  20845749.120       33734.474 7     55964.306 3
  20892134.683    -3294808.807 7  -2509522.067 3
  22452854.886    -5998005.875 6  -4518380.631 1
  23116484.495     3461551.052 6   2606033.848 1
  23582630.456    -4921685.799 5  -2422969.080 1
 90 10 11 12 20 29.9990000  0  5 02 06 13 18 09
  20846245.503       36342.874 7     57996.830 3
  20885933.183    -3327390.520 7  -2534910.413 2
  22441329.753    -6058564.310 6  -4565569.002 1
  23124669.534     3504559.185 6   2639546.672 1
  23572410.995    -4975396.459 5  -2464821.537 1
 90 10 11 12 20 44.9990000  0  5 02 06 13 18 09
  20846749.667       38992.003 7     60061.084 3
  20879743.472    -3359916.377 7  -2560255.234 2
  22429819.151    -6119047.655 6  -4612698.887 1
  23132860.956     3547594.834 6   2673080.935 1
  23562189.659    -5029111.007 5  -2506676.985 1
 90 10 11 12 20 59.9990000  0  5 02 06 13 18 09
  20847261.753       41683.413 7     62158.282 3
  20873566.245    -3392384.540 7  -2585555.091 2
  22418328.401    -6179453.802 6  -4659768.596 1
  23141051.831     3590659.371 6   2706637.722 1
  23551967.300    -5082827.839 5  -2548534.253 1
 90 10 11 12 21 14.9990000  0  5 02 06 13 18 09
  20847784.065       44428.220 7     64297.091 3
  20867400.105    -3424783.635 7  -2610801.132 2
  22406848.386    -6239771.460 6  -4706769.347 1
  23149253.886     3633763.163 6   2740225.112 1
  23541748.058    -5136535.930 5  -2590384.698 1
 90 10 11 12 21 29.9990000  0  5 02 06 13 18 09
  20848314.909       47216.058 7     66469.433 3
  20861245.714    -3457123.730 7  -2636001.203 2
  22395385.019    -6300010.807 6  -4753709.104 1
  23157462.300     3676895.563 6   2773834.793 1
  23531525.120    -5190245.087 5  -2632235.989 1
 90 10 11 12 21 44.9990000  0  5 02 06 13 18 09
  20848854.690       50051.817 7     68679.112 3
  20855104.159    -3489399.638 7  -2661151.252 3
  22383936.628    -6360166.274 6  -4800583.475 1
  23165676.698     3720061.126 6   2807470.318 1
  23521304.065    -5243950.161 5  -2674084.098 1
 90 10 11 12 21 59.9990000  0  5 02 06 13 18 09
  20849403.394       52932.018 7     70923.418 3
  20848973.401    -3521614.221 7  -2686253.521 2
  22372506.300    -6420241.109 6  -4847395.029 1
  23173897.253     3763256.324 6   2841128.922 1
  23511086.753    -5297654.351 5  -2715931.515 1
 90 10 11 12 22 14.9990000  0  5 02 06 13 18 09
  20849963.706       55878.058 7     73219.036 3
  20842859.620    -3553746.020 7  -2711291.278 2
  22361092.269    -6480213.452 6  -4894126.731 1
  23182125.964     3806502.221 6   2874827.013 1
  23500872.151    -5351336.169 5  -2757761.495 1
 90 10 11 12 22 29.9990000  0  5 02 06 13 18 09
  20850533.487       58874.712 7     75554.094 3
  20836758.065    -3585810.038 7  -2736276.217 2
  22349698.870    -6540098.096 6  -4940790.100 1
  23190361.690     3849782.962 6   2908552.274 1
  23490659.097    -5405010.716 5  -2799585.792 1
 90 10 11 12 22 44.9990000  0  5 02 06 13 18 09
  20851113.847       61923.247 7     77929.577 3
  20830669.792    -3617804.358 7  -2761206.855 3
  22338319.839    -6599893.235 6  -4987383.697 1
  23198604.909     3893099.866 6   2942305.705 1
  23480446.097    -5458676.119 5  -2841402.996 1
 90 10 11 12 22 59.9990000  0  5 02 06 13 18 09
  20851695.222       64982.195 7     80313.171 3
  20824586.901    -3649770.265 7  -2786115.348 3
  22326950.120    -6659640.435 6  -5033939.947 1
  23206847.050     3936411.119 6   2976054.728 1
  23470227.339    -5512373.859 5  -2883245.362 1
 90 10 11 12 23 14.9990000  0  5 02 06 13 18 09
  20852284.050       68074.489 7     82722.752 3
  20818513.167    -3681684.722 7  -2810983.752 2
  22315593.042    -6719316.347 6  -5080440.647 1
  23215093.144     3979739.121 6   3009816.799 1
  23460006.620    -5566080.818 5  -2925094.911 1
 90 10 11 12 23 29.9990000  0  5 02 06 13 18 09
  20852882.487       71221.382 7     85174.875 3
  20812453.878    -3713526.031 7  -2835795.159 2
  22304256.542    -6778899.036 6  -5126868.694 1
  23223341.019     4023104.810 5   3043608.239 1
  23449787.480    -5619775.504 5  -2966934.931 1
 90 10 11 12 23 44.9990000  0  5 02 06 13 18 09
  20853490.495       74411.967 7     87661.045 3
  20806407.354    -3745304.688 7  -2860557.740 2
  22292932.995    -6838398.835 6  -5173232.155 1
  23231602.565     4066496.956 6   3077420.297 1
  23439570.862    -5673468.483 5  -3008773.609 1
 90 10 11 12 23 59.9990000  0  5 02 06 13 18 09
  20854105.370       77642.694 7     90178.497 3
  20800370.284    -3777023.894 7  -2885273.996 2
  22281627.222    -6897819.094 6  -5219533.639 1
  23239866.401     4109911.581 6   3111249.865 1
  23429353.019    -5727163.111 5  -3050613.563 1
 90 10 11 12 24 14.9990000  0  5 02 06 13 18 09
  20854725.862       80903.923 7     92719.718 3
  20794344.628    -3808692.986 7  -2909951.207 3
  22270332.589    -6957169.064 6  -5265780.351 1
  23248127.034     4153339.205 5   3145089.567 1
  23419135.034    -5780868.646 5  -3092462.032 1
 90 10 11 12 24 29.9990000  0  5 02 06 13 18 09
  20855353.847       84206.887 7     95293.456 3
  20788330.659    -3840300.524 7  -2934580.448 2
  22259052.659    -7016437.179 6  -5311963.271 1
  23256396.339     4196790.577 5   3178947.779 1
  23408910.987    -5834573.764 5  -3134310.158 1
 90 10 11 12 24 44.9990000  0  5 02 06 13 18 09
  20856000.706       87606.245 7     97942.310 3
  20782337.980    -3871791.391 7  -2959118.786 3
  22247802.112    -7075568.505 6  -5358039.614 1
  23264674.581     4240319.731 5   3212866.600 1
  23398704.151    -5888223.508 5  -3176115.141 1
 90 10 11 12 24 59.9990000  0  5 02 06 13 18 09
  20856652.534       91031.904 7    100611.654 3
  20776353.542    -3903235.247 7  -2983620.485 2
  22236563.526    -7134632.562 6  -5404063.531 1
  23272965.409     4283856.426 5   3246791.277 1
  23388493.058    -5941887.726 5  -3217931.411 1
 90 10 11 12 25 14.9990000  0  5 02 06 13 18 09
  20857314.300       94510.938 7    103322.587 3
  20770385.745    -3934604.876 7  -3008064.345 3
  22225339.354    -7193601.980 6  -5450013.706 1
  23281254.112     4327427.728 5   3280742.934 1
  23378283.464    -5995539.041 5  -3259737.628 1
 90 10 11 12 25 29.9990000  0  5 02 06 13 18 09
  20857985.112       98032.914 7    106066.991 3
  20764426.956    -3965910.361 7  -3032458.219 3
  22214135.065    -7252486.812 6  -5495897.976 1
  23289551.933     4371022.647 5   3314713.018 1
  23368071.823    -6049187.834 5  -3301541.867 1
 90 10 11 12 25 44.9990000  0  5 02 06 13 18 09
  20858663.128      101595.047 7    108842.677 3
  20758482.019    -3997154.200 7  -3056804.060 2
  22202944.659    -7311289.715 6  -5541718.401 1
  23297850.323     4414638.194 5   3348699.144 1
  23357864.284    -6102836.627 5  -3343346.102 1
 90 10 11 12 25 59.9990000  0  5 02 06 13 18 09
  20859348.987      105201.021 7    111652.526 3
  20752548.089    -4028332.394 7  -3081098.752 3
  22191770.433    -7370006.297 6  -5587471.562 1
  23306154.784     4458277.716 5   3382703.957 1
  23347657.573    -6156481.277 5  -3385147.112 1
 90 10 11 12 26 14.9990000  0  5 02 06 13 18 09
  20860042.503      108842.769 7    114490.249 3
  20746626.753    -4059452.334 7  -3105348.049 3
  22180614.050    -7428644.183 6  -5633163.403 1
  23314461.597     4501932.827 5   3416720.928 1
  23337451.495    -6210129.665 5  -3426951.048 1
 90 10 11 12 26 29.9990000  0  5 02 06 13 18 09
  20860742.081      112520.977 7    117356.390 3
  20740715.409    -4090513.351 7  -3129551.438 3
  22169472.222    -7487202.399 6  -5678793.168 1
  23322774.425     4545603.773 5   3450750.235 1
  23327239.886    -6263780.825 5  -3468757.145 1
 90 10 11 12 26 44.9990000  0  5 02 06 13 18 09
  20861451.362      116251.508 7    120263.304 3
  20734819.808    -4121499.300 7  -3153696.334 3
  22158345.362    -7545664.890 6  -5724348.331 1
  23331088.870     4589306.133 5   3484804.021 1
  23317030.019    -6317418.850 5  -3510553.002 1
 90 10 11 12 26 59.9990000  0  5 02 06 13 18 09
  20862171.690      120031.895 7    123209.056 3
  20728936.940    -4152412.169 7  -3177784.281 2
  22147238.878    -7604033.499 6  -5769830.354 1
  23339410.581     4633037.094 5   3518880.102 1
  23306826.808    -6371045.755 5  -3552340.205 1
 90 10 11 12 27 14.9990000  0  5 02 06 13 18 09
  20862900.104      123860.865 7    126192.657 3
  20723067.487    -4183252.847 7  -3201815.973 3
  22136149.190    -7662309.154 6  -5815239.931 1
  23347737.355     4676795.434 5   3552977.504 1
  23296622.269    -6424662.666 5  -3594119.601 1
 90 10 11 12 27 29.9990000  0  5 02 06 13 18 09
  20863639.581      127744.120 7    129218.571 3
  20717214.823    -4214015.328 7  -3225786.728 3
  22125076.854    -7720485.854 6  -5860572.409 1
  23356071.597     4720586.135 5   3587100.130 1
  23286422.081    -6478263.481 5  -3635886.472 1
 90 10 11 12 27 44.9990000  0  5 02 06 13 18 09
  20864389.229      131690.771 7    132293.888 3
  20711377.144    -4244690.381 7  -3249689.365 3
  22114027.237    -7778554.248 6  -5905820.499 1
  23364412.995     4764418.345 5   3621255.100 1
  23276228.456    -6531838.971 5  -3677633.590 1
 90 10 11 12 27 59.9990000  0  5 02 06 13 18 09
  20865149.144      135679.867 7    135402.271 3
  20705552.003    -4275298.634 7  -3273539.945 3
  22102996.425    -7836534.873 6  -5951000.188 1
  23372754.901     4808270.133 5   3655425.301 1
  23266034.940    -6585409.994 5  -3719377.238 1
 90 10 11 12 28 14.9990000  0  5 02 06 13 18 09
  20865911.339      139690.228 7    138527.227 3
  20699736.058    -4305860.905 7  -3297354.688 3
  22091973.737    -7894448.648 6  -5996127.792 1
  23381101.386     4852120.396 5   3689594.321 1
  23255836.315    -6638997.628 5  -3761133.840 1
 90 10 11 12 28 29.9990000  0  5 02 06 13 18 09
  20866681.597      143731.879 7    141676.566 3
  20693931.808    -4336366.677 7  -3321125.412 3
  22080968.355    -7952284.959 6  -6041195.031 1
  23389448.940     4895978.951 5   3723769.790 1
  23245642.487    -6692591.054 5  -3802894.926 1
 90 10 11 12 28 44.9990000  0  5 02 06 13 18 09
  20867457.659      147810.800 7    144854.942 3
  20688138.128    -4366809.584 7  -3344847.163 2
  22069977.128    -8010037.573 6  -6086197.058 1
  23397797.089     4939851.345 5   3757956.049 1
  23235440.573    -6746184.192 5  -3844655.816 1
 90 10 11 12 28 59.9990000  0  5 02 06 13 18 09
  20868243.323      151939.639 7    148072.212 3
  20682359.722    -4397176.894 7  -3368510.007 2
  22059006.792    -8067693.405 6  -6131123.659 1
  23406147.042     4983750.071 5   3792162.833 1
  23225244.878    -6799764.308 5  -3886406.555 1
 90 10 11 12 29 14.9990000  0  5 02 06 13 18 09
  20869037.206      156114.440 7    151325.301 3
  20676595.253    -4427472.057 7  -3392116.617 3
  22048052.854    -8125255.965 6  -6175977.590 1
  23414504.917     5027670.777 5   3826386.735 1
  23215049.261    -6853335.027 5  -3928149.944 1
 90 10 11 12 29 29.9990000  0  5 02 06 13 18 09
  20869843.323      160345.576 7    154622.290 3
  20670844.792    -4457684.518 7  -3415658.790 3
  22037118.761    -8182714.739 6  -6220750.647 1
  23422873.112     5071623.347 5   3860635.502 1
  23204859.034    -6906885.753 5  -3969877.779 1
 90 10 11 12 29 44.9990000  0  5 02 06 13 18 09
  20870656.542      164624.024 7    157956.144 3
  20665110.581    -4487822.920 7  -3439143.254 3
  22026202.604    -8240078.394 6  -6265449.583 1
  23431238.550     5115598.519 5   3894901.867 1
  23194673.065    -6960425.336 5  -4011596.915 1
 90 10 11 12 29 59.9990000  0  5 02 06 13 18 09
  20871479.847      168947.542 7    161325.122 3
  20659388.886    -4517889.245 7  -3462571.560 3
  22015304.347    -8297348.725 6  -6310075.793 1
  23439612.558     5159593.778 5   3929183.879 1
  23184483.964    -7013955.656 5  -4053308.839 1
 90 10 11 12 30 14.9990000  0  5 02 06 13 18 09
  20872309.229      173310.916 7    164725.148 3
  20653680.276    -4547888.119 7  -3485947.299 3
  22004422.659    -8354530.304 6  -6354632.861 1
  23447983.745     5203603.808 5   3963477.426 1
  23174299.659    -7067481.496 5  -4095017.273 1
 90 10 11 12 30 29.9990000  0  5 02 06 13 18 09
  20873148.440      177712.547 7    168154.989 3
  20647984.519    -4577821.082 7  -3509271.674 3
  21993557.472    -8411624.514 6  -6399121.837 1
  23456359.206     5247626.611 5   3997780.908 1
  23164113.862    -7121004.381 5  -4136723.406 1
 90 10 11 12 30 44.9990000  0  5 02 06 13 18 09
  20873990.698      182148.222 7    171611.360 3
  20642300.253    -4607692.088 7  -3532547.778 3
  21982710.972    -8468635.505 7  -6443545.977 1
  23464740.276     5291657.508 5   4032090.676 1
  23153929.964    -7174528.392 5  -4178430.410 1
 90 10 11 12 30 59.9990000  0  5 02 06 13 18 09
  20874844.550      186632.050 7    175105.247 3
  20636630.175    -4637486.397 7  -3555764.118 3
  21971879.753    -8525548.721 6  -6487893.918 1
  23473123.542     5335710.505 5   4066417.669 1
  23143745.479    -7228038.987 5  -4220126.964 1
 90 10 11 12 31 14.9990000  0  5 02 06 13 18 09
  20875706.565      191162.548 7    178635.506 3
  20630974.714    -4667205.489 7  -3578921.849 3
  21961066.331    -8582365.352 6  -6532166.604 1
  23481512.628     5379783.418 5   4100760.182 1
  23133563.894    -7281537.635 5  -4261814.205 1
 90 10 11 12 31 29.9990000  0  5 02 06 13 18 09
  20876573.081      195711.980 7    182180.516 3
  20625329.190    -4696876.560 7  -3602042.158 3
  21950267.995    -8639112.519 6  -6576385.156 1
  23489900.722     5423848.468 5   4135096.576 1
  23123383.753    -7335051.621 5  -4303513.385 1
 90 10 11 12 31 44.9990000  0  5 02 06 13 18 09
  20877446.690      200304.287 7    185758.933 3
  20619696.206    -4726475.332 7  -3625106.131 3
  21939486.800    -8695765.943 6  -6620530.668 1
  23498287.034     5467929.287 5   4169445.254 1
  23113202.339    -7388556.680 5  -4345205.638 1
 90 10 11 12 31 59.9990000  0  5 02 06 13 18 09
  20878328.698      204945.040 7    189375.107 3
  20614079.425    -4755996.059 7  -3648109.298 3
  21928727.409    -8752319.652 7  -6664598.471 1
  23506678.894     5512031.135 5   4203810.305 1
  23103022.440    -7442047.226 5  -4386886.585 1
 90 10 11 12 32 14.9990000  0  5 02 06 13 18 09
  20879221.440      209629.837 7    193025.594 3
  20608475.245    -4785442.906 7  -3671054.894 3
  21917982.136    -8808778.040 7  -6708592.011 1
  23515072.347     5556149.068 5   4238187.918 1
  23092844.151    -7495527.236 5  -4428559.302 1
 90 10 11 12 32 29.9990000  0  5 02 06 13 18 09
  20880120.597      214354.036 7    196706.785 3
  20602884.979    -4814819.962 7  -3693946.098 3
  21907255.292    -8865145.073 7  -6752514.359 1
  23523472.558     5600278.183 5   4272574.220 1
  23082670.378    -7549001.074 5  -4470227.201 1
 90 10 11 12 32 44.9990000  0  5 02 06 13 18 09
  20881027.862      219120.245 7    200420.713 3
  20597309.081    -4844124.417 7  -3716780.732 3
  21896548.128    -8921417.888 7  -6796363.291 1
  23531871.776     5644420.860 5   4306971.082 1
  23072492.800    -7602466.072 5  -4511888.235 1
 90 10 11 12 32 59.9990000  0  5 02 06 13 18 09
  20881939.690      223916.873 7    204158.340 3
  20591743.589    -4873367.264 7  -3739567.364 3
  21885853.323    -8977607.535 7  -6840147.420 1
  23540271.526     5688565.446 5   4341369.444 1
  23062319.081    -7655933.174 5  -4553550.882 1
 90 10 11 12 33 14.9990000  0  5 02 06 13 18 09
  20882862.276      228759.427 7    207931.758 3
  20586192.979    -4902533.115 7  -3762293.997 3
  21875181.612    -9033698.440 7  -6883854.603 1
  23548677.479     5732726.751 5   4375780.841 1
  23052149.878    -7709386.999 5  -4595203.201 1
 90 10 11 12 33 29.9990000  0  5 02 06 13 18 09
  20883799.237      233689.916 7    211773.688 3
  20580665.917    -4931579.553 7  -3784927.579 3
  21864533.901    -9089648.306 7  -6927451.883 1
  23557090.425     5776946.525 5   4410237.790 1
  23041987.620    -7762785.216 5  -4636812.204 1
 90 10 11 12 33 44.9990000  0  5 02 06 13 18 09
  20884745.339      238663.025 7    215648.837 3
  20575153.034    -4960551.465 7  -3807503.094 3
  21853906.112    -9145501.945 7  -6970974.175 1
  23565507.206     5821179.043 5   4444704.667 1
  23031828.386    -7816172.889 5  -4678412.964 1
 90 10 11 12 33 59.9990000  0  5 02 06 13 18 09
  20885701.925      243685.915 7    219562.781 3
  20569655.581    -4989441.408 7  -3830014.735 3
  21843295.628    -9201251.889 7  -7014415.678 1
  23573928.542     5865431.113 5   4479186.800 1
  23021671.550    -7869542.542 5  -4719999.693 1
 90 10 11 12 34 14.9990000  0  5 02 06 13 18 09
  20886665.769      248753.741 7    223511.740 3
  20564172.987    -5018254.060 7  -3852466.148 3
  21832707.136    -9256902.768 7  -7057779.992 1
  23582351.237     5909697.831 5   4513680.315 1
  23011516.722    -7922898.844 5  -4761576.020 1
 90 10 11 12 34 29.9990000  0  5 02 06 13 18 09
  20887639.198      253864.813 7    227494.390 3
  20558703.823    -5046990.595 7  -3874858.248 3
  21822136.292    -9312455.862 7  -7101068.092 1
  23590777.167     5953977.263 5   4548183.764 1
  23001367.003    -7976243.045 5  -4803142.935 1
 90 10 11 12 34 44.9990000  0  5 02 06 13 18 09
  20888618.276      259016.227 7    231508.475 3
  20553249.894    -5075653.445 7  -3897192.936 3
  21811581.987    -9367913.562 7  -7144281.875 1
  23599205.472     5998265.963 5   4582694.408 1
  22991220.761    -8029577.895 5  -4844702.545 1
 90 10 11 12 34 59.9990000  0  5 02 06 13 18 09
  20889608.933      264215.407 7    235559.782 3
  20547812.073    -5104235.004 7  -3919464.271 3
  21801050.409    -9423268.027 7  -7187415.206 1
  23607637.409     6042571.374 5   4617218.085 1
  22981071.823    -8082895.551 5  -4886248.740 1
 90 10 11 12 35 14.9990000  0  5 02 06 13 18 09
  20890604.972      269450.383 7    239638.977 3
  20542385.269    -5132746.944 7  -3941681.359 3
  21790532.433    -9478531.049 7  -7230477.293 1
  23616069.065     6086880.973 5   4651745.034 1
  22970925.144    -8136207.932 5  -4927790.852 1
 90 10 11 12 35 29.9990000  0  5 02 06 13 18 09
  20891601.925      274691.328 7    243722.829 3
  20536967.167    -5161218.793 7  -3963867.217 3
  21780028.784    -9533732.153 7  -7273491.121 1
  23624495.308     6131164.600 5   4686251.746 1
  22960779.214    -8189544.265 5  -4969351.618 1
 90 10 11 12 35 44.9990000  0  5 02 06 13 18 09
  20892606.503      279968.779 7    247835.115 3
  20531562.651    -5189619.637 7  -3985997.742 3
  21769539.933    -9588840.598 7  -7316432.752 1
  23632923.667     6175452.211 5   4720761.536 1
  22950629.886    -8242874.327 5  -5010907.494 1
 90 10 11 12 35 59.9990000  0  5 02 06 13 18 09
  20893618.073      285284.946 7    251977.578 3
  20526172.636    -5217947.061 7  -4008071.051 3
  21759071.769    -9643853.644 7  -7359300.049 1
  23641353.683     6219746.144 5   4755276.285 1
  22940482.956    -8296195.204 5  -5052456.234 1
 90 10 11 12 36 14.9990000  0  5 02 06 13 18 09
  20894638.644      290650.866 7    256158.810 3
  20520798.644    -5246189.754 7  -4030078.341 3
  21748622.698    -9698759.985 7  -7402084.195 1
  23649782.714     6264057.059 5   4789804.264 1
  22930339.956    -8349495.828 5  -5093989.177 1
 90 10 11 12 36 29.9990000  0  5 02 06 13 18 09
  20895667.276      296053.571 7    260368.702 3
  20515437.558    -5274360.328 7  -4052029.435 3
  21738192.815    -9753572.175 7  -7444794.977 1
  23658215.331     6308371.408 5   4824334.892 1
  22920199.972    -8402788.847 5  -5135516.186 1
 90 10 11 12 36 44.9990000  0  5 02 06 13 18 09
  20896703.729      301498.563 7    264611.535 3
  20510091.003    -5302452.660 7  -4073919.558 3
  21727781.558    -9808284.501 7  -7487427.948 1
  23666651.808     6352694.474 5   4858872.337 1
  22910061.964    -8456068.338 5  -5177032.662 1
 90 10 11 12 36 59.9990000  0  5 02 06 13 18 09
  20897748.503      306991.037 7    268891.383 3
  20504761.214    -5330461.445 7  -4095744.592 3
  21717390.315    -9862891.335 7  -7529978.710 1
  23675089.909     6397031.055 5   4893420.310 1
  22899926.636    -8509328.985 5  -5218534.455 1
 90 10 11 12 37 14.9990000  0  5 02 06 13 18 09
  20898804.378      312533.790 7    273210.409 3
  20499448.854    -5358383.457 7  -4117502.002 3
  21707019.300    -9917389.558 7  -7572444.843 1
  23683529.112     6441384.041 5   4927981.040 1
  22889794.394    -8562567.516 5  -5260019.023 1
 90 10 11 12 37 29.9990000  0  5 02 06 13 18 09
  20899865.737      318118.224 7    277561.907 3
  20494149.026    -5386227.164 7  -4139198.392 3
  21696670.331    -9971787.376 7  -7614832.742 1
  23691970.050     6485744.276 5   4962547.455 1
  22879663.808    -8615792.310 5  -5301492.871 1
 90 10 11 12 37 44.9990000  0  5 02 06 13 18 09
  20900938.737      323758.208 7    281956.694 3
  20488867.948    -5413978.259 7  -4160822.625 3
  21686340.292   -10026070.766 7  -7657131.475 1
  23700414.855     6530125.270 5   4997130.033 1
  22869541.581    -8668989.422 5  -5342945.163 1
 90 10 11 12 37 59.9990000  0  5 02 06 13 18 09
  20902023.315      329460.829 7    286400.297 3
  20483606.854    -5441629.467 7  -4182369.011 3
  21676033.050   -10080232.276 7  -7699335.238 1
  23708866.354     6574533.794 5   5031734.066 1
  22859426.815    -8722151.429 5  -5384370.080 1
 90 10 11 12 38 14.9990000  0  5 02 06 13 18 09
  20903117.050      335203.249 7    290874.912 3
  20478359.589    -5469203.271 7  -4203855.088 3
  21665745.972   -10134294.487 7  -7741461.623 1
  23717317.659     6618946.633 5   5066341.481 1
  22849311.370    -8775300.935 5  -5425785.280 1
 90 10 11 12 38 29.9990000  0  5 02 06 13 18 09
  20904219.284      340993.077 7    295386.459 3
  20473129.214    -5496691.563 7  -4225274.529 3
  21655475.792   -10188249.296 7  -7783504.312 1
  23725770.792     6663371.183 5   5100957.972 1
  22839202.815    -8828429.915 5  -5467184.484 1
 90 10 11 12 38 44.9990000  0  5 02 06 13 18 09
  20905330.276      346832.603 7    299936.731 3
  20467914.769    -5524092.011 7  -4246625.529 3
  21645230.800   -10242094.098 7  -7825461.294 1
  23734228.112     6707809.290 5   5135585.042 1
  22829094.667    -8881535.963 5  -5508565.817 1
 90 10 11 12 38 59.9990000  0  5 02 06 13 18 09
  20906450.183      352718.397 7    304523.057 3
  20462716.550    -5551407.478 7  -4267910.301 3
  21635005.862   -10295832.227 7  -7867335.143 1
  23742684.448     6752257.674 5   5170220.146 1
  22818997.042    -8934622.111 5  -5549931.629 1
 90 10 11 12 39 14.9990000  0  5 02 06 13 18 09
  20907579.019      358650.368 7    309145.371 3
  20457534.956    -5578638.041 7  -4289128.920 3
  21624799.714   -10349463.568 7  -7909125.787 1
  23751148.331     6796715.461 5   5204862.561 1
  22808896.042    -8987688.586 5  -5591282.112 1
 90 10 11 12 39 29.9990000  0  5 02 06 13 18 09
  20908713.386      364613.513 7    313791.977 3
  20452367.081    -5605798.432 7  -4310292.859 3
  21614612.190   -10403002.701 7  -7950844.583 1
  23759604.464     6841167.145 5   5239500.239 1
  22798798.159    -9040749.874 5  -5632628.562 1
 90 10 11 12 39 44.9990000  0  5 02 06 13 18 09
  20909855.112      370614.826 7    318468.318 3
  20447212.565    -5632881.179 7  -4331396.297 3
  21604441.847   -10456441.924 7  -7992485.521 1
  23768063.519     6885619.520 5   5274138.442 1
  22788704.456    -9093798.715 5  -5673965.316 1
 90 10 11 12 39 59.9990000  0  5 02 06 13 18 09
  20911006.690      376661.169 7    323179.751 3
  20442074.401    -5659878.777 7  -4352433.384 3
  21594291.651   -10509774.106 7  -8034043.051 1
  23776526.104     6930079.314 5   5308782.390 1
  22778613.440    -9146827.746 5  -5715286.626 1
 90 10 11 12 40 14.9990000  0  5 02 06 13 18 09
  20912164.862      382746.921 7    327921.890 3
  20436953.737    -5686796.902 7  -4373408.543 3
  21584163.308   -10563004.762 7  -8075521.470 1
  23784981.206     6974540.625 5   5343427.548 1
  22768524.112    -9199842.541 5  -5756596.855 1
 90 10 11 12 40 29.9990000  0  5 02 06 13 18 09
  20913329.269      388868.724 7    332692.122 3
  20431844.995    -5713638.716 7  -4394324.237 3
  21574053.722   -10616137.095 7
  23793446.479     7018999.680 5   5378070.961 1
  22758437.378    -9252846.243 5
 90 10 11 12 40 44.9990000  0  5 02 06 13 18 09
  20914503.542      395039.288 7    337500.350 3
  20426754.229    -5740390.952 7  -4415170.133 3
  21563963.769   -10669158.077 7
  23801908.394     7063468.729 5   5412722.171 1
  22748355.292    -9305825.802 5
 90 10 11 12 40 59.9990000  0  5 02 06 13 18 09
  20915683.956      401244.988 7    342335.956 3
  20421678.214    -5767066.961 7  -4435956.630 3
  21553893.589   -10722080.635 7
  23810369.034     7107934.131 5   5447370.510 1
  22738276.901    -9358794.451 5
 90 10 11 12 41 14.9990000  0  5 02 06 13 18 09
  20916873.870      407497.545 7    347208.075 3
  20416618.034    -5793654.573 7  -4456674.248 3
  21543843.440   -10774892.896 7  -8240629.060 1
  23818831.870     7152407.425 5   5482024.991 1
  22728201.448    -9411740.173 5  -5921711.851 1
 90 10 11 12 41 29.9990000  0  5 02 06 13 18 09
  20918069.347      413780.201 7    352103.651 3
  20411572.464    -5820170.440 7  -4477335.957 3
  21533811.644   -10827611.465 7  -8281708.447 1
  23827293.753     7196871.158 5   5516672.056 1
  22718129.292    -9464679.603 5  -5962963.351 1
 90 10 11 12 41 44.9990000  0  5 02 06 13 18 09
  20919273.237      420104.438 7    357031.622 3
  20406542.636    -5846602.591 7  -4497932.441 3
  21523799.089   -10880224.305 7  -8322705.455 1
  23835754.948     7241336.699 5   5551320.520 1
  22708057.964    -9517600.860 5  -6004200.676 1
 90 10 11 12 41 59.9990000  0  5 02 06 13 18 09
  20920484.823      426470.074 7    361991.855 3
  20401528.612    -5872951.116 7  -4518463.760 3
  21513807.315   -10932731.655 7  -8363620.264 1
  23844216.417     7285803.296 5   5585969.835 1
  22697988.808    -9570504.026 5  -6045423.914 1
 90 10 11 12 42 14.9990000  0  5 02 06 13 18 09
  20921704.214      432880.333 7    366986.855 3
  20396531.737    -5899212.677 7  -4538927.315 3
  21503837.323   -10985130.000 7  -8404450.129 1
  23852678.573     7330273.748 5   5620622.111 1
  22687925.073    -9623385.613 5  -6086630.331 1
 90 10 11 12 42 29.9990000  0  5 02 06 13 18 09
  20922932.636      439336.426 7    372017.567 3
  20391550.729    -5925385.417 7  -4559321.659 3
  21493885.011   -11037417.418 7  -8445193.568 1
  23861140.011     7374749.097 5   5655278.219 1
  22677868.448    -9676244.078 5  -6127818.740 1
 90 10 11 12 42 44.9990000  0  5 02 06 13 18 09
  20924168.792      445829.770 7    377077.304 3
  20386585.979    -5951477.522 7  -4579653.158 3
  21483956.948   -11089602.337 7  -8485857.127 1
  23869602.940     7419220.462 5   5689931.227 1
  22667810.815    -9729087.679 5  -6168995.567 1
 90 10 11 12 42 59.9990000  0  5 02 06 13 18 09
  20925412.198      452364.052 7    382168.955 3
  20381637.479    -5977485.306 7  -4599918.958 3
  21474045.667   -11141680.972 7  -8526437.874 1
  23878067.136     7463691.316 5   5724583.817 1
  22657761.050    -9781912.579 5  -6210157.816 1
 90 10 11 12 43 14.9990000  0  5 02 06 13 18 09
  20926663.519      458941.929 7    387294.569 3
  20376704.917    -6003405.585 7  -4620116.577 3
  21464155.956   -11193650.137 7  -8566933.314 1
  23886529.847     7508164.103 5   5759237.946 1
  22647709.206    -9834715.792 6  -6251303.167 1
 90 10 11 12 43 29.9990000  0  5 02 06 13 18 09
  20927923.690      465565.327 7    392455.658 3
  20371789.347    -6029236.131 7  -4640244.285 3
  21454287.370   -11245507.707 7  -8607341.798 1
  23894996.065     7552640.465 5   5793894.823 1
  22637669.081    -9887494.729 5  -6292429.601 1
 90 10 11 12 43 44.9990000  0  5 02 06 13 18 09
  20929192.706      472230.509 7    397649.301 3
  20366890.229    -6054980.359 7  -4660304.718 3
  21444440.714   -11297257.091 7  -8647665.983 1
  23903456.604     7597115.999 5   5828551.081 1
  22627629.901    -9940253.597 6  -6333540.397 1
 90 10 11 12 43 59.9990000  0  5 02 06 13 18 09
  20930468.839      478939.573 7    402877.138 3
  20362007.925    -6080636.020 7  -4680296.135 3
  21434614.417   -11348895.833 7  -8687903.956 1
  23911923.808     7641592.666 5   5863208.179 1
  22617591.128    -9992989.502 6  -6374633.300 1
 90 10 11 12 44 14.9990000  0  5 02 06 13 18 09
  20931753.362      485691.455 7    408138.337 3
  20357142.659    -6106203.698 7  -4700219.000 3
  21424809.870   -11400424.744 7  -8728056.344 1
  23920381.644     7686069.291 5   5897865.275 1
  22607560.901   -10045703.149 6  -6415708.858 1
 90 10 11 12 44 29.9990000  0  5 02 06 13 18 09
  20933047.479      492488.497 7    413434.720 3
  20352295.190    -6131680.783 7  -4720071.272 3
  21415023.487   -11451841.095 7  -8768121.025 1
  23928847.503     7730547.726 5   5932523.798 1
  22597536.847   -10098392.159 6  -6456765.214 1
 90 10 11 12 44 44.9990000  0  5 02 06 13 18 09
  20934349.097      499327.376 7    418763.702 3
  20347463.878    -6157070.129 7  -4739855.170 3
  21405260.925   -11503147.939 7  -8808100.373 1
  23937309.151     7775024.313 5   5967180.847 1
  22587516.573   -10151059.338 6  -6497804.563 1
 90 10 11 12 44 59.9990000  0  5 02 06 13 18 09
  20935658.229      506210.027 7    424126.795 3
  20342648.401    -6182369.801 7  -4759569.195 3
  21395518.644   -11554343.281 7  -8847992.831 1
  23945776.761     7819500.671 5   6001837.741 1
  22577496.097   -10203702.745 6  -6538825.385 1
 90 10 11 12 45 14.9990000  0  5 02 06 13 18 09
  20936970.026      513098.465 7    429494.404 3
  20337843.886    -6207617.463 7  -4779242.697 3
  21385790.300   -11605464.783 7  -8887827.757 1
  23954231.190     7863938.236 5   6036464.383 1
  22567476.745   -10256360.097 6  -6579857.070 1
 90 10 11 12 45 29.9990000  0  5 02 06 13 18 09
  20938295.995      520066.529 7    434924.060 3
  20333063.198    -6232738.974 7  -4798817.902 3
  21376090.495   -11656438.306 7  -8927547.377 1
  23962693.175     7908410.932 5   6071118.419 1
  22557469.323   -10308957.302 6  -6620841.896 1
 90 10 11 12 45 44.9990000  0  5 02 06 13 18 09
  20939629.065      527079.387 7    440388.615 3
  20328300.636    -6257768.850 7  -4818321.707 3
  21366411.784   -11707298.210 7  -8967178.458 1
  23971157.526     7952883.256 5   6105772.182 1
  22547464.956   -10361528.770 6  -6661806.690 1
 90 10 11 12 45 59.9990000  0  5 02 06 13 18 09
  20940971.011      534129.479 7    445882.192 3
  20323554.065    -6282714.202 7  -4837759.637 3
  21356753.151   -11758051.946 7  -9006726.814 1
  23979620.964     7997347.428 5   6140419.550 1
  22537461.909   -10414081.882 6  -6702757.145 1
 90 10 11 12 46 14.9990000  0  5 02 06 13 18 09
  20942321.667      541219.553 7    451406.928 3
  20318823.722    -6307572.245 7  -4857129.545 3
  21347117.714   -11808696.526 7  -9046190.113 1
  23988081.706     8041805.854 5   6175062.499 1
  22527464.190   -10466613.714 6  -6743691.029 1
 90 10 11 12 46 29.9990000  0  5 02 06 13 18 09
  20943676.495      548338.308 7    456954.006 3
  20314107.472    -6332353.849 7  -4876439.892 3
  21337497.495   -11859242.798 7  -9085576.801 1
  23996533.050     8086247.131 4   6209692.055 1
  22517470.425   -10519135.104 6  -6784616.779 1
 90 10 11 12 46 44.9990000  0  5 02 06 13 18 09
  20945040.058      555509.063 7    462541.594 3
  20309411.190    -6357035.329 7  -4895672.213 3
  21327902.300   -11909667.312 7  -9124868.620 1
  24004991.409     8130694.041 4   6244326.018 1
  22507483.636   -10571622.499 6  -6825516.039 1
 90 10 11 12 46 59.9990000  0  5 02 06 13 18 09
  20946407.433      562700.455 7    468145.263 3
  20304727.894    -6381647.687 7  -4914850.670 3
  21318325.097   -11960001.227 7  -9164089.841 1
  24013447.362     8175115.198 4   6278939.878 1
  22497492.815   -10624106.914 6  -6866412.968 1
 90 10 11 12 47 14.9990000  0  5 02 06 13 18 09
  20947782.597      569925.004 7    473774.775 3
  20300058.479    -6406178.246 7  -4933965.391 3
  21308764.784   -12010231.726 7  -9203230.479 1
  24021895.354     8219522.344 4   6313542.840 1
  22487514.612   -10676575.585 6  -6907297.654 1
 90 10 11 12 47 29.9990000  0  5 02 06 13 18 09
  20949166.198      577191.810 7    479437.213 3
  20295408.269    -6430617.594 7  -4953009.042 2
  21299228.019   -12060349.137 7  -9242282.993 1
  24030347.479     8263924.449 4   6348141.907 1
  22477530.651   -10729019.225 6  -6948162.820 1
 90 10 11 12 47 44.9990000  0  5 02 06 13 18 09
  20950555.565      584492.035 7    485125.697 3
  20290773.534    -6454974.138 7  -4971988.162 2
  21289712.644   -12110362.087 7  -9281254.109 1
  24038792.433     8308312.438 4   6382729.947 1
  22467557.339   -10781446.174 6  -6989014.985 1
 90 10 11 12 47 59.9990000  0  5 02 06 13 18 09
  20951951.612      591832.682 7    490845.681 3
  20286156.894    -6479240.527 7  -4990897.030 3
  21280215.948   -12160263.226 7  -9320138.099 1
  24047238.534     8352693.206 4   6417312.339 1
  22457580.675   -10833849.230 6  -7029848.523 1
 90 10 11 12 48 14.9990000  0  5 02 06 13 18 09
  20953357.394      599217.088 7    496599.758 3
  20281556.456    -6503413.342 7  -5009732.994 2
  21270741.628   -12210049.110 7  -9358932.290 1
  24055680.136     8397069.442 4   6451891.215 1
  22447614.729   -10886224.877 6  -7070660.685 1
 90 10 11 12 48 29.9990000  0  5 02 06 13 18 09
  20954770.019      606643.495 7    502386.560 3
  20276974.128    -6527493.964 7  -5028497.124 3
  21261288.573   -12259721.241 7  -9397637.836 1
  24064127.604     8441439.335 4   6486465.140 1
  22437657.058   -10938574.546 6  -7111452.635 1
 90 10 11 12 48 44.9990000  0  5 02 06 13 18 09
  20956191.839      614111.803 7    508206.016 3
  20272408.386    -6551482.037 7  -5047189.132 3
  21251857.464   -12309279.389 7  -9436254.562 1
  24072567.050     8485802.617 4   6521033.932 1
  22427699.144   -10990898.045 6  -7152224.187 1
 90 10 11 12 48 59.9990000  0  5 02 06 13 18 09
  20957612.839      621581.058 7    514026.207 3
  20267853.511    -6575418.305 7  -5065840.765 2
  21242441.972   -12358764.320 7  -9474814.242 1
  24081001.878     8530117.701 4   6555565.136 1
  22417737.362   -11043235.994 6  -7193006.990 1
 90 10 11 12 49 14.9990000  0  5 02 06 13 18 09
  20959042.261      629090.431 7    519877.655 3
  20263316.042    -6599263.478 7  -5084421.417 3
  21233047.323   -12408136.669 7  -9513286.196 1
  24089431.628     8574423.299 4   6590088.938 1
  22407782.417   -11095548.883 6  -7233770.278 1
 90 10 11 12 49 29.9990000  0  5 02 06 13 18 09
  20960478.714      636642.580 7    525762.433 3
  20258796.690    -6623014.441 7  -5102928.659 3
  21223673.956   -12457393.377 7  -9551668.035 1
  24097862.073     8618721.777 4   6624607.209 1
  22397831.901   -11147834.087 6  -7274511.979 1
 90 10 11 12 49 44.9990000  0  5 02 06 13 18 09
  20961928.854      644262.259 7    531699.839 3
  20254300.347    -6646646.229 7  -5121343.042 3
  21214327.815   -12506509.516 7  -9589940.342 1
  24106292.019     8663037.701 3   6659139.084 1
  22387893.698   -11200066.164 6  -7315212.295 1
 90 10 11 12 49 59.9990000  0  5 02 06 13 18 09
  20963397.089      651976.433 7    537710.883 3
  20249830.792    -6670131.432 7  -5139643.205 3
  21205011.831   -12555457.728 7  -9628081.797 1
  24114731.886     8707397.799 3   6693705.369 1
  22377970.401   -11252218.057 6  -7355850.131 1
 90 10 11 12 50 14.9990000  0  5 02 06 13 18 09
  20964873.237      659730.256 7    543752.819 3
  20245378.722    -6693524.727 7  -5157871.746 3
  21195718.847   -12604292.701 7  -9666135.014 1
  24123173.073     8751746.896 3   6728263.084 1
  22368052.198   -11304344.346 6  -7396468.011 1
 90 10 11 12 50 29.9990000  0  5 02 06 13 18 09
  20966356.519      667527.111 7    549828.282 3
  20240946.097    -6716822.613 7  -5176025.947 3
  21186447.370   -12653010.858 7  -9704097.200 1
  24131613.198     8796087.948 4   6762814.516 1
  22358138.972   -11356441.382 6  -7437063.098 1
 90 10 11 12 50 44.9990000  0  5 02 06 13 18 09
  20967847.870      675365.485 7    555936.092 3
  20236530.214    -6740025.978 7  -5194106.483 2
  21177200.651   -12701613.178 7  -9741969.130 1
  24140051.276     8840419.153 4   6797358.284 1
  22348227.558   -11408510.323 6  -7477636.277 1
 90 10 11 12 50 59.9990000  0  5 02 06 13 18 09
  20969343.972      683225.962 7    562061.127 3
  20232129.433    -6763153.975 7  -5212128.293 3
  21167969.800   -12750118.845 7  -9779765.743 1
  24148483.651     8884720.911 5   6831879.115 1
  22338321.729   -11460570.231 6  -7518202.430 1
 90 10 11 12 51 14.9990000  0  5 02 06 13 18 09
  20970843.698      691113.031 7    568206.884 3
  20227742.354    -6786201.938 7  -5230087.742 3
  21158758.198   -12798523.298 7  -9817483.489 1
  24156907.019     8928997.370 4   6866380.239 1
  22328420.675   -11512616.422 6  -7558757.898 1
 90 10 11 12 51 29.9990000  0  5 02 06 13 18 09
  20972356.604      699052.939 7    574393.821 3
  20223377.854    -6809143.215 7  -5247964.063 3
  21149571.558   -12846800.030 7  -9855101.713 1
  24165329.948     8973274.302 4   6900881.734 1
  22318520.542   -11564622.282 6  -7599281.930 1
 90 10 11 12 51 44.9990000  0  5 02 06 13 18 09
  20973874.269      707036.499 7    580614.773 3
  20219029.972    -6831987.229 7  -5265764.589 3
  21140407.604   -12894958.232 7  -9892627.573 1
  24173755.159     9017542.163 5   6935376.167 1
  22308632.886   -11616596.989 6  -7639781.696 1
 90 10 11 12 51 59.9990000  0  5 02 06 13 18 09
  20975402.104      715065.456 7    586871.086 3
  20214702.440    -6854731.234 7  -5283487.194 3
  21131265.823   -12942995.545 7  -9930059.236 1
  24182177.519     9061802.646 5   6969864.810 1
  22298745.667   -11668538.309 6  -7680255.449 1
 90 10 11 12 52 14.9990000  0  5 02 06 13 18 09
  20976935.229      723120.259 7    593147.546 3
  20210390.003    -6877394.663 7  -5301147.014 2
  21122143.526   -12990931.120 7  -9967411.625 1
  24190594.831     9106035.794 5   7004332.204 1
  22288867.831   -11720465.259 6  -7720717.991 1
 90 10 11 12 52 29.9990000  0  5 02 06 13 18 09
  20978474.862      731210.635 7    599451.727 3
  20206093.854    -6899967.867 7  -5318736.520 2
  21113044.526   -13038755.298 7 -10004677.215 1
  24199008.675     9150250.630 5   7038785.312 1
  22278988.823   -11772368.127 6  -7761161.777 1
 90 10 11 12 52 44.9990000  0  5 02 06 13 18 09
  20980022.847      739347.034 7    605791.773 3
  20201817.565    -6922439.904 7  -5336247.200 2
  21103966.894   -13086457.253 7 -10041847.554 2
  24207422.011     9194457.655 5   7073232.326 1
  22269115.472   -11824236.168 6  -7801578.416 1
 90 10 11 12 52 59.9990000  0  5 02 06 13 18 09
  20981580.526      747526.048 7    612165.028 3
  20197560.565    -6944813.770 7  -5353681.385 2
  21094911.230   -13134040.241 7 -10078925.204 2
  24215829.183     9238653.052 4   7107670.303 1
  22259255.534   -11876072.450 6  -7841970.313 1
 90 10 11 12 53 14.9990000  0  5 02 06 13 18 09
  20983144.370      755747.417 7    618571.277 3
  20193321.229    -6967089.406 7  -5371039.026 3
  21085880.167   -13181504.031 7 -10115909.961 2
  24224238.901     9282836.259 4
  22249398.683   -11927876.923 6  -7882337.429 1
 90 10 11 12 53 29.9990000  0  5 02 06 13 18 09
  20984717.136      764013.761 7    625012.569 3
  20189101.362    -6989264.017 7  -5388317.949 3
  21076871.214   -13228846.004 7 -10152799.801 1
  24232648.776     9327009.571 5
  22239545.245   -11979646.627 6  -7922677.440 1
 90 10 11 12 53 44.9990000  0  5 02 06 13 18 09
  20986293.972      772302.063 7    631470.970 3
  20184897.065    -7011360.536 7  -5405536.010 2
  21067880.573   -13276089.100 7 -10189612.594 2
  24241047.253     9371149.719 5
  22229694.503   -12031404.417 6  -7963008.172 1
 90 10 11 12 53 59.9990000  0  5 02 06 13 18 09
  20987880.698      780635.447 7    637964.509 3
  20180711.050    -7033355.271 7  -5422674.766 3
  21058913.722   -13323209.556 7 -10226329.824 1
  24249444.597     9415279.759 5        -0.06611
  22219852.987   -12083126.788 6  -8003311.312 1
 90 10 11 12 54 14.9990000  0  5 02 06 13 18 09
  20989471.870      789002.802 7    644484.513 3
  20176543.503    -7055258.863 7  -5439742.496 2
  21049968.558   -13370218.279 7 -10262959.987 1
  24257836.862     9459388.141 5     34370.087 1
  22210016.151   -12134824.346 6  -8043595.109 1
 90 10 11 12 54 29.9990000  0  5 02 06 13 18 09
  20991071.987      797401.538 7    651028.971 3
  20172392.401    -7077074.008 7  -5456741.310 2
  21041042.925   -13417117.930 7 -10299505.161 2
  24266223.370     9503471.769 5     68720.980 1
  22200182.573   -12186499.645 6  -8083861.557 1
 90 10 11 12 54 44.9990000  0  5 02 06 13 18 09
  20992672.448      805816.411 7    657586.001 3
  20168254.081    -7098815.624 7  -5473682.829 3
  21032136.409   -13463923.321 7 -10335976.886 1
  24274607.729     9547514.957 5    103040.331 1
  22190351.753   -12238167.768 6  -8124122.433 1
 90 10 11 12 54 59.9990000  0  5 02 06 13 18 09
  20994277.800      814259.066 7    664164.686 3
  20164134.253    -7120471.983 7  -5490557.919 3
  21023249.089   -13510622.887 7 -10372366.147 2
  24282981.808     9591529.115 5    137337.048 1
  22180520.394   -12289816.870 6  -8164368.482 1
 90 10 11 12 55 14.9990000  0  5 02 06 13 18 09
  20995892.229      822742.179 7    670774.886 3
  20160030.847    -7142029.848 7  -5507356.252 3
  21014387.198   -13557203.417 7 -10408662.659 2
  24291353.651     9635526.527 5    171620.752 1
  22170696.792   -12341433.719 6  -8204589.384 1
 90 10 11 12 55 29.9990000  0  5 02 06 13 18 09
  20997514.901      831265.314 7    677416.283 3
  20155946.878    -7163489.263 7  -5524077.879 3
  21005544.604   -13603665.008 7 -10444866.483 2
  24299721.753     9679506.667 5    205890.997 1
  22160884.854   -12393018.415 6  -8244785.252 1
 90 10 11 12 55 44.9990000  0  5 02 06 13 18 09
  20999144.355      839827.147 7    684087.834 3
  20151883.003    -7184851.394 7  -5540723.700 3
  20996725.011   -13650008.682 7 -10480978.432 2
  24308085.300     9723467.965 4    240146.562 1
  22151072.237   -12444571.954 6  -8284956.840 1
 90 10 11 12 55 59.9990000  0  5 02 06 13 18 09
  21000781.440      848435.582 7    690795.694 3
  20147837.917    -7206107.897 7  -5557287.213 2
  20987933.183   -13696226.396 7 -10516992.223 1
  24316453.284     9767417.789 5    274393.140 1
  22141270.230   -12496086.124 6  -8325097.751 1
 90 10 11 12 56 14.9990000  0  5 02 06 13 18 09
  21002428.784      857090.796 7    697540.009 3
  20143813.144    -7227258.631 7  -5573768.308 3
  20979158.964   -13742317.907 7 -10552907.675 2
  24324814.698     9811356.106 5    308630.771 1
  22131474.433   -12547560.629 6  -8365207.737 1
 90 10 11 12 56 29.9990000  0  5 02 06 13 18 09
  21004086.956      865803.460 7    704329.086 3
  20139809.081    -7248292.522 7  -5590158.355 3
  20970416.019   -13788272.493 7 -10588716.436 1
  24333174.815     9855293.413 5
  22121687.753   -12598984.531 6  -8405278.305 1
 90 10 11 12 56 44.9990000  0  5 02 06 13 18 09
  21005752.487      874554.626 7    711148.167 3
  20135826.315    -7269228.114 7  -5606471.806 2
  20961691.675   -13834108.382 7 -10624432.698 1
  24341531.456     9899210.128 5
  22111908.597   -12650376.255 6  -8445323.796 1
 90 10 11 12 56 59.9990000  0  5 02 06 13 18 09
  21007424.409      883342.776 7    717996.069 3
  20131861.198    -7290066.872 7  -5622709.805 3
  20952992.519   -13879827.169 7 -10660057.722 2
  24349883.987     9943104.524 5
  22102136.948   -12701737.180 6  -8485345.289 1
 90 10 11 12 57 14.9990000  0  5 02 06 13 18 09
  21009103.964      892168.502 7    724873.242 3
  20127914.480    -7310807.716 7  -5638871.494 3
  20944315.659   -13925428.130 7 -10695590.930 2
  24358234.604     9986976.817 5
  22092367.698   -12753066.542 6  -8525342.189 1
 90 10 11 12 57 29.9990000  0  5 02 06 13 18 09
  21010791.417      901031.140 7    731779.179 3
  20123985.159    -7331451.190 7  -5654957.316 3
  20935660.058   -13970911.851 7 -10731032.782 1
  24366580.464    10030826.003 5
  22082605.565   -12804364.551 6  -8565314.656 1
 90 10 11 12 57 44.9990000  0  5 02 06 13 18 09
  21012484.417      909932.604 7    738715.373 3
  20120074.987    -7351995.135 7  -5670965.590 3
  20927027.683   -14016275.826 7 -10766381.328 1
  24374918.323    10074653.980 5
  22072849.979   -12855629.041 6  -8605260.999 1
 90 10 11 12 57 59.9990000  0  5 02 06 13 18 09
  21014186.550      918874.877 7    745683.373 3
  20116186.386    -7372437.177 7  -5686894.459 2
  20918417.589   -14061517.905 7 -10801634.889 2
  24383253.503    10118462.230 5
  22063102.628   -12906857.677 6  -8645179.400 1
 90 10 11 12 58 14.9990000  0  5 02 06 13 18 09
  21015896.698      927863.200 7    752687.255 3
  20112316.323    -7392771.630 7  -5702739.492 3
  20909833.151   -14106632.568 7 -10836789.168 1
  24391584.495    10162255.871 4
  22053362.175   -12958044.796 6  -8685065.457 1
 90 10 11 12 58 29.9990000  0  5 02 06 13 18 09
  21017614.511      936889.268 7    759720.540 3
  20108466.433    -7413006.894 7  -5718507.236 3
  20901271.120   -14151628.073 7 -10871850.590 2
  24399916.448    10206026.061 5
  22043627.628   -13009198.741 6  -8724925.667 1
 90 10 11 12 58 44.9990000  0  5 02 06 13 18 09
  21019340.347      945954.853 7    766784.614 3
  20104634.526    -7433140.956 7  -5734196.120 2
  20892730.878   -14196502.592 7 -10906817.740 2
  24408242.511    10249773.980 4        -0.48211
  22033900.769   -13060317.300 6  -8764758.299 1
 90 10 11 12 58 59.9990000  0  5 02 06 13 18 09
  21021073.464      955065.636 7    773883.915 3
  20100824.065    -7453167.644 7  -5749801.331 3
  20884215.948   -14241250.131 7 -10941685.942 1
  24416562.753    10293505.330 4     34075.895 1
  22024179.144   -13111394.550 6  -8804558.745 1
 90 10 11 12 59 14.9990000  0  5 02 06 13 18 09
  21022816.167      964224.224 7    781020.466 3
  20097034.167    -7473083.901 7  -5765320.494 3
  20875726.222   -14285867.778 7 -10976452.938 2
  24424883.386    10337222.416 5     68141.140 1
  22014467.144   -13162427.292 6  -8844324.508 1
 90 10 11 12 59 29.9990000  0  5 02 06 13 18 09
  21024566.097      973421.620 7    788187.260 3
  20093264.347    -7492898.902 7  -5780760.754 3
  20867258.175   -14330364.387 7 -11011125.610 2
  24433198.261    10380915.986 4    102188.043 1
  22004763.479   -13213424.612 6  -8884062.669 1
 90 10 11 12 59 44.9990000  0  5 02 06 13 18 09
  21026322.519      982649.029 7    795377.440 3
  20089510.230    -7512620.730 7  -5796128.420 2
  20858812.831   -14374748.349 7 -11045710.513 1
  24441504.776    10424576.819 3    136209.419 1
  21995067.269   -13264394.687 6  -8923779.594 1
 90 10 11 12 59 59.9990000  0  5 02 06 13 18 09
  21028085.878      991919.345 7    802601.046 3
  20085777.831    -7532236.448 7  -5811413.399 3
  20850391.417   -14419006.700 7 -11080197.528 2
  24449810.495    10468217.404 4    170215.094 1
  21985372.909   -13315324.288 6  -8963464.993 1
 90 10 11 13  0 14.9990000  0  5 02 06 13 18 09
  21029860.136     1001241.085 7    809864.732 3
  20082066.573    -7551737.123 7  -5826608.735 3
  20841994.229   -14463130.823 7 -11114579.959 1
  24458112.042    10511846.228 3    204211.563 1
  21975691.159   -13366204.753 6  -9003112.088 1
 90 10 11 13  0 29.9990000  0  5 02 06 13 18 09
  21031639.979     1010595.510 7    817153.874 3
  20078374.347    -7571141.370 7  -5841728.925 3
  20833618.972   -14507139.292 7 -11148872.265 2
  24466407.097    10555444.368 3    238184.114 1
  21966015.839   -13417054.470 6  -9042735.244 1
 90 10 11 13  0 44.9990000  0  4 02 06 13 09
  21033427.964     1019988.622 7    824473.173 3
  20074701.714    -7590442.858 7  -5856769.045 3
  20825267.464   -14551025.675 7 -11183069.437 1
  21956345.651   -13467867.210 6  -9082329.567 1
 90 10 11 13  0 59.9990000  0  4 02 06 13 09
  21035224.167     1029426.879 7    831827.649 3
  20071048.745    -7609634.769 7  -5871723.786 3
  20816939.831   -14594783.230 7 -11217166.225 1
  21946685.401   -13518636.109 6  -9121889.745 1
 90 10 11 13  1 14.9990000  0  4 02 06 13 09
  21037028.370     1038907.764 7    839215.339 3
  20067418.706    -7628719.520 7  -5886595.022 3
  20808637.769   -14638414.408 7 -11251164.536 2
  21937032.120   -13569363.326 6  -9161417.440 1
 90 10 11 13  1 29.9990000  0  4 02 06 13 09
  21038839.979     1048429.694 7    846635.012 3
  20063805.151    -7647698.572 7  -5901383.898 3
  20800359.175   -14681920.841 7 -11285065.644 2
  21927385.253   -13620050.462 6  -9200913.894 1
 90 10 11 13  1 44.9980000  0  4 02 06 13 09
  21040660.107     1057993.950 7    854087.664 3
  20060215.693    -7666568.233 7  -5916087.527 3
  20792104.936   -14725297.403 7 -11318865.557 2
  21917749.217   -13670691.730 6  -9240374.613 1
 90 10 11 13  1 59.9980000  0  4 02 06 13 09
  21042487.365     1067593.041 7    861567.460 2
  20056643.029    -7685339.573 7  -5930714.544 3
  20783872.779   -14768558.381 7 -11352575.402 1
  21908118.897   -13721302.400 6  -9279811.501 1
 90 10 11 13  2 14.9980000  0  4 02 06 13 09
  21044321.357     1077235.935 7    869081.394 3
  20053091.818    -7704001.662 7  -5945256.430 3
  20775665.443   -14811691.169 7 -11386185.358 2
  21898496.217   -13771869.204 6  -9319214.194 1
 90 10 11 13  2 29.9980000  0  4 02 06 13 09
  21046164.811     1086924.275 7    876630.728 3
  20049561.975    -7722552.397 7  -5959711.548 2
  20767481.123   -14854693.851 7 -11419693.932 2
  21888881.131   -13822390.126 6  -9358581.136 1
 90 10 11 13  2 44.9980000  0  4 02 06 13 09
  21048017.139     1096652.439 7    884211.098 3
  20046051.326    -7740997.295 7  -5974084.199 3
  20759322.881   -14897572.022 7 -11453105.488 1
  21879274.725   -13872870.506 6  -9397916.493 1
 90 10 11 13  2 59.9980000  0  4 02 06 13 09
  21049875.686     1106423.387 7    891824.808 2
  20042562.779    -7759332.908 7  -5988371.693 3
  20751187.615   -14940322.192 7 -11486417.300 2
  21869677.654   -13923307.037 6  -9437217.673 1
 90 10 11 13  3 14.9980000  0  4 02 06 13 09
  21051743.772     1116237.950 7    899472.507 3
  20039094.318    -7777558.369 7  -6002573.351 3
  20743077.107   -14982943.434 7 -11519628.647 2
  21860088.857   -13973698.539 6  -9476483.776 1
 90 10 11 13  3 29.9980000  0  4 02 06 13 09
  21053618.779     1126093.475 7    907152.130 3
  20035646.951    -7795675.934 7  -6016690.935 3
  20734990.404   -15025438.387 7 -11552741.599 2
  21850508.561   -14024047.438 6  -9515716.675 1
 90 10 11 13  3 44.9980000  0  4 02 06 13 09
  21055501.287     1135988.524 7    914862.546 3
  20032219.123    -7813686.975 7  -6030725.521 3
  20726927.045   -15067808.347 7 -11585757.141 2
  21840935.311   -14074355.135 6  -9554917.465 1
 90 10 11 13  3 59.9980000  0  4 02 06 13 09
  21057391.889     1145923.395 7    922603.987 3
  20028812.740    -7831590.740 7  -6044676.513 3
  20718888.217   -15110052.669 7 -11618674.791 2
  21831371.154   -14124620.734 6  -9594085.453 1
 90 10 11 13  4 14.9980000  0  4 02 06 13 09
  21059291.881     1155905.064 7    930381.903 2
  20025426.834    -7849379.845 7  -6058538.160 3
  20710875.178   -15152164.097 7 -11651488.883 2
  21821812.279   -14174836.682 6  -9633214.759 1
 90 10 11 13  4 29.9980000  0  4 02 06 13 09
  21061204.584     1165959.047 7    938216.158 2
  20022068.443    -7867028.745 7  -6072290.555 3
  20702891.529   -15194117.231 7 -11684179.629 2
  21812270.717   -14224977.427 6  -9672285.455 1
 90 10 11 13  4 44.9980000  0  4 02 06 13 09
  21063125.420     1176049.937 7    946079.180 2
  20018730.881    -7884572.524 7  -6085961.036 2
  20694930.912   -15235947.262 7 -11716774.453 2
  21802739.647   -14275078.182 6  -9711324.997 1
 90 10 11 13  4 59.9980000  0  4 02 06 13 09
  21065052.287     1186176.855 7    953970.263 2
  20015411.381    -7902011.831 7  -6099550.109 3
  20686995.428   -15277654.526 7 -11749273.612 2
  21793210.084   -14325139.307 6  -9750333.662 1
 90 10 11 13  5 14.9980000  0  4 02 06 13 09
  21066989.670     1196359.105 7    961904.468 3
  20012116.467    -7919327.284 7  -6113042.674 2
  20679084.873   -15319220.148 7 -11781662.404 2
  21783697.076   -14375141.505 6  -9789296.402 1
 90 10 11 13  5 29.9980000  0  4 02 06 13 09
  21068937.240     1206587.518 7    969874.641 2
  20008844.014    -7936527.497 7  -6126445.442 3
  20671201.006   -15360652.872 7 -11813947.642 2
  21774190.342   -14425093.334 6  -9828219.895 1
 90 10 11 13  5 44.9980000  0  4 02 06 13 09
  21070891.639     1216857.079 7    977876.881 2
  20005591.490    -7953617.632 7  -6139762.435 3
  20663341.217   -15401957.349 7 -11846132.938 2
  21764694.811   -14474999.497 6  -9867107.810 1
 90 10 11 13  5 59.9980000  0  4 02 06 13 09
  21072850.381     1227158.571 7    985904.005 2
  20002358.139    -7970606.406 7  -6153000.445 3
  20655503.943   -15443142.845 7 -11878225.532 2
  21755206.029   -14524869.230 6  -9905967.332 1
 90 10 11 13  6 14.9980000  0  4 02 06 13 09
  21074816.389     1237488.635 7    993953.389 2
  19999145.623    -7987496.851 7  -6166161.834 3
  20647689.193   -15484212.401 7 -11910227.779 2
  21745721.537   -14574705.423 6  -9944800.721 1
 90 10 11 13  6 29.9980000  0  4 02 06 13 09
  21076789.865     1247858.010 7   1002033.405 2
  19995951.428    -8004278.248 7  -6179238.255 3
  20639895.873   -15525155.304 7 -11942131.330 2
  21736246.506   -14624496.900 6  -9983599.269 1
 90 10 11 13  6 44.9980000  0  4 02 06 13 09
  21078765.350     1258239.992 7   1010123.245 2
  19992772.943    -8020977.060 7  -6192250.325 3
  20632124.896   -15565997.971 7 -11973956.776 2
  21726775.193   -14674270.258 6 -10022383.695 1
 90 10 11 13  6 59.9980000  0  4 02 06 13 09
  21080751.646     1268676.663 7   1018255.701 2
  19989619.850    -8037550.504 7  -6205164.708 3
  20624380.092   -15606698.065 7 -12005671.129 2
  21717313.943   -14723982.856 6 -10061120.781 1
 90 10 11 13  7 14.9980000  0  4 02 06 13 09
  21082745.811     1279149.974 7   1026416.710 2
  19986486.232    -8054016.867 7  -6217995.648 3
  20616659.100   -15647273.722 7 -12037288.523 2
  21707862.045   -14773652.711 6 -10099824.554 1
 90 10 11 13  7 29.9980000  0  4 02 06 13 09
  21084747.943     1289674.200 7   1034617.389 2
  19983375.631    -8070361.366 7  -6230731.630 3
  20608964.342   -15687710.299 7 -12068797.535 2
  21698421.740   -14823264.976 6 -10138483.459 1
 90 10 11 13  7 44.9980000  0  4 02 06 13 09
  21086759.225     1300241.755 7   1042851.830 2
  19980287.201    -8086591.425 7  -6243378.431 3
  20601294.295   -15728015.468 7 -12100204.155 2
  21688989.943   -14872827.035 6 -10177103.238 1
 90 10 11 13  7 59.9980000  0  4 02 06 13 09
  21088774.014     1310837.905 7   1051108.559 2
  19977218.943    -8102721.742 7  -6255947.514 3
  20593646.068   -15768203.702 7 -12131519.659 2
  21679565.287   -14922353.476 6 -10215695.262 1
 90 10 11 13  8 14.9980000  0  4 02 06 13 09
  21090796.170     1321462.961 7   1059387.814 2
  19974166.514    -8118751.332 7  -6268438.114 3
  20586021.396   -15808274.407 7 -12162743.582 2
  21670148.936   -14971843.429 6 -10254258.854 1
 90 10 11 13  8 29.9980000  0  4 02 06 13 09
  21092826.881     1332131.333 7   1067700.816 2
  19971139.561    -8134665.807 7  -6280839.002 3
  20578421.482   -15848213.333 7 -12193864.818 2
  21660741.295   -15021282.296 6 -10292782.639 1
 90 10 11 13  8 44.9980000  0  4 02 06 13 09
  21094864.014     1342839.267 7   1076044.647 2
  19968131.646    -8150468.840 7  -6293153.060 3
  20570845.045   -15888023.827 7 -12224885.978 2
  21651342.272   -15070673.619 6 -10331269.380 1
 90 10 11 13  8 59.9980000  0  4 02 06 13 09
  21096910.123     1353587.423 7   1084419.808 2
  19965146.334    -8166159.390 7  -6305379.466 3
  20563294.318   -15927704.962 7 -12255806.337 2
  21641951.061   -15120016.371 6 -10369718.273 1
 90 10 11 13  9 14.9980000  0  4 02 06 13 09
  21098961.545     1364372.879 7   1092824.047 2
  19962182.529    -8181739.934 7  -6317520.151 2
  20555767.381   -15967259.415 7 -12286627.984 2
  21632570.686   -15169313.017 6 -10408131.230 1
 90 10 11 13  9 29.9980000  0  4 02 06 13 09
  21101022.912     1375204.237 7   1101264.047 2
  19959238.154    -8197202.065 7  -6329568.573 2
  20548265.772   -16006678.726 7 -12317344.323 2
  21623200.732   -15218554.806 6 -10446501.452 1
 90 10 11 13  9 44.9980000  0  4 02 06 13 09
  21103091.147     1386073.003 7   1109733.195 2
  19956317.982    -8212553.666 7  -6341530.867 2
  20540789.553   -16045971.196 7 -12347961.826 2
  21613838.537   -15267749.852 6 -10484835.247 1
 90 10 11 13  9 59.9980000  0  4 02 06 13 09
  21105168.107     1396984.980 7   1118236.016 2
  19953418.443    -8227788.800 7  -6353402.405 2
  20533336.928   -16085130.973 7 -12378475.927 2
  21604488.803   -15316891.861 6 -10523127.707 1
 90 10 11 13 10 14.9980000  0  4 02 06 13 09
  21107251.842     1407935.216 7   1126768.654 2
  19950539.982    -8242912.225 7  -6365186.900 3
  20525910.107   -16124162.807 7 -12408890.342 2
  21595145.428   -15365985.658 6 -10561382.614 1
 90 10 11 13 10 29.9980000  0  4 02 06 13 09
  21109344.373     1418930.061 7   1135336.043 2
  19947685.100    -8257917.178 7  -6376879.082 3
  20518507.146   -16163060.074 7 -12439199.894 2
  21585813.826   -15415024.488 6 -10599594.686 1
 90 10 11 13 10 44.9980000  0  4 02 06 13 09
  21111441.889     1429954.582 7   1143926.562 2
  19944849.873    -8272818.534 7  -6388490.529 2
  20511128.506   -16201837.734 7 -12469416.250 2
  21576489.357   -15464023.059 6 -10637775.375 1
 90 10 11 13 10 59.9980000  0  4 02 06 13 09
  21113548.271     1441019.886 7   1152548.860 2
  19942035.803    -8287605.166 7  -6400012.584 2
  20503774.850   -16240484.663 7 -12499530.739 2
  21567174.678   -15512970.103 6 -10675915.928 1
 90 10 11 13 11 14.9980000  0  4 02 06 13 09
  21115663.490     1452136.481 7   1161211.126 2
  19939245.662    -8302266.391 7  -6411436.925 2
  20496447.147   -16278990.254 7 -12529535.094 2
  21557873.076   -15561854.774 6 -10714007.876 1
 90 10 11 13 11 29.9980000  0  4 02 06 13 09
  21117787.561     1463297.872 7   1169908.304 2
  19936478.811    -8316808.037 7  -6422768.087 3
  20489145.061   -16317360.679 7 -12559434.122 2
  21548581.482   -15610682.959 6 -10752055.799 1
 90 10 11 13 11 44.9980000  0  4 02 06 13 09
  21119918.857     1474504.351 7   1178640.604 2
  19933734.389    -8331229.652 7  -6434005.719 3
  20481869.287   -16355595.346 7 -12589227.362 2
  21539300.811   -15659454.190 6 -10790059.353 1
 90 10 11 13 11 59.9980000  0  4 02 06 13 09
  21122061.357     1485761.200 7   1187412.158 2
  19931013.334    -8345525.978 7  -6445145.716 2
  20474621.334   -16393688.957 7 -12618910.693 2
  21530030.865   -15708163.046 6 -10828014.303 1
 90 10 11 13 12 14.9980000  0  4 02 06 13 09
  21124210.443     1497056.230 7   1196213.461 2
  19928315.193    -8359708.997 7  -6456197.423 3
  20467396.162   -16431653.619 7 -12648493.537 2
  21520773.311   -15756821.322 6 -10865929.833 1
 90 10 11 13 12 29.9980000  0  4 02 06 13 09
  21126366.342     1508384.807 7   1205040.904 2
  19925636.607    -8373782.942 7  -6467164.142 2
  20460195.068   -16469493.851 7 -12677979.428 2
  21511520.936   -15805433.167 6 -10903809.189 1
 90 10 11 13 12 44.9980000  0  4 02 06 13 09
  21128528.568     1519741.397 7   1213890.179 2
  19922978.248    -8387752.950 7  -6478049.862 2
  20453017.490   -16507215.134 7 -12707372.630 2
  21502280.225   -15854003.881 6 -10941656.494 1
 90 10 11 13 12 59.9980000  0  4 02 06 13 09
  21130696.912     1531137.563 7   1222770.282 2
  19920342.686    -8401607.375 7  -6488845.522 2
  20445863.686   -16544805.733 7 -12736664.005 2
  21493047.037   -15902521.489 6 -10979462.419 1
 90 10 11 13 13 14.9980000  0  4 02 06 13 09
  21132874.076     1542580.633 7   1231686.944 2
  19917728.584    -8415338.707 7  -6499545.273 2
  20438736.357   -16582258.113 7 -12765847.675 2
  21483825.248   -15950978.356 6 -11017221.005 1
 90 10 11 13 13 29.9980000  0  4 02 06 13 09
  21135060.467     1554067.754 7   1240637.927 2
  19915138.889    -8428949.632 7  -6510151.198 3
  20431634.193   -16619575.244 7 -12794925.951 2
  21474614.647   -15999377.044 6 -11054934.268 1
 90 10 11 13 13 44.9980000  0  4 02 06 13 09
  21137254.498     1565601.748 7   1249625.426 2
  19912572.279    -8442437.255 7  -6520661.032 2
  20424560.779   -16656754.207 7 -12823896.570 2
  21465415.615   -16047714.606 6 -11092599.897 1
 90 10 11 13 13 59.9980000  0  4 02 06 13 09
  21139455.647     1577166.926 7   1258637.236 2
  19910026.131    -8455816.805 7  -6531086.669 2
  20417509.771   -16693810.105 7 -12852771.297 2
  21456227.889   -16096006.473 6 -11130229.921 1
 90 10 11 13 14 14.9980000  0  4 02 06 13 09
  21141664.842     1588773.452 7   1267681.260 2
  19907502.326    -8469078.050 7  -6541420.119 2
  20410483.232   -16730732.915 7 -12881542.313 2
  21447047.342   -16144241.922 6 -11167815.985 1
 90 10 11 13 14 29.9980000  0  4 02 06 13 09
  21143880.576     1600425.133 7   1276760.470 2
  19905002.623    -8482216.963 7  -6551658.241 2
  20403482.686   -16767518.520 7 -12910206.418 2
  21437880.178   -16192416.824 6 -11205354.872 1
 90 10 11 13 14 44.9980000  0  4 02 06 13 09
  21146105.787     1612111.046 7   1285866.361 2
  19902523.545    -8495244.234 7  -6561809.372 2
  20396506.553   -16804178.192 7 -12938772.395 2
  21428723.654   -16240542.123 6 -11242855.102 1
 90 10 11 13 14 59.9980000  0  4 02 06 13 09
  21148337.350     1623840.759 7   1295006.376 2
  19900067.076    -8508150.060 7  -6571865.862 2
  20389555.967   -16840702.170 7 -12967232.632 2
  21419576.928   -16288607.579 6 -11280308.694 1
 90 10 11 13 15 14.9980000  0  4 02 06 13 09
  21150579.061     1635616.412 7   1304182.188 2
  19897634.678    -8520932.087 7  -6581825.895 2
  20382632.811   -16877087.909 7 -12995585.153 2
  21410442.732   -16336610.933 6 -11317713.904 1
 90 10 11 13 15 29.9980000  0  4 02 06 13 09
  21152826.396     1647436.999 7   1313393.014 2
  19895226.037    -8533591.180 7  -6591690.139 2
  20375735.256   -16913336.605 7 -13023830.890 2
  21401318.045   -16384552.697 6 -11355071.121 1
 90 10 11 13 15 44.9980000  0  4 02 06 13 09
  21155086.201     1659301.061 7   1322637.731 2
  19892841.092    -8546128.394 7  -6601459.408 2
  20368863.514   -16949449.490 7 -13051970.797 2
  21392206.811   -16432434.084 6 -11392381.290 1
 90 10 11 13 15 59.9980000  0  4 02 06 13 09
  21157351.178     1671203.921 7   1331912.663 2
  19890477.795    -8558548.381 7  -6611137.326 2
  20362015.295   -16985431.013 7 -13080008.350 2
  21383105.670   -16480259.515 6 -11429647.858 1
 90 10 11 13 16 14.9980000  0  4 02 06 13 09
  21159623.998     1683146.638 7   1341218.660 2
  19888135.154    -8570849.873 7  -6620722.918 2
  20355194.022   -17021280.065 7 -13107942.670 2
  21374016.506   -16528027.497 6 -11466869.661 1
 90 10 11 13 16 29.9980000  0  4 02 06 13 09
  21161902.232     1695129.441 7   1350555.883 2
  19885818.162    -8583032.276 7  -6630215.710 2
  20348397.529   -17056996.625 7 -13135773.752 2
  21364936.889   -16575737.760 6 -11504046.488 1
 90 10 11 13 16 44.9980000  0  4 02 06 13 09
  21164193.076     1707159.368 7   1359929.830 2
  19883524.154    -8595088.653 7  -6639610.302 2
  20341626.975   -17092573.323 7 -13163495.851 2
  21355870.842   -16623382.761 6 -11541172.457 1
 90 10 11 13 16 59.9980000  0  4 02 06 13 09
  21166489.756     1719229.376 7   1369335.001 2
  19881251.779    -8607025.653 7  -6648911.877 2
  20334883.193   -17128017.018 7 -13191114.312 2
  21346815.131   -16670969.088 6 -11578252.713 1
 90 10 11 13 17 14.9980000  0  4 02 06 13 09
  21168795.990     1731345.573 7   1378776.169 2
  19879005.178    -8618836.959 7  -6658115.502 2
  20328164.287   -17163321.678 7 -13218624.435 2
  21337771.795   -16718490.423 6 -11615282.315 1
 90 10 11 13 17 29.9980000  0  4 02 06 13 09
  21171108.904     1743509.989 7   1388254.907 2
  19876782.068    -8630520.070 7  -6667219.237 2
  20321472.732   -17198484.951 7 -13246024.387 2
  21328741.303   -16765944.386 6 -11652259.427 2
 90 10 11 13 17 44.9980000  0  4 02 06 13 09
  21173431.850     1755710.755 7   1397761.976 2
  19874580.186    -8642086.983 7  -6676232.425 2
  20314805.756   -17233518.817 7 -13273323.496 2
  21319722.451   -16813342.509 6 -11689193.023 2
 90 10 11 13 17 59.9980000  0  4 02 06 13 09
  21175762.467     1767960.081 7   1407306.879 2
  19872403.881    -8653525.516 7  -6685145.573 2
  20308166.092   -17268411.065 7 -13300512.263 2
  21310715.311   -16860672.651 6 -11726073.650 2
 90 10 11 13 18 14.9980000  0  4 02 06 13 09
  21178104.217     1780264.064 7   1416894.380 2
  19870251.709    -8664829.188 7  -6693953.638 2
  20301554.365   -17303155.514 7 -13327585.859 2
  21301723.568   -16907928.026 6 -11762896.018 2
 90 10 11 13 18 29.9980000  0  4 02 06 13 09
  21180453.490     1792609.888 7   1426514.478 2
  19868124.397    -8676010.461 7  -6702666.325 2
  20294969.053   -17337764.855 7 -13354554.171 2
  21292743.936   -16955121.188 6 -11799669.910 2
 90 10 11 13 18 44.9980000  0  4 02 06 13 09
  21182812.100     1804998.629 7   1436168.019 2
  19866021.467    -8687068.035 7  -6711282.631 2
  20288408.764   -17372237.619 7 -13381416.065 2
  21283774.537   -17002250.751 6 -11836394.246 2
 90 10 11 13 18 59.9980000  0  4 02 06 13 09
  21185179.022     1817440.677 7   1445863.092 2
  19863941.701    -8697991.227 7  -6719794.224 2
  20281876.201   -17406563.430 7 -13408163.450 2
  21274820.248   -17049305.648 6 -11873060.393 2
 90 10 11 13 19 14.9980000  0  4 02 06 13 09
  21187553.850     1829913.130 7   1455581.863 2
  19861884.522    -8708803.058 7  -6728219.038 2
  20275368.959   -17440765.389 7 -13434814.324 2
  21265876.420   -17096308.774 6 -11909686.203 2
 90 10 11 13 19 29.9980000  0  4 02 06 13 09
  21189932.943     1842420.103 7   1465327.531 2
  19859849.021    -8719499.209 7  -6736553.717 2
  20268883.514   -17474839.270 7 -13461365.400 2
  21256942.428   -17143256.012 6 -11946268.466 1
 90 10 11 13 19 44.9980000  0  4 02 06 13 09
  21192322.982     1854978.502 7   1475113.269 2
  19857838.787    -8730062.559 7  -6744784.912 2
  20262428.732   -17508768.105 7 -13487803.454 2
  21248022.459   -17190129.907 7 -11982793.585 2
 90 10 11 13 19 59.9980000  0  4 02 06 13 09
  21194722.428     1867591.710 7   1484941.715 2
  19855855.021    -8740489.592 7  -6752909.876 2
  20255999.482   -17542548.444 7 -13514125.795 2
  21239117.264   -17236926.702 6 -12019258.625 2
 90 10 11 13 20 14.9980000  0  4 02 06 13 09
  21197130.842     1880245.703 7   1494801.946 2
  19853893.889    -8750794.037 7  -6760939.323 2
  20249597.186   -17576194.211 7 -13540343.278 2
  21230223.951   -17283660.102 6 -12055674.256 2
 90 10 11 13 20 29.9980000  0  4 02 06 13 09
  21199544.326     1892935.812 7   1504690.315 2
  19851956.154    -8760980.013 7  -6768876.459 2
  20243219.248   -17609709.432 7 -13566459.032 2
  21221342.959   -17330334.374 7 -12092043.815 2
 90 10 11 13 20 44.9980000  0  4 02 06 13 09
  21201967.732     1905663.941 7   1514608.307 2
  19850040.076    -8771045.855 7  -6776719.992 2
  20236866.522   -17643092.614 7 -13592471.900 2
  21212471.787   -17376947.310 6 -12128365.584 2
 90 10 11 13 20 59.9980000  0  4 02 06 13 09
  21204397.975     1918438.082 7   1524562.157 2
  19848148.178    -8780983.286 7  -6784463.454 2
  20230541.443   -17676335.717 7 -13618375.619 2
  21203616.225   -17423490.590 6 -12164633.068 2
 90 10 11 13 21 14.9980000  0  4 02 06 13 09
  21206837.490     1931253.467 7   1534548.143 2
  19846280.967    -8790796.823 7  -6792110.379 2
  20224241.654   -17709443.442 7 -13644173.846 2
  21194770.287   -17469968.708 6 -12200849.785 2
 90 10 11 13 21 29.9980000  0  4 02 06 13 09
  21209283.967     1944110.475 7   1544566.556 2
  19844438.193    -8800486.046 7  -6799660.426 2
  20217966.248   -17742415.415 7 -13669866.293 2
  21185939.021   -17516381.218 6 -12237015.376 2
 90 10 11 13 21 44.9980000  0  4 02 06 13 09
  21211740.498     1957017.221 7   1554623.734 2
  19842619.607    -8810042.681 7  -6807107.167 2
  20211719.506   -17775243.199 7 -13695446.383 2
  21177120.615   -17562719.300 6 -12273122.973 2
 90 10 11 13 21 59.9980000  0  4 02 06 13 09
  21214201.568     1969960.988 7   1564709.754 2
  19840823.912    -8819479.022 7  -6814460.174 2
  20205496.842   -17807939.549 7 -13720924.059 2
  21168313.951   -17608995.296 6 -12309182.191 2
 90 10 11 13 22 14.9980000  0  4 02 06 13 09
  21216678.443     1982962.827 7   1574841.031 2
  19839054.576    -8828774.227 7  -6821703.207 2
  20199304.623   -17840483.542 7 -13746283.014 2
  21159524.701   -17655188.221 6 -12345176.674 2
 90 10 11 13 22 29.9980000  0  4 02 06 13 09
  21219159.451     1996014.497 7   1585011.126 2
  19837312.365    -8837936.146 7  -6828842.376 2
  20193139.053   -17872883.321 7 -13771529.599 2
  21150748.889   -17701305.913 6 -12381112.541 2
 90 10 11 13 22 44.9980000  0  4 02 06 13 09
  21221654.639     2009114.327 7   1595218.752 2
  19835592.967    -8846966.145 7  -6835878.756 2
  20186998.795   -17905140.429 7 -13796665.006 2
  21141987.045   -17747349.361 7 -12416990.550 2
 90 10 11 13 22 59.9980000  0  4 02 06 13 09
  21224151.436     2022246.219 7   1605451.360 2
  19833896.490    -8855880.268 7  -6842824.840 2
  20180885.779   -17937270.748 7 -13821701.620 2
  21133236.646   -17793334.636 7 -12452823.234 2
 90 10 11 13 23 14.9980000  0  4 02 06 13 09
  21226656.311     2035405.721 7   1615705.496 2
  19832221.732    -8864682.699 7  -6849683.888 2
  20174795.506   -17969278.748 7 -13846642.923 2
  21124497.061   -17839265.868 7 -12488613.804 2
 90 10 11 13 23 29.9980000  0  4 02 06 13 09
  21229168.639     2048609.273 7   1625993.948 2
  19830571.795    -8873356.878 7  -6856442.997 2
  20168730.857   -18001148.048 7 -13871476.145 2
  21115768.709   -17885126.202 7 -12524349.135 2
 90 10 11 13 23 44.9980000  0  4 02 06 13 09
  21231691.209     2061862.167 7   1636320.847 2
  19828944.998    -8881897.541 7  -6863098.077 2
  20162693.029   -18032873.353 7 -13896197.163 2
  21107056.732   -17930910.244 7 -12560025.015 2
 90 10 11 13 23 59.9980000  0  4 02 06 13 09
  21234222.201     2075157.504 7   1646680.821 2
  19827344.459    -8890311.464 7  -6869654.395 2
  20156683.053   -18064461.501 7 -13920811.308 2
  21098357.178   -17976624.484 7 -12595646.497 2
 90 10 11 13 24 14.9980000  0  4 02 06 13 09
  21236757.912     2088486.124 7   1657066.729 2
  19825765.912    -8898607.295 7  -6876118.693 2
  20150696.811   -18095921.312 7 -13945325.449 2
  21089669.475   -18022277.651 7 -12631220.396 2
 90 10 11 13 24 29.9980000  0  4 02 06 13 09
  21239303.107     2101854.469 7   1667483.587 2
  19824210.693    -8906778.632 7  -6882485.988 2
  20144735.279   -18127246.545 7 -13969734.725 2
  21080994.936   -18067862.981 7 -12666741.437 2
 90 10 11 13 24 44.9980000  0  4 02 06 13 09
  21241854.646     2115272.115 7   1677938.861 2
  19822681.561    -8914815.602 7  -6888748.576 2
  20138802.107   -18158427.399 7 -13994031.496 2
  21072335.350   -18113370.519 7 -12702201.859 2
 90 10 11 13 24 59.9980000  0  4 02 06 13 09
  21244415.490     2128733.817 7   1688428.466 2
  19821176.537    -8922723.180 7  -6894910.336 2
  20132895.600   -18189468.971 7 -14018219.737 2
  21063689.342   -18158805.030 7 -12737605.375 2
 90 10 11 13 25 14.9980000  0  4 02 06 13 09
  21246984.662     2142232.964 7   1698947.250 2
  19819695.803    -8930507.959 7  -6900976.414 2
  20127012.576   -18220378.117 7 -14042304.785 2
  21055056.451   -18204173.315 7 -12772957.289 2
 90 10 11 13 25 29.9980000  0  4 02 06 13 09
  21249564.029     2155782.316 7   1709505.154 2
  19818240.334    -8938157.146 7  -6906936.838 2
  20121158.428   -18251142.159 7 -14066276.769 2
  21046438.459   -18249461.959 7 -12808247.141 2
 90 10 11 13 25 44.9980000  0  4 02 06 13 09
  21252149.084     2169372.066 7   1720094.534 2
  19816808.186    -8945680.304 7  -6912799.052 2
  20115330.459   -18281770.717 7 -14090143.182 2
  21037832.936   -18294680.503 7 -12843482.377 2
 90 10 11 13 25 59.9980000  0  4 02 06 13 09
  21254743.412     2182998.898 7   1730712.814 2
  19815400.232    -8953080.717 7  -6918565.624 2
  20109527.162   -18312267.061 7 -14113906.572 2
  21029241.014   -18339832.094 7 -12878665.432 2
 90 10 11 13 26 14.9980000  0  4 02 06 13 09
  21257345.990     2196682.196 7   1741375.089 2
  19814019.318    -8960338.629 7  -6924221.155 2
  20103751.779   -18342611.900 7 -14137551.904 2
  21020665.647   -18384896.828 7 -12913780.821 2
 90 10 11 13 26 29.9980000  0  4 02 06 13 09
  21259961.865     2210421.844 7   1752081.277 2
  19812665.326    -8967454.096 7  -6929765.698 2
  20098006.904   -18372805.246 7 -14161079.188 2
  21012106.404   -18429874.508 7 -12948828.366 2
 90 10 11 13 26 44.9980000  0  4 02 06 13 09
  21262583.842     2224203.002 7   1762819.804 2
  19811335.568    -8974441.739 7  -6935210.632 2
  20092286.732   -18402861.895 7 -14184499.963 2
  21003561.514   -18474779.774 7 -12983819.482 2
 90 10 11 13 26 59.9980000  0  4 02 06 13 09
  21265214.990     2238028.129 7   1773592.593 2
  19810030.693    -8981298.898 7  -6940553.889 2
  20086594.873   -18432779.279 7 -14207812.210 2
  20995029.725   -18519609.822 7 -13018751.996 2
 90 10 11 13 27 14.9980000  0  4 02 06 13 09
  21267852.076     2251887.809 7   1784392.300 2
  19808748.904    -8988035.032 7  -6945802.845 2
  20080927.389   -18462566.698 7 -14231023.191 2
  20986512.061   -18564373.495 7 -13053632.779 2
 90 10 11 13 27 29.9980000  0  4 02 06 13 09
  21270497.115     2265792.495 7   1795227.084 2
  19807491.256    -8994639.473 7  -6950949.180 2
  20075284.412   -18492213.946 7 -14254124.945 2
  20978008.482   -18609060.442 7 -13088453.781 2
 90 10 11 13 27 44.9980000  0  4 02 06 13 09
  21273153.834     2279741.958 7   1806096.764 2
  19806260.279    -9001112.074 7  -6955992.774 2
  20069669.053   -18521721.229 7 -14277117.641 2
  20969520.623   -18653670.228 7 -13123214.658 2
 90 10 11 13 27 59.9980000  0  4 02 06 13 09
  21275814.131     2293725.849 7   1816993.267 2
  19805051.482    -9007463.214 7  -6960941.735 2
  20064079.514   -18551098.710 7 -14300009.188 2
  20961043.795   -18698212.895 7 -13157923.236 2
 90 10 11 13 28 14.9980000  0  4 02 06 13 09
  21278481.568     2307742.319 7   1827915.154 2
  19803866.022    -9013694.619 7  -6965797.395 2
  20058512.654   -18580347.987 7 -14322800.837 2
  20952581.404   -18742689.970 7 -13192580.699 2
 90 10 11 13 28 29.9980000  0  4 02 06 13 09
  21281158.225     2321805.954 7   1838873.794 2
  19802706.623    -9019791.472 7  -6970548.209 2
  20052974.061   -18609454.764 7 -14345481.447 2
  20944130.850   -18787086.673 7 -13227175.544 2
 90 10 11 13 28 44.9980000  0  4 02 06 13 09
  21283839.037     2335899.900 7   1849856.050 2
  19801568.084    -9025770.465 7  -6975207.187 2
  20047457.975   -18638435.773 7 -14368064.058 2
  20935696.990   -18831419.482 7 -13261720.595 2
 90 10 11 13 28 59.9980000  0  4 02 06 13 09
  21286526.279     2350020.143 7   1860858.798 2
  19800452.568    -9031635.637 7  -6979777.471 2
  20041967.912   -18667295.134 7 -14390551.878 2
  20927270.459   -18875692.140 7 -13296218.780 2
 90 10 11 13 29 14.9980000  0  4 02 06 13 09
  21289223.295     2364191.920 7   1871901.707 2
  19799363.139    -9037361.720 7  -6984239.370 2
  20036502.857   -18696007.721 7 -14412925.325 2
  20918861.459   -18919879.269 7 -13330650.313 2
 90 10 11 13 29 29.9980000  0  4 02 06 13 09
  21291932.701     2378422.860 7   1882990.715 2
  19798299.857    -9042940.482 7  -6988586.475 2
  20031068.482   -18724565.637 7 -14435178.253 2
  20910472.490   -18963972.477 7 -13365008.667 2
 90 10 11 13 29 44.9980000  0  4 02 06 13 09
  21294644.811     2392685.294 7   1894104.258 2
  19797262.279    -9048399.732 7  -6992840.460 2
  20025657.982   -18752996.739 7 -14457332.366 2
  20902093.107   -19007999.375 7 -13399315.345 2
 90 10 11 13 29 59.9980000  0  4 02 06 13 09
  21297369.037     2406993.761 7   1905253.680 2
  19796248.412    -9053724.732 7  -6996989.823 2
  20020275.701   -18781286.432 7 -14479376.288 2
  20893730.639   -19051944.841 7 -13433558.575 2
 90 10 11 13 30 14.9980000  0  4 02 06 13 09
  21300098.529     2421348.366 7   1916439.049 2
  19795260.732    -9058915.319 7  -7001034.452 2
  20014920.146   -18809434.482 7 -14501309.841 2
  20885382.936   -19095808.944 7 -13467738.393 2
 90 10 11 13 30 29.9980000  0  4 02 06 13 09
  21302840.959     2435746.204 7   1927658.109 2
  19794299.193    -9063974.165 7  -7004976.429 2
  20009590.436   -18837443.719 7 -14523135.224 2
  20877051.178   -19139593.906 7 -13501856.558 2
 90 10 11 13 30 44.9980000  0  4 02 06 13 09
  21305586.490     2450181.734 7   1938906.533 2
  19793359.771    -9068906.709 7  -7008819.986 2
  20004284.092   -18865319.856 7 -14544856.896 2
  20868735.193   -19183304.951 7 -13535917.117 2
 90 10 11 13 30 59.9980000  0  4 02 06 13 09
  21308343.084     2464660.306 7   1950188.507 2
  19792445.545    -9073707.635 7  -7012560.985 2
  19999007.115   -18893057.543 7 -14566470.683 2
  20860430.545   -19226936.516 7 -13569915.746 2
 90 10 11 13 31 14.9980000  0  4 02 06 13 09
  21311105.146     2479181.274 7   1961503.507 2
  19791557.256    -9078377.143 7  -7016199.586 2
  19993754.482   -18920657.375 7 -14587977.053 2
  20852142.272   -19270488.757 7 -13603852.568 2
 90 10 11 13 31 29.9980000  0  4 02 06 13 09
  21313875.701     2493743.284 7   1972850.487 2
  19790694.232    -9082916.635 7  -7019736.874 2
  19988527.740   -18948120.487 7 -14609376.886 2
  20843870.865   -19313962.857 7 -13637728.490 2
 90 10 11 13 31 44.9980000  0  4 02 06 13 09
  21316657.342     2508348.925 7   1984231.468 2
  19789856.084    -9087323.396 7  -7023170.732 2
  19983329.178   -18975444.629 7 -14630668.426 2
  20835612.076   -19357355.963 7 -13671541.310 2
 90 10 11 13 31 59.9980000  0  4 02 06 13 09
  21319442.022     2522995.795 7   1995644.577 2
  19789042.201    -9091599.785 7  -7026503.005 2
  19978154.537   -19002632.182 7 -14651853.540 2
  20827371.053   -19400670.178 7 -13705292.650 2
 90 10 11 13 32 14.9980000  0  4 02 06 13 09
  21322237.545     2537684.046 7   2007089.936 2
  19788252.709    -9095745.185 7  -7029733.208 2
  19973007.607   -19029682.905 7 -14672932.032 2
  20819142.928   -19443904.648 7 -13738981.858 2
 90 10 11 13 32 29.9980000  0  4 02 06 13 09
  21325040.623     2552405.068 7   2018560.816 2
  19787487.529    -9099768.321 7  -7032868.144 2
  19967884.498   -19056605.300 7 -14693910.529 2
  20810929.975   -19487067.927 7 -13772615.585 2
 90 10 11 13 32 44.9980000  0  4 02 06 13 09
  21327849.123     2567172.483 7   2030067.852 2
  19786747.092    -9103655.618 7  -7035897.226 2
  19962788.521   -19083385.935 7 -14714778.558 2
  20802732.396   -19530146.026 7 -13806182.941 2
 90 10 11 13 32 59.9980000  0  4 02 06 13 09
  21330668.850     2581983.176 7   2041608.606 2
  19786032.795    -9107409.852 7  -7038822.622 3
  19957717.670   -19110027.689 7 -14735538.375 2
  20794550.584   -19573141.967 7 -13839686.282 2
 90 10 11 13 33 14.9980000  0  4 02 06 13 09
  21333495.420     2596840.712 7   2053185.864 2
  19785345.334    -9111027.164 7  -7041641.322 2
  19952676.498   -19136527.012 7 -14756187.205 2
  20786386.006   -19616051.445 7 -13873122.245 2
 90 10 11 13 33 29.9980000  0  4 02 06 13 09
  21336339.170     2611776.456 7   2064824.067 2
  19784689.076    -9114476.335 7  -7044329.023 2
  19947665.576   -19162852.744 7 -14776700.766 2
  20778241.272   -19658843.087 7 -13906466.388 2
 90 10 11 13 33 44.9980000  0  4 02 06 13 09
  21339192.404     2626778.543 7   2076513.963 2
  19784061.014    -9117769.094 7  -7046894.827 2
  19942686.420   -19189017.040 7 -14797088.538 2
  20770119.436   -19701528.316 7 -13939727.612 2
 90 10 11 13 33 59.9980000  0  4 02 06 13 09
  21342057.998     2641832.626 7   2088244.372 2
  19783462.451    -9120919.586 7  -7049349.776 2
  19937736.193   -19215034.031 7 -14817361.525 2
  20762014.967   -19744121.221 7 -13972916.898 2
 90 10 11 13 34 14.9980000  0  4 02 06 13 09
  21344930.357     2656931.386 7   2100009.604 2
  19782888.568    -9123935.159 7  -7051699.593 2
  19932812.154   -19240910.934 7 -14837525.354 2
  20753925.201   -19786628.788 7 -14006039.690 2
 90 10 11 13 34 29.9980000  0  4 02 06 13 09
  21347810.123     2672071.604 7   2111807.131 2
  19782339.936    -9126818.814 7  -7053946.621 2
  19927914.068   -19266650.851 7 -14857582.440 2
  20745852.123   -19829053.840 7 -14039098.183 2
 90 10 11 13 34 44.9980000  0  4 02 06 13 09
  21350699.967     2687250.717 7   2123634.973 2
  19781815.631    -9129572.946 7  -7056092.725 2
  19923041.795   -19292256.607 7 -14877534.985 2
  20737793.334   -19871398.812 7 -14072094.279 2
 90 10 11 13 34 59.9980000  0  4 02 06 13 09
  21353594.881     2702467.167 7   2135491.901 2
  19781315.850    -9132199.239 7  -7058139.216 2
  19918194.209   -19317729.928 7 -14897384.334 2
  20729750.803   -19913664.764 7 -14105028.799 2
 90 10 11 13 35 14.9980000  0  4 02 06 13 09
  21356500.139     2717728.142 7   2147383.538 2
  19780841.545    -9134690.348 7  -7060080.360 2
  19913373.326   -19343063.534 7 -14917124.817 2
  20721723.982   -19955844.402 7 -14137896.063 2
 90 10 11 13 35 29.9980000  0  4 02 06 13 09
  21359411.998     2733029.988 7   2159307.012 2
  19780393.475    -9137049.423 7  -7061918.623 2
  19908577.443   -19368260.900 7 -14936759.136 2
  20713714.420   -19997940.413 7 -14170698.158 2
 90 10 11 13 35 44.9980000  0  4 02 06 13 09
  21362330.397     2748365.779 7   2171256.936 2
  19779966.850    -9139283.323 7  -7063659.348 2
  19903807.920   -19393329.008 7 -14956292.739 2
  20705718.123   -20039959.974 7 -14203440.687 2
 90 10 11 13 35 59.9980000  0  4 02 06 13 09
  21365256.178     2763741.049 7   2183237.623 2
  19779567.193    -9141386.727 7  -7065298.388 2
  19899063.365   -19418262.610 7 -14975721.525 2
  20697737.154   -20081897.146 7 -14236119.018 2
 90 10 11 13 36 14.9980000  0  4 02 06 13 09
  21368188.146     2779158.695 6   2195251.334 2
  19779192.295    -9143356.813 7  -7066833.544 2
  19894345.467   -19443058.721 7 -14995043.180 2
  20689772.975   -20123748.839 7 -14268730.735 2
 90 10 11 13 36 29.9980000  0  4 02 06 13 09
  21371132.639     2794621.663 7   2207300.358 2
  19778843.912    -9145190.048 7  -7068262.064 2
  19889653.139   -19467714.396 7 -15014255.402 2
  20681825.584   -20165511.331 7 -14301272.949 2
 90 10 11 13 36 44.9980000  0  5 02 06 13 12 09
  21374083.396     2810127.536 7   2219382.818 2
  19778520.467    -9146888.901 7  -7069585.867 2
  19884986.764   -19492232.140 7 -15033360.149 2
  24211154.443          -0.76113
  20673895.498   -20207187.221 7 -14333747.680 2
 90 10 11 13 36 59.9980000  0  5 02 06 13 12 09
  21377039.709     2825660.887 7   2231486.690 2
  19778220.389    -9148468.820 7  -7070816.999 3
  19880345.029   -19516627.420 7 -15052369.466 2
  24200225.107      -57453.392 3
  20665979.029   -20248791.389 7 -14366166.526 2
 90 10 11 13 37 14.9980000  0  5 02 06 13 12 09
  21380003.256     2841232.621 7   2243620.463 2
  19777943.490    -9149918.718 7  -7071946.815 3
  19875728.506   -19540889.267 7 -15071274.810 2
  24189285.365     -114917.657 3
  20658077.943   -20290312.461 7 -14398520.622 2
 90 10 11 13 37 29.9980000  0  5 02 06 13 12 09
  21382969.803     2856828.475 7   2255773.033 2
  19777690.342    -9151252.719 7  -7072986.328 2
  19871134.311   -19565031.863 7 -15090087.235 2
  24178347.654     -172407.633 2
  20650188.506   -20331764.502 7 -14430820.927 2
 90 10 11 13 37 44.9980000  0  5 02 06 13 12 09
  21385946.521     2872465.257 6   2267957.491 2
  19777461.639    -9152454.099 7  -7073922.488 3
  19866565.568   -19589038.864 7 -15108793.996 2
  24167405.850     -229906.543 2
  20642317.561   -20373130.686 7 -14463054.330 2
 90 10 11 13 37 59.9980000  0  5 02 06 13 12 09
  21388927.295     2888138.739 6   2280170.553 2
  19777258.123    -9153526.928 7  -7074758.479 3
  19862021.725   -19612914.448 7 -15127398.359 2
  24156465.397     -287418.263 2        -0.39611
  20634461.873   -20414414.650 7 -14495223.666 2
 90 10 11 13 38 14.9980000  0  5 02 06 13 12 09
  21391919.951     2903858.292 6   2292419.511 2
  19777079.896    -9154461.515 7  -7075486.750 3
  19857505.178   -19636648.919 7 -15145892.769 2
  24145514.881     -344932.979 2    -44817.076 1
  20626623.068   -20455606.419 7 -14527321.158 2
 90 10 11 13 38 29.9980000  0  5 02 06 13 12 09
  21394917.654     2919618.021 6   2304699.775 2
  19776928.021    -9155263.931 7  -7076112.035 3
  19853015.467   -19660248.513 7 -15164282.060 2
  24134563.373     -402456.574 2    -89640.636 1
  20618800.646   -20496711.900 7 -14559351.415 2
 90 10 11 13 38 44.9980000  0  5 02 06 13 12 09
  21397926.420     2935417.112 7   2317010.713 2
  19776797.631    -9155934.634 7  -7076634.677 3
  19848548.834   -19683713.947 7 -15182566.827 2
  24123619.998     -459989.541 3   -134471.538 1
  20610995.943   -20537731.494 7 -14591314.742 2
 90 10 11 13 38 59.9980000  0  5 02 06 13 12 09
  21400939.920     2951256.938 6   2329353.390 2
  19776697.482    -9156472.226 7  -7077053.604 3
  19844110.928   -19707044.018 7 -15200746.110 2
  24112668.982     -517530.280 3   -179308.496 1
  20603205.670   -20578663.528 7 -14623209.844 2
 90 10 11 13 39 14.9980000  0  5 02 06 13 12 09
  21403960.975     2967138.872 6   2341728.881 2
  19776619.100    -9156875.317 7  -7077367.726 2
  19839696.107   -19730237.310 7 -15218818.816 2
  24101720.264     -575077.246 3   -224150.250 1
  20595434.451   -20619506.188 7 -14655035.306 2
 90 10 11 13 39 29.9980000  0  5 02 06 13 12 09
  21406992.186     2983063.830 6   2354137.907 2
  19776570.436    -9157143.129 7  -7077576.432 3
  19835308.990   -19753293.066 7 -15236784.347 2
  24090768.865     -632629.403 4   -268996.106 1
  20587679.256   -20660258.513 7 -14686790.372 2
 90 10 11 13 39 44.9980000  0  5 02 06 13 12 09
  21410029.662     2999027.719 6   2366577.254 2
  19776542.623    -9157279.332 7
  19830946.779   -19776215.510 7 -15254646.002 2
  24079818.795     -690190.608 4   -313849.026 1
  20579941.459   -20700924.183 7 -14718477.922 2
 90 10 11 13 39 59.9980000  0  5 02 06 13 12 09
  21413076.107     3015036.563 6   2379051.637 2
  19776543.037    -9157278.001 7
  19826612.107   -19798998.311 7 -15272398.845 2
  24068857.904     -747754.639 3   -358704.124 1
  20572219.811   -20741496.730 7 -14750092.908 2
 90 10 11 13 40 14.9980000  0  5 02 06 13 12 09
  21416130.850     3031087.500 6   2391558.809 2
  19776567.420    -9157141.697 7
  19822302.225   -19821644.376 7 -15290045.138 2
  24057906.311     -805323.999 3   -403563.331 1
  20564516.975   -20781978.542 7 -14781637.190 2
 90 10 11 13 40 29.9980000  0  5 02 06 13 12 09
  21419193.834     3047179.706 6   2404098.144 2
  19776621.764    -9156871.315 7
  19818018.420   -19844154.701 7 -15307585.665 2
  24046951.240     -862899.411 3   -448427.272 1
  20556830.154   -20822370.390 7 -14813111.369 2
 90 10 11 13 40 44.9980000  0  5 02 06 13 12 09
  21422261.920     3063309.422 6   2416666.708 2
  19776698.748    -9156470.764 7        -0.14113
  19813760.646   -19866533.379 7 -15325023.603 2
  24035996.178     -920484.595 4   -493298.888 1
  20549160.639   -20862675.855 7 -14844518.236 2
 90 10 11 13 40 59.9980000  0  5 02 06 13 12 09
  21425338.451     3079477.117 6   2429264.868 2
  19776797.678    -9155939.308 7       413.951 3
  19809526.709   -19888779.835 7 -15342358.515 2
  24025036.381     -978078.781 3   -538177.492 1
  20541508.670   -20902893.848 7 -14875856.948 2
 90 10 11 13 41 14.9980000  0  5 02 06 13 12 09
  21428423.857     3095687.215 6   2441896.065 2
  19776925.897    -9155272.087 7       933.836 3
  19805318.967   -19910889.588 7 -15359586.905 2
  24014068.592    -1035677.102 3   -583059.256 1
  20533871.256   -20943019.652 7 -14907123.822 2
 90 10 11 13 41 29.9980000  0  5 02 06 13 12 09
  21431516.631     3111945.609 6   2454564.895 2
  19777079.881    -9154463.386 7      1563.971 3
  19801139.326   -19932856.794 7 -15376704.219 2
  24003110.740    -1093273.623 4   -627939.685 1
  20526254.803   -20983046.956 7 -14938313.942 2
 90 10 11 13 41 44.9980000  0  5 02 06 13 12 09
  21434620.225     3128242.876 6   2467264.020 2
  19777259.334    -9153522.748 7      2296.911 3
  19796983.795   -19954691.330 7 -15393718.155 2
  23992147.725    -1150877.728 4   -672826.048 1
  20518654.397   -21022985.125 7 -14969434.607 2
 90 10 11 13 41 59.9980000  0  5 02 06 13 12 09
  21437727.545     3144581.683 6   2479995.515 2
  19777463.740    -9152447.351 7      3134.852 3
  19792854.396   -19976390.428 7 -15410626.555 2
  23981187.209    -1208486.345 5   -717715.910 1
  20511072.459   -21062831.228 7 -15000483.530 2
 90 10 11 13 42 14.9980000  0  5 02 06 13 12 09
  21440844.584     3160961.375 6   2492758.860 2
  19777693.459    -9151237.851 7      4077.291 3
  19788751.756   -19997954.921 7 -15427430.066 2
  23970221.889    -1266100.059 5   -762609.699 1
  20503507.826   -21102585.411 7 -15031460.831 2
 90 10 11 13 42 29.9980000  0  5 02 06 13 12 09
  21443971.334     3177386.743 6   2505557.799 2
  19777950.701    -9149889.421 7      5127.992 3
  19784675.412   -20019380.105 7 -15444125.022 2
  23959258.943    -1323713.901 4   -807503.690 1
  20495960.295   -21142242.898 7 -15062362.784 2
 90 10 11 13 42 44.9980000  0  5 02 06 13 12 09
  21447104.467     3193853.552 6   2518389.039 1
  19778232.279    -9148406.373 7      6283.589 3
  19780622.795   -20040670.147 7 -15460714.677 2
  23948294.334    -1381332.003 4   -852400.921 1
  20488431.920   -21181807.486 7 -15093192.345 2
 90 10 11 13 42 59.9980000  0  5 02 06 13 12 09
  21450248.326     3210370.497 6   2531259.339 2
  19778542.951    -9146779.553 7      7551.209 3
  19776598.928   -20061816.251 7 -15477192.171 2
  23937332.459    -1438945.063 5   -897294.194 1
  20480921.975   -21221269.962 7 -15123942.344 2
 90 10 11 13 43 14.9980000  0  5 02 06 13 12 09
  21453398.623     3226933.819 6   2544165.774 2
  19778877.498    -9145012.706 7      8927.936 3
  19772601.951   -20082822.430 7 -15493560.636 2
  23926370.053    -1496556.822 4   -942186.517 1
  20473430.803   -21260633.658 7 -15154615.366 2
 90 10 11 13 43 29.9980000  0  5 02 06 13 12 09
  21456560.732     3243544.573 6   2557109.170 1
  19779239.772    -9143104.909 7     10414.501 3
  19768631.334   -20103687.769 7 -15509819.355 2
  23915405.389    -1554166.037 4   -987076.779 1
  20465960.006   -21299897.482 7 -15185210.566 2
 90 10 11 13 43 44.9980000  0  5 02 06 13 12 09
  21459730.021     3260199.163 6   2570086.728 2
  19779630.279    -9141059.401 7     12008.371 3
  19764686.357   -20124415.940 7 -15525971.188 2
  23904444.115    -1611775.924 4  -1031967.677 1
  20458507.092   -21339064.482 7 -15215730.323 2
 90 10 11 13 43 59.9980000  0  5 02 06 13 12 09
  21462908.170     3276900.446 6   2583100.665 2
  19780046.842    -9138873.399 7     13711.727 3
  19760768.873   -20145004.031 7 -15542013.871 2
  23893482.959    -1669383.382 4
  20451073.670   -21378131.441 7 -15246172.121 2
 90 10 11 13 44 14.9980000  0  5 02 06 13 12 09
  21466093.748     3293643.740 6   2596147.344 1
  19780488.279    -9136551.501 7     15520.973 3
  19756876.693   -20165456.688 7 -15557951.018 2
  23882520.404    -1726992.947 5
  20443656.873   -21417102.866 7 -15276539.481 2
 90 10 11 13 44 29.9980000  0  5 02 06 13 12 09
  21469288.123     3310429.083 6   2609226.786 2
  19780955.029    -9134093.631 7     17436.165 3
  19753011.256   -20185774.183 7 -15573782.849 2
  23871555.350    -1784604.221 5        -0.12911
  20436258.647   -21455978.323 7 -15306832.064 2
 90 10 11 13 44 44.9980000  0  5 02 06 13 12 09
  21472491.287     3327257.710 6   2622339.954 1
  19781451.537    -9131498.579 7     19458.258 3
  19749170.334   -20205955.268 7 -15589508.384 2
  23860595.209    -1842215.947 5    -44892.368 1
  20428879.756   -21494756.325 7 -15337048.701 2
 90 10 11 13 44 59.9980000  0  5 02 06 13 12 09
  21475700.928     3344131.316 6   2635488.172 1
  19781969.943    -9128764.442 7     21588.725 3
  19745356.600   -20225998.320 7 -15605126.358 2
  23849630.904    -1899826.193 5    -89783.518 1
  20421518.850   -21533435.026 7 -15367187.968 2
 90 10 11 13 45 14.9980000  0  5 02 06 13 12 09
  21478921.709     3361053.785 6   2648674.461 1
  19782517.787    -9125887.376 7     23830.562 3
  19741569.490   -20245899.180 7 -15620633.533 2
  23838670.139    -1957430.757 5   -134670.192 1
  20414178.193   -21572009.797 7 -15397246.244 2
 90 10 11 13 45 29.9980000  0  5 02 06 13 12 09
  21482150.178     3378017.909 6   2661893.209 1
  19783090.311    -9122874.550 7     26178.190 3
  19737807.529   -20265665.540 7 -15636035.908 2
  23827706.053    -2015036.720 5   -179557.972 1
  20406856.521   -21610487.920 7 -15427229.211 2
 90 10 11 13 45 44.9980000  0  5 02 06 13 12 09
  21485386.428     3395027.900 6   2675147.699 1
  19783690.982    -9119721.740 7     28634.898 3
  19734073.334   -20285293.245 7 -15651330.237 2
  23816747.522    -2072639.673 5   -224443.411 1
  20399554.334   -21648864.632 7 -15457133.160 2
 90 10 11 13 45 59.9980000  0  5 02 06 13 12 09
  21488632.561     3412086.188 6   2688439.820 1
  19784318.178    -9116426.385 7     31202.675 3
  19730364.881   -20304780.083 7 -15666514.798 2
  23805784.389    -2130236.965 5   -269324.479 1
  20392271.709   -21687137.427 7 -15486956.134 2
 90 10 11 13 46 14.9980000  0  5 02 06 13 12 09
  21491887.920     3429185.082 6   2701763.589 2
  19784970.662    -9112996.269 7     33875.461 3
  19726681.584   -20324133.928 7 -15681595.731 2
  23794821.693    -2187835.986 5   -314206.831 1
  20385005.662   -21725313.665 7 -15516703.871 2
 90 10 11 13 46 29.9980000  0  5 02 06 13 12 09
  21495147.295     3446319.426 6   2715114.964 2
  19785649.342    -9109436.281 7     36649.448 3
  19723023.170   -20343359.962 7 -15696577.071 2
  23783864.068    -2245441.629 5   -359094.372 1
  20377758.482   -21763397.946 7 -15546379.948 2
 90 10 11 13 46 44.9980000  0  5 02 06 13 12 09
  21498416.545     3463500.984 6   2728503.138 1
  19786352.529    -9105734.680 7     39533.783 3
  19719392.279   -20362446.351 7 -15711449.599 2
  23772897.373    -2303041.909 5   -403977.694 1
  20370531.990   -21801378.093 7 -15575974.890 2
 90 10 11 13 46 59.9980000  0  5 02 06 13 12 09
  21501696.389     3480726.574 6   2741925.628 2
  19787082.576    -9101894.628 7     42526.004 3
  19715784.873   -20381396.547 7 -15726215.998 2
  23761936.936    -2360639.895 5   -448859.248 1
  20363324.615   -21839257.337 7 -15605491.197 2
 90 10 11 13 47 14.9980000  0  5 02 06 13 12 09
  21504981.271     3497995.835 6   2755382.137 2
  19787840.936    -9097916.612 7     45625.723 3
  19712204.943   -20400210.849 7 -15740876.508 2
  23750979.951    -2418235.703 5   -493739.114 1
  20356134.037   -21877035.600 7 -15634928.824 2
 90 10 11 13 47 29.9980000  0  5 02 06 13 12 09
  21508276.514     3515312.447 6   2768875.552 1
  19788624.662    -9093796.562 7     48836.115 3
  19708650.936   -20418885.748 7 -15755428.396 2
  23740019.529    -2475825.357 5   -538614.181 1
  20348965.857   -21914708.815 7 -15664284.593 2
 90 10 11 13 47 44.9980000  0  5 02 06 13 12 09
  21511580.264     3532673.457 6   2782403.553 2
  19789435.279    -9089537.651 7     52154.723 3
  19705122.904   -20437424.099 7 -15769873.873 2
  23729063.092    -2533411.477 5   -583486.490 1
  20341816.389   -21952279.447 7 -15693560.427 2
 90 10 11 13 47 59.9980000  0  5 02 06 13 12 09
  21514892.639     3550078.778 6   2795966.088 1
  19790271.920    -9085139.988 7     55581.441 3
  19701622.412   -20455826.328 7 -15784213.295 2
  23718106.186    -2590994.132 5   -628356.124 1
  20334685.725   -21989747.761 7 -15722756.535 2
 90 10 11 13 48 14.9980000  0  5 02 06 13 12 09
  21518213.170     3567531.686 6   2809565.703 1
  19791135.006    -9080600.268 7     59118.840 3
  19698146.811   -20474089.192 7 -15798444.113 2
  23707146.303    -2648569.821 5   -673220.317 1
  20327577.529   -22027110.100 7 -15751870.067 2
 90 10 11 13 48 29.9980000  0  5 02 06 13 12 09
  21521542.725     3585027.567 6   2823198.808 1
  19792026.217    -9075922.904 7     62763.501 3
  19694697.123   -20492217.410 7 -15812570.012 2
  23696195.443    -2706142.722 5   -718082.327 1
  20320486.201   -22064370.263 7 -15780903.979 2
 90 10 11 13 48 44.9980000  0  5 02 06 13 12 09
  21524881.857     3602570.470 6   2836868.547 1
  19792942.225    -9071103.564 7     66518.805 3
  19691272.920   -20510206.917 7 -15826587.830 2
  23685237.889    -2763708.431 5   -762938.762 1
  20313415.717   -22101524.172 7 -15809855.097 2
 90 10 11 13 48 59.9980000  0  5 02 06 13 12 09
  21528229.178     3620157.735 6   2850572.855 1
  19793886.592    -9066145.312 7     70382.358 3
  19687875.068   -20528060.544 7 -15840499.763 2
  23674282.896    -2821269.632 5   -807791.650 1
  20306365.592   -22138574.089 7 -15838725.181 2
 90 10 11 13 49 14.9980000  0  5 02 06 13 12 09
  21531582.209     3637788.100 6   2864310.749 2
  19794856.420    -9061049.091 7     74353.414 3
  19684504.021   -20545779.664 7 -15854306.887 2
  23663329.717    -2878827.428 4   -852641.888 1
  20299335.225   -22175521.259 7 -15867515.203 2
 90 10 11 13 49 29.9980000  0  5 02 06 13 12 09
  21534948.076     3655468.597 6   2878087.704 1
  19795852.998    -9055808.158 7     78437.220 3
  19681159.404   -20563357.665 7 -15868004.050 2
  23652376.779    -2936374.469 4   -897483.740 1
  20292324.967   -22212358.059 7 -15896219.225 2
 90 10 11 13 49 44.9980000  0  5 02 06 13 12 09
  21538321.936     3673192.790 6   2891898.708 1
  19796877.295    -9050428.712 7     82628.967 3
  19677840.256   -20580800.638 7 -15881595.997 2
  23641433.475    -2993916.842 4   -942321.980 1
  20285335.318   -22249090.747 7 -15924842.114 2
 90 10 11 13 49 59.9980000  0  5 02 06 13 12 09
  21541701.639     3690963.200 6   2905745.722 1
  19797927.529    -9044908.119 7     86930.691 3
  19674546.701   -20598106.239 7 -15895080.895 2
  23630482.584    -3051451.783 4   -987154.381 1
  20278365.107   -22285716.370 7 -15953381.580 2
 90 10 11 13 50 14.9980000  0  5 02 06 13 12 09
  21545093.623     3708777.702 6   2919627.099 1
  19799004.865    -9039248.587 7     91340.677 3
  19671278.842   -20615276.955 7 -15908460.696 2
  23619535.404    -3108981.261 5  -1031982.567 1
  20271415.193   -22322236.717 7 -15981839.014 2
 90 10 11 13 50 29.9970000  0  5 02 06 13 12 09
  21548489.759     3726634.435 6   2933541.377 1
  19800107.376    -9033451.168 7     95858.108 3
  19668037.423   -20632312.339 7 -15921735.038 2
  23608590.329    -3166501.822 5  -1076803.813 1
  20264486.282   -22358649.812 7 -16010212.870 2
 90 10 11 13 50 44.9970000  0  5 02 06 13 12 09
  21551897.134     3744535.220 6   2947489.984 1
  19801237.087    -9027515.658 7    100483.144 3
  19664820.642   -20649215.411 7 -15934906.282 2
  23597646.790    -3224021.469 5  -1121624.341 1
  20257577.688   -22394960.702 7 -16038507.098 2
 90 10 11 13 50 59.9970000  0  5 02 06 13 12 09
  21555311.610     3762480.742 6   2961473.454 1
  19802393.954    -9021440.310 7    105217.139 3
  19661630.228   -20665983.230 7 -15947972.133 2
  23586699.189    -3281534.202 5  -1166439.471 1
  20250688.282   -22431164.812 7 -16066718.109 2
 90 10 11 13 51 14.9970000  0  5 02 06 13 12 09
  21558735.423     3780471.669 6   2975492.299 1
  19803575.149    -9015224.692 7    110060.446 3
  19658465.368   -20682615.146 7 -15960932.086 2
  23575757.431    -3339039.236 4  -1211248.600 1
  20243818.360   -22467261.108 7 -16094845.116 2
 90 10 11 13 51 29.9970000  0  5 02 06 13 12 09
  21562166.189     3798506.225 6   2989545.141 1
  19804786.188    -9008870.627 7    115011.628 3
  19655325.899   -20699113.338 7 -15973787.838 2
  23564814.962    -3396538.156 4  -1256052.962 1
  20236970.618   -22503251.124 7 -16122889.305 2
 90 10 11 13 51 44.9970000  0  5 02 06 13 12 09
  21565606.899     3816580.328 6   3003628.795 1
  19806020.438    -9002382.145 7    120067.560 3
  19652210.884   -20715481.949 7 -15986542.617 2
  23553874.618    -3454034.929 4  -1300855.653 1
  20230140.204   -22539138.944 7 -16150853.865 2
 90 10 11 13 51 59.9970000  0  5 02 06 13 12 09
  21569055.524     3834702.460 6   3017749.879 1
  19807283.009    -8995750.617 7    125234.953 3
  19649122.235   -20731712.423 7 -15999189.762 2
  23542935.267    -3511520.552 4  -1345649.635 1
  20223333.181   -22574915.431 7 -16178731.667 2
 90 10 11 13 52 14.9970000  0  5 02 06 13 12 09
  21572513.478     3852872.032 6   3031907.938 1
  19808572.478    -8988976.740 7    130513.261 3
  19646059.892   -20747805.463 7 -16011729.812 2
  23531997.829    -3568995.459 5  -1390435.297 1
  20216546.274   -22610580.763 7 -16206522.861 2
 90 10 11 13 52 29.9970000  0  5 02 06 13 12 09
  21575978.790     3871087.347 6   3046101.625 1
  19809887.923    -8982062.362 7    135901.051 3
  19643023.189   -20763763.095 7 -16024164.350 2
  23521063.767    -3626461.348 4  -1435213.927 1
  20209779.728   -22646136.799 7 -16234228.885 2
 90 10 11 13 52 44.9970000  0  5 02 06 13 12 09
  21579453.110     3889341.492 6   3060325.583 1
  19811228.290    -8975014.004 7    141393.248 3
  19640011.439   -20779592.205 7 -16036498.741 2
  23510128.173    -3683924.557 5  -1479990.474 1
  20203033.001   -22681589.836 7 -16261854.653 2
 90 10 11 13 52 59.9970000  0  5 02 06 13 12 09
  21582935.056     3907638.735 6   3074583.113 1
  19812596.774    -8967827.459 7    146993.124 3
  19637024.360   -20795288.525 7 -16048729.659 2
  23499197.657    -3741380.645 5  -1524761.474 1
  20196306.853   -22716935.105 7 -16289396.444 2
 90 10 11 13 53 14.9970000  0  5 02 06 13 12 09
  21586425.329     3925978.580 6   3088873.842 1
  19813989.118    -8960503.427 7    152700.123 3
  19634062.337   -20810852.875 7 -16060857.746 1
  23488264.196    -3798829.883 5  -1569527.135 1
  20189602.759   -22752173.043 7 -16316854.599 2
 90 10 11 13 53 29.9970000  0  5 02 06 13 12 09
  21589924.118     3944364.744 6   3103200.656 1
  19815411.563    -8953038.107 7    158517.218 3
  19631126.142   -20826281.895 7 -16072880.377 2
  23477332.321    -3856268.334 5  -1614284.393 1
  20182917.774   -22787299.584 7 -16344225.957 2
 90 10 11 13 53 44.9970000  0  5 02 06 13 12 09
  21593431.829     3962799.611 6   3117565.430 1
  19816858.649    -8945429.010 7    164446.352 3
  19628216.798   -20841573.093 7 -16084795.615 2
  23466402.188    -3913693.235 5  -1659031.078 1
  20176255.064   -22822312.007 7 -16371508.384 2
 90 10 11 13 53 59.9970000  0  5 02 06 13 12 09
  21596949.103     3981281.936 6   3131967.191 1
  19818333.360    -8937677.494 7    170486.457 3
  19625333.813   -20856727.807 7 -16096604.506 2
  23455476.509    -3971105.700 4  -1703768.090 1
  20169613.837   -22857211.243 7 -16398702.619 2
 90 10 11 13 54 14.9970000  0  5 02 06 13 12 09
  21600475.493     3999810.194 6   3146404.742 1
  19819834.735    -8929784.892 7    176636.497 3
  19622475.181   -20871747.677 7 -16108308.323 2
  23444555.759    -4028506.977 5  -1748496.361 1
  20162994.563   -22891998.494 7 -16425809.589 2
 90 10 11 13 54 29.9970000  0  5 02 06 13 12 09
  21604008.142     4018373.103 6   3160869.279 1
  19821362.626    -8921762.657 7    182887.551 3
  19619640.157   -20886644.155 7 -16119915.989 2
  23433632.306    -4085908.121 5  -1793224.556 1
  20156394.048   -22926684.830 7 -16452837.927 2
 90 10 11 13 54 44.9970000  0  5 02 06 13 12 09
  21607539.189     4036938.855 6   3175336.041 1
  19822907.470    -8913642.512 7    189214.901 3
  19616822.735   -20901449.102 7 -16131452.334 2
  23422702.595    -4143340.615 5  -1837977.166 1
  20149806.774   -22961301.606 7 -16479812.062 2
 90 10 11 13 54 59.9970000  0  5 02 06 13 12 09
  21611084.212     4055561.223 6   3189846.923 1
  19824481.610    -8905370.569 7    195660.538 3
  19614033.087   -20916109.029 7 -16142875.675 2
  23411777.626    -4200750.483 5  -1882712.156 1
  20143243.314   -22995794.775 7 -16506689.878 2
 90 10 11 13 55 14.9970000  0  5 02 06 13 12 09
  21614638.126     4074232.946 6   3204396.255 1
  19826083.032    -8896954.332 7    202218.607 3
  19611268.790   -20930631.297 7 -16154191.743 2
  23400857.259    -4258144.893 5  -1927435.080 1
  20136701.384   -23030171.306 7 -16533476.812 2
 90 10 11 13 55 29.9970000  0  5 02 06 13 12 09
  21618198.564     4092953.381 6   3218983.541 1
  19827712.610    -8888394.599 7    208888.495 3
  19608532.524   -20945016.815 7 -16165401.266 2
  23389938.579    -4315524.220 5  -1972146.282 1
  20130181.634   -23064431.651 7 -16560173.207 2
 90 10 11 13 55 44.9970000  0  5 02 06 13 12 09
  21621772.501     4111724.664 6   3233610.452 1
  19829369.313    -8879688.650 7    215672.307 3
  19605821.134   -20959263.414 7 -16176502.535 2
  23379022.782    -4372885.988 5  -2016843.787 1
  20123683.587   -23098573.393 7 -16586777.191 2
 90 10 11 13 55 59.9970000  0  5 02 06 13 12 09
  21625352.157     4130541.953 6   3248273.210 1
  19831052.470    -8870842.070 7    222565.699 3
  19603136.564   -20973376.260 7 -16187499.575 2
  23368108.431    -4430234.834 5  -2061531.218 1
  20117208.642   -23132600.958 7 -16613292.200 2
 90 10 11 13 56 14.9970000  0  5 02 06 13 12 09
  21628941.860     4149403.566 6   3262970.511 1
  19832762.345    -8861856.139 7    229567.686 3
  19600475.337   -20987357.207 7 -16198393.842 2
  23357199.649    -4487572.221 5  -2106209.716 1
  20110755.509   -23166515.826 7 -16639719.399 2
 90 10 11 13 56 29.9970000  0  5 02 06 13 12 09
  21632539.868     4168309.212 6   3277702.119 1
  19834498.798    -8852731.194 7    236678.002 3
  19597840.009   -21001206.562 7 -16209185.567 1
  23346290.603    -4544898.165 5  -2150879.313 1
  20104323.048   -23200318.049 7 -16666058.815 2
 90 10 11 13 56 44.9970000  0  5 02 06 13 12 09
  21636152.735     4187298.489 6   3292498.895 1
  19836269.228    -8843427.778 7    243927.376 3
  19595237.220   -21014884.675 7 -16219843.858 2
  23335390.282    -4602172.715 5  -2195508.846 1
  20097919.774   -23233967.462 7 -16692279.161 2
 90 10 11 13 56 59.9970000  0  5 02 06 13 12 09
  21639775.899     4206336.696 6   3307333.801 1
  19838066.103    -8833980.286 7    251289.021 3
  19592660.798   -21028426.386 7 -16230395.863 2
  23324495.845    -4659430.170 5  -2240125.082 1
  20091538.899   -23267498.469 7 -16718407.242 2
 90 10 11 13 57 14.9970000  0  5 02 06 13 12 09
  21643427.993     4225524.418 6   3322285.207 1
  19839910.829    -8824288.345 7    258841.143 3
  19590128.517   -21041731.371 7 -16240763.405 2
  23313624.024    -4716569.641 5  -2284649.362 1
  20085199.626   -23300810.242 7 -16744364.492 2
 90 10 11 13 57 29.9970000  0  5 02 06 13 12 09
  21647083.189     4244736.075 6   3337255.274 1
  19841778.188    -8814477.724 7    266485.742 3
  19587618.181   -21054925.660 7 -16251044.694 2
  23302745.329    -4773716.874 5  -2329179.711 1
  20078878.688   -23334028.270 7 -16770248.697 2
 90 10 11 13 57 44.9970000  0  5 02 06 13 12 09
  21650742.415     4263963.703 6   3352237.778 1
  19843666.642    -8804556.213 7    274216.753 3
  19585126.759   -21068017.200 7 -16261245.918 2
  23291870.118    -4830879.523 5  -2373722.073 1
  20072573.142   -23367160.228 7 -16796065.830 2
 90 10 11 13 57 59.9970000  0  5 02 06 13 12 09
  21654415.759     4283264.420 6   3367277.238 1
  19845585.743    -8794466.685 7    282078.683 3
  19582666.220   -21080949.122 7 -16271322.761 1
  23280998.939    -4887999.998 5  -2418231.549 1
  20066296.751   -23400148.429 7 -16821770.948 2
 90 10 11 13 58 14.9970000  0  5 02 06 13 12 09
  21658096.978     4302604.868 6   3382347.648 1
  19847531.868    -8784242.650 7    290045.426 3
  19580229.142   -21093754.896 7 -16281301.308 2
  23270130.259    -4945111.421 5  -2462733.990 1
  20060039.735   -23433025.939 7 -16847389.812 2
 90 10 11 13 58 29.9970000  0  5 02 06 13 12 09
  21661784.126     4321984.522 6   3397448.617 1
  19849502.556    -8773884.444 7    298116.719 3
  19577815.509   -21106434.925 7 -16291181.873 2
  23259265.814    -5002213.837 5  -2507229.414 1
  20053804.751   -23465793.041 7 -16872922.646 2
 90 10 11 13 58 44.9970000  0  5 02 06 13 12 09
  21665478.939     4341406.234 6   3412582.352 1
  19851500.024    -8763389.237 7    306294.769 3
  19575427.353   -21118986.757 7 -16300962.546 2
  23248400.735    -5059304.410 5  -2551715.614 1
  20047591.259   -23498446.518 7 -16898366.938 2
 90 10 11 13 58 59.9970000  0  5 02 06 13 12 09
  21669183.478     4360874.517 6   3427752.378 1
  19853525.228    -8752752.841 7    314582.832 3
  19573064.610   -21131406.214 7 -16310640.070 1
  23237539.642    -5116378.392 5  -2596188.864 1
  20041399.571   -23530981.758 7 -16923719.099 2
 90 10 11 13 59 14.9970000  0  5 02 06 13 12 09
  21672897.056     4380377.990 6   3442949.825 1
  19855572.782    -8741986.616 7    322972.055 3
  19570723.196   -21143704.944 7 -16320223.518 1
  23226682.829    -5173447.024 5  -2640657.961 1
  20035229.274   -23563410.032 7 -16948987.906 2
 90 10 11 13 59 29.9970000  0  5 02 06 13 12 09
  21676613.501     4399918.736 6   3458176.308 1
  19857646.556    -8731088.478 7    331464.075 3
  19568407.368   -21155880.753 7 -16329711.184 2
  23215823.079    -5230507.811 5  -2685120.940 1
  20029079.657   -23595728.638 7 -16974171.263 2
 90 10 11 13 59 44.9970000  0  5 02 06 13 12 09
  21680343.407     4419516.219 6   3473447.005 1
  19859749.696    -8720038.857 7    340074.135 3
  19566116.548   -21167914.002 7 -16339087.764 2
  23204971.517    -5287540.980 5  -2729562.409 1
  20022953.970   -23627917.952 7 -16999253.871 2
 90 10 11 13 59 59.9970000  0  5 02 06 13 12 09
  21684085.188     4439181.217 6   3488770.320 1
  19861883.384    -8708826.986 7    348810.616 3
  19563855.579   -21179794.365 7 -16348345.217 1
  23194124.032    -5344535.499 5  -2773973.747 1
  20016855.970   -23659966.804 7 -17024227.030 2
 90 10 11 14  0 14.9970000  0  5 02 06 13 12 09
  21687837.829     4458896.703 6   3504132.971 1
  19864044.540    -8697470.143 7    357660.055 3
  19561620.853   -21191539.193 7 -16357497.052 1
  23183283.103    -5401508.255 5  -2818368.136 1
  20010780.603   -23691892.039 7 -17049103.860 2
 90 10 11 14  0 29.9970000  0  5 02 06 13 12 09
  21691596.603     4478658.678 6   3519531.850 1
  19866233.493    -8685972.384 7    366619.296 3
  19559410.985   -21203152.627 7 -16366546.505 1
  23172446.438    -5458462.967 5  -2862748.453 1
  20004728.446   -23723697.320 7 -17073887.223 2
 90 10 11 14  0 44.9970000  0  5 02 06 13 12 09
  21695367.149     4498461.662 6   3534962.674 1
  19868445.376    -8674339.186 7    375684.086 3
  19557224.993   -21214640.294 7 -16375497.962 2
  23161610.009    -5515404.835 5  -2907118.788 1
  19998697.595   -23755387.900 7 -17098581.203 2
 90 10 11 14  0 59.9970000  0  5 02 06 13 12 09
  21699143.353     4518305.938 6   3550425.683 1
  19870685.837    -8662570.110 7    384854.763 3
  19555063.478   -21226001.865 7 -16384351.160 1
  23150777.392    -5572333.108 5  -2951478.486 1
  19992687.782   -23786963.078 7 -17123185.264 2
 90 10 11 14  1 14.9970000  0  5 02 06 13 12 09
  21702928.626     4538197.019 6   3565925.164 1
  19872952.595    -8650659.661 7    394135.597 3
  19552926.259   -21237232.051 7 -16393101.979 1
  23139945.563    -5629242.114 5  -2995823.233 1
  19986702.626   -23818417.057 7 -17147694.883 2
 90 10 11 14  1 29.9970000  0  5 02 06 13 12 09
  21706719.110     4558125.214 6   3581453.559 1
  19875244.040    -8638617.574 7    403519.015 3
  19550811.946   -21248340.941 7 -16401758.279 1
  23129119.290    -5686141.292 5  -3040160.252 1
  19980737.774   -23849759.203 7 -17172117.360 2
 90 10 11 14  1 44.9970000  0  5 02 06 13 12 09
  21710520.353     4578100.076 6   3597018.317 1
  19877562.282    -8626434.455 7    413012.322 3
  19548723.392   -21259319.001 7 -16410312.638 1
  23118297.759    -5743020.711 5  -3084481.921 1
  19974799.267   -23880979.850 7 -17196445.163 2
 90 10 11 14  1 59.9970000  0  5 02 06 13 12 09
  21714329.821     4598118.755 6   3612617.224 1
  19879906.837    -8614113.366 7    422613.132 3
  19546657.946   -21270169.146 7 -16418767.319 1
  23107475.728    -5799883.090 5  -3128790.303 1
  19968879.689   -23912081.425 7 -17220680.183 2
 90 10 11 14  2 14.9970000  0  5 02 06 13 12 09
  21718148.517     4618187.692 6   3628255.286 1
  19882279.564    -8601647.696 7    432326.588 3
  19544618.806   -21280885.409 7 -16427117.681 1
  23096658.017    -5856721.691 5  -3173080.154 1
  19962985.642   -23943057.194 7 -17244817.170 2
 90 10 11 14  2 29.9970000  0  5 02 06 13 12 09
  21721978.563     4638310.774 6   3643935.542 1
  19884679.532    -8589033.564 7    442155.738 3
  19542606.493   -21291463.911 7 -16435360.696 1
  23085846.767    -5913532.342 5  -3217348.235 1
  19957114.735   -23973902.936 7 -17268852.840 2
 90 10 11 14  2 44.9970000  0  5 02 06 13 12 09
  21725817.618     4658479.689 6   3659651.514 1
  19887105.548    -8576279.492 7    452093.932 3
  19540618.251   -21301913.139 7 -16443502.975 1
  23075040.470    -5970323.249 5  -3261600.891 1
  19951268.649   -24004626.987 7 -17292793.677 2
 90 10 11 14  2 59.9970000  0  5 02 06 13 12 09
  21729663.134     4678692.584 6   3675401.756 1
  19889559.860    -8563387.440 7    462139.642 3
  19538654.399   -21312235.255 7 -16451546.208 2
  23064238.485    -6027095.879 5  -3305839.332 1
  19945444.485   -24035230.585 7 -17316640.664 2
 90 10 11 14  3 14.9970000  0  5 02 06 13 12 09
  21733515.610     4698933.833 6   3691174.090 1
  19892036.767    -8550372.916 7    472280.781 3
  19536710.376   -21322445.991 7 -16459502.647 1
  23053435.532    -6083865.550 5  -3350075.472 1
  19939642.032   -24065729.170 7 -17340405.818 2
 90 10 11 14  3 29.9970000  0  5 02 06 13 12 09
  21737375.884     4719226.601 6   3706986.566 1
  19894541.064    -8537212.781 7    482535.387 3
  19534792.743   -21332522.291 7 -16467354.338 1
  23042635.329    -6140608.635 5  -3394290.912 1
  19933862.626   -24096099.354 7 -17364070.924 2
 90 10 11 14  3 44.9970000  0  5 02 06 13 12 09
  21741249.024     4739578.820 6   3722845.365 1
  19897074.884    -8523899.271 7    492909.513 3
  19532902.071   -21342456.418 7 -16475095.242 1
  23031844.993    -6197317.151 5  -3438479.395 1
  19928108.876   -24126332.755 7 -17387629.440 2
 90 10 11 14  3 59.9970000  0  5 02 06 13 12 09
  21745131.110     4759979.416 6   3738741.868 1
  19899635.915    -8510443.443 7    503394.539 3
  19531037.274   -21352259.650 7 -16482734.151 1
  23021060.767    -6254001.833 5  -3482649.311 1
  19922379.524   -24156440.144 7 -17411089.769 2
 90 10 11 14  4 14.9970000  0  5 02 06 13 12 09
  21749021.728     4780422.677 6   3754671.621 1
  19902221.376    -8496851.008 7    513986.006 3
  19529195.790   -21361937.808 7 -16490275.597 1
  23010276.743    -6310668.036 5  -3526804.836 1
  19916672.907   -24186427.051 7 -17434456.216 2
 90 10 11 14  4 29.9970000  0  5 02 06 13 12 09
  21752922.993     4800915.604 6   3770640.063 1
  19904835.899    -8483115.127 7    524689.265 3
  19527379.142   -21371484.166 7 -16497714.343 1
  22999496.431    -6367308.586 5  -3570940.339 1
  19910991.892   -24216286.381 7 -17457723.251 2
 90 10 11 14  4 44.9970000  0  5 02 06 13 12 09
  21756828.212     4821454.732 6   3786644.514 1
  19907475.774    -8469239.341 7    535501.534 3
  19525587.517   -21380902.323 7 -16505053.195 1
  22988724.696    -6423926.772 5  -3615058.429 1
  19905333.579   -24246021.051 7 -17480893.150 2
 90 10 11 14  4 59.9970000  0  5 02 06 13 12 09
  21760747.962     4842041.621 6   3802686.179 1
  19910143.446    -8455222.127 7    546423.988 3
  19523819.501   -21390190.775 7 -16512290.975 2
  22977955.782    -6480520.635 5  -3659157.585 1
  19899698.829   -24275629.382 7 -17503964.602 2
 90 10 11 14  5 14.9970000  0  5 02 06 13 12 09
  21764673.415     4862668.726 6   3818759.180 1
  19912835.384    -8441070.993 7    557450.794 3
  19522075.931   -21399357.140 7 -16519433.623 1
  22967188.110    -6537097.335 5  -3703243.358 1
  19894087.720   -24305118.403 7 -17526943.088 2
 90 10 11 14  5 29.9970000  0  5 02 06 13 12 09
  21768606.095     4883336.995 6   3834864.256 1
  19915554.743    -8426785.055 7    568582.648 3
  19520354.165   -21408401.053 7 -16526480.851 2
  22956424.915    -6593655.740 5  -3747314.862 1
  19888498.126   -24334487.058 7 -17549827.779 2
 90 10 11 14  5 44.9970000  0  5 02 06 13 12 09
  21772549.962     4904050.518 6   3851004.597 1
  19918299.376    -8412360.349 7    579822.623 3
  19518657.431   -21417318.568 7 -16533429.594 2
  22945667.267    -6650191.503 5  -3791368.737 1
  19882933.978   -24363730.877 7 -17572615.197 2
 90 10 11 14  5 59.9970000  0  5 02 06 13 12 09
  21776503.392     4924819.953 6   3867188.509 1
  19921072.610    -8397786.324 7    591178.964 3
  19516985.649   -21426099.127 7 -16540271.611 1
  22934914.415    -6706693.740 5  -3835396.485 1
  19877395.134   -24392839.052 7 -17595296.919 2
 90 10 11 14  6 14.9970000  0  5 02 06 13 12 09
  21780462.759     4945637.394 6   3883409.820 1
  19923873.540    -8383071.025 7    602645.391 3
  19515339.759   -21434750.882 7 -16547013.261 1
  22924168.501    -6763170.082 5  -3879404.057 1
  19871880.407   -24421819.156 7 -17617878.844 2
 90 10 11 14  6 29.9970000  0  5 02 06 13 12 09
  21784432.056     4966491.837 6   3899659.970 1
  19926698.149    -8368225.584 7    614213.228 3
  19513716.306   -21443285.386 7 -16553663.549 1
  22913424.337    -6819631.402 5  -3923399.915 1
  19866387.282   -24450682.123 7 -17640369.497 2
 90 10 11 14  6 44.9970000  0  5 02 06 13 12 09
  21788408.376     4987393.846 6   3915947.181 1
  19929549.509    -8353239.389 7    625890.743 3
  19512116.462   -21451691.915 7 -16560214.112 2
  22902685.267    -6876066.677 5  -3967375.482 1
  19860919.095   -24479417.070 7 -17662760.385 2
 90 10 11 14  6 59.9970000  0  5 02 06 13 12 09
  21792395.524     5008355.011 6   3932280.486 1
  19932432.079    -8338100.895 7    637686.933 3
  19510542.446   -21459958.941 7 -16566655.976 1
  22891953.579    -6932463.949 5  -4011321.454 1
  19855477.392   -24508011.965 7 -17685042.147 2
 90 10 11 14  7 14.9970000  0  5 02 06 13 12 09
  21796396.485     5029367.281 6   3948653.614 1
  19935340.579    -8322818.178 7    649595.498 3
  19508994.610   -21468094.511 7 -16572995.405 2
  22881224.907    -6988830.949 5  -4055243.805 1
  19850061.915   -24536474.451 7 -17707220.732 2
 90 10 11 14  7 29.9970000  0  5 02 06 13 12 09
  21800403.462     5050421.933 6   3965059.770 1
  19938272.767    -8307399.937 7    661609.667 3
  19507470.103   -21476107.789 7 -16579239.549 1
  22870503.931    -7045176.006 5  -4099149.081 1
  19844669.501   -24564812.894 7 -17729302.663 2
 90 10 11 14  7 44.9970000  0  5 02 06 13 12 09
  21804418.251     5071527.484 6   3981505.585 1
  19941235.056    -8291837.883 7    673735.894 3
  19505970.274   -21483990.564 7 -16585382.002 2
  22859788.634    -7101490.578 5  -4143030.595 1
  19839301.337   -24593018.836 7 -17751281.346 2
 90 10 11 14  7 59.9970000  0  5 02 06 13 12 09
  21808441.462     5092664.988 6   3997976.295 1
  19944220.110    -8276151.238 7    685959.192 3
  19504491.095   -21491762.297 7 -16591437.918 1
  22849074.243    -7157793.352 5  -4186902.934 1
  19833955.821   -24621111.114 7 -17773171.456 2
 90 10 11 14  8 14.9970000  0  5 02 06 13 12 09
  21812473.259     5113853.412 6   4014486.682 1
  19947233.806    -8260320.976 7    698294.413 3
  19503036.993   -21499403.876 7 -16597392.423 2
  22838365.399    -7214065.083 5  -4230751.065 1
  19828634.134   -24649070.291 7 -17794957.856 2
 90 10 11 14  8 29.9970000  0  5 02 06 13 12 09
  21816517.079     5135094.876 6   4031038.404 1
  19950271.314    -8244345.053 7    710743.145 3
  19501607.806   -21506913.460 7 -16603244.077 1
  22827664.970    -7270303.295 5  -4274573.087 1
  19823340.595   -24676893.794 7 -17816638.534 2
 90 10 11 14  8 44.9970000  0  5 02 06 13 12 09
  21820566.189     5156384.701 6   4047627.808 1
  19953339.821    -8228228.225 7    723301.678 3
  19500202.892   -21514295.960 7 -16608996.705 1
  22816967.587    -7326512.357 5  -4318372.381 1
  19818071.728   -24704586.299 7 -17838217.135 2
 90 10 11 14  8 59.9970000  0  5 02 06 13 12 09
  21824631.798     5177757.850 6   4064282.141 1
  19956440.142    -8211935.569 7    735997.209 3
  19498828.923   -21521516.496 7 -16614623.123 2
  22806283.915    -7382657.013 5  -4362121.486 1
  19812833.696   -24732112.433 7 -17859666.100 2
 90 10 11 14  9 14.9970000  0  5 02 06 13 12 09
  21828715.251     5199198.366 6   4080988.961 1
  19959569.978    -8195483.066 7    748817.295 3
  19497482.728   -21528590.916 7 -16620135.684 1
  22795608.806    -7438752.923 5  -4405832.622 1
  19807623.767   -24759487.756 7 -17880997.547 2
 90 10 11 14  9 29.9970000  0  5 02 06 13 12 09
  21832805.423     5220693.606 6   4097738.429 1
  19962729.712    -8178883.519 7    761751.969 3
  19496162.978   -21535532.413 7 -16625544.671 1
  22784941.329    -7494812.396 5  -4449515.376 1
  19802440.462   -24786724.837 7 -17902221.272 2
 90 10 11 14  9 44.9970000  0  5 02 06 13 12 09
  21836905.188     5242243.791 6   4114530.709 1
  19965915.696    -8162136.686 7    774801.409 3
  19494866.759   -21542340.889 7 -16630850.006 2
  22774280.657    -7550834.892 5  -4493169.301 1
  19797284.329   -24813823.011 7 -17923336.761 2
 90 10 11 14  9 59.9970000  0  5 02 06 13 12 09
  21841020.118     5263862.808 6   4131376.622 1
  19969134.274    -8145228.837 7    787976.309 3
  19493598.063   -21549002.729 7 -16636041.076 2
  22763631.204    -7606806.374 5  -4536783.482 1
  19792157.923   -24840768.166 7 -17944333.011 2
 90 10 11 14 10 14.9970000  0  5 02 06 13 12 09
  21845117.337     5285405.439 6   4148163.015 1
  19972354.814    -8128305.221 7    801163.485 3
  19492331.126   -21555663.397 7 -16641231.238 2
  22752961.478    -7662871.707 5  -4580470.795 1
  19787030.751   -24867705.133 7 -17965322.878 2
 90 10 11 14 10 29.9970000  0  5 02 06 13 12 09
  21849218.938     5306955.506 6   4164955.194 1
  19975593.618    -8111282.279 7    814428.059 3
  19491080.212   -21562239.419 7 -16646355.436 2
  22742289.704    -7718946.929 5  -4624165.804 1
  19781923.063   -24894550.181 7 -17986241.128 2
 90 10 11 14 10 44.9970000  0  5 02 06 13 12 09
  21853330.673     5328547.808 6   4181780.295 1
  19978857.634    -8094125.230 7    827797.137 3
  19489851.204   -21568696.061 7 -16651386.612 2
  22731624.149    -7774996.883 5  -4667841.127 1
  19776837.751   -24921268.097 7 -18007060.311 2
 90 10 11 14 10 59.9970000  0  5 02 06 13 12 09
  21857448.665     5350200.679 6   4198652.582 1
  19982152.478    -8076816.024 7    841284.786 3
  19488648.579   -21575015.430 7 -16656310.824 2
  22720964.587    -7831002.996 5  -4711482.289 1
  19771781.790   -24947840.411 7 -18027766.034 2
 90 10 11 14 11 14.9970000  0  5 02 06 13 12 09
  21861581.157     5371917.688 6   4215574.860 1
  19985476.478    -8059350.955 7    854893.880 3
  19487473.040   -21581193.775 7 -16661125.145 1
  22710317.470    -7886961.156 6  -4755086.085 1
  19766754.134   -24974263.159 7 -18048355.215 2
 90 10 11 14 11 29.9970000  0  5 02 06 13 12 09
  21865724.306     5393694.441 6   4232543.679 1
  19988829.759    -8041734.577 7    868620.887 3
  19486322.720   -21587235.904 7 -16665833.325 2
  22699678.087    -7942875.693 5  -4798655.895 1
  19761754.431   -25000540.493 7 -18068831.083 2
 90 10 11 14 11 44.9970000  0  5 02 06 13 12 09
  21869879.790     5415512.353 6   4249544.582 1
  19992204.782    -8023985.526 7    882451.271 3
  19485195.337   -21593160.751 7 -16670450.115 1
  22689041.415    -7998764.811 5  -4842205.886 1
  19756777.868   -25026690.538 7 -18089207.769 2
 90 10 11 14 11 59.9970000  0  5 02 06 13 12 09
  21874032.274     5437357.770 6   4266566.910 1
  19995606.985    -8006117.521 7    896374.356 3
  19484088.032   -21598981.837 7 -16674986.055 2
  22678410.157    -8054641.824 5  -4885746.450 1
  19751822.579   -25052726.825 7 -18109495.813 2
 90 10 11 14 12 14.9970000  0  5 02 06 13 12 09
  21878203.181     5459257.441 6   4283631.510 1
  19999034.837    -7988104.121 7    910410.722 3
  19483005.314   -21604672.842 7 -16679420.626 2
  22667784.478    -8110479.847 5  -4929256.613 1
  19746894.595   -25078622.494 7 -18129674.277 2
 90 10 11 14 12 29.9970000  0  5 02 06 13 12 09
  21882373.532     5481193.605 6   4300724.551 1
  20002486.587    -7969962.976 7    924546.629 3
  19481944.087   -21610251.640 7 -16683767.766 2
  22657162.978    -8166296.060 6  -4972749.804 1
  19741990.017   -25104394.667 7 -18149756.525 2
 90 10 11 14 12 44.9970000  0  5 02 06 13 12 09
  21886559.095     5503168.261 6   4317847.590 1
  20005961.892    -7951692.107 7    938783.618 3
  19480903.751   -21615716.258 7 -16688025.936 2
  22646544.696    -8222087.974 5  -5016224.068 1
  19737110.493   -25130041.386 7 -18169741.006 2
 90 10 11 14 12 59.9970000  0  5 02 06 13 12 09
  21890744.892     5525177.503 6   4334997.578 1
  20009465.009    -7933295.654 7    953118.461 3
  19479885.618   -21621070.937 7 -16692198.436 2
  22635932.774    -8277859.531 5  -5059682.447 1
  19732251.915   -25155566.322 7 -18189630.596 2
 90 10 11 14 13 14.9970000  0  5 02 06 13 12 09
  21894947.337     5547256.723 6   4352202.083 1
  20012995.806    -7914738.375 7    967578.617 3
  19478893.103   -21626280.673 7 -16696257.994 2
  22625328.899    -8333575.042 5  -5103097.157 1
  19727426.907   -25180933.732 7 -18209397.433 2
 90 10 11 14 13 29.9970000  0  5 02 06 13 12 09
  21899159.681     5569391.974 6   4369450.262 1
  20016554.712    -7896034.302 7    982153.157 3
  19477927.017   -21631359.777 7 -16700215.763 2
  22614735.649    -8389248.116 5  -5146478.815 1
  19722625.946   -25206157.280 7 -18229052.174 2
 90 10 11 14 13 44.9970000  0  5 02 06 13 12 09
  21903384.931     5591584.015 6   4386742.691 1
  20020140.978    -7877182.767 7    996842.621 3
  19476985.540   -21636307.517 7 -16704071.170 2
  22604150.024    -8444877.520 5  -5189826.428 1
  19717853.728   -25231235.880 7 -18248593.964 2
 90 10 11 14 13 59.9970000  0  5 02 06 13 12 09
  21907615.056     5613820.115 6   4404069.446 1
  20023754.743    -7858196.582 7   1011637.018 3
  19476066.313   -21641136.816 7 -16707834.287 2
  22593571.696    -8500475.930 6  -5233149.893 1
  19713106.868   -25256182.235 7 -18268032.710 2
 90 10 11 14 14 14.9970000  0  5 02 06 13 12 09
  21911859.704     5636127.779 6   4421451.960 1
  20027398.376    -7839048.499 7   1026557.548 3
  19475175.314   -21645820.424 7 -16711483.877 2
  22583001.688    -8556015.488 5  -5276427.512 1
  19708389.876   -25280968.604 7 -18287346.789 2
 90 10 11 14 14 29.9970000  0  5 02 06 13 12 09
  21916115.142     5658491.794 6   4438878.396 1
  20031070.118    -7819753.826 7   1041592.305 3
  19474308.985   -21650373.852 7 -16715032.031 2
  22572440.735    -8611511.201 5  -5319670.944 1
  19703701.188   -25305609.761 7 -18306547.716 2
 90 10 11 14 14 44.9970000  0  5 02 06 13 12 09
  21920380.704     5680900.155 6   4456339.377 1
  20034767.665    -7800324.647 7   1056731.872 3
  19473465.814   -21654809.474 7 -16718488.384 2
  22561888.470    -8666974.740 5  -5362889.317 1
  19699037.517   -25330117.564 7 -18325644.727 2
 90 10 11 14 14 59.9970000  0  5 02 06 13 12 09
  21924655.313     5703353.278 6   4473835.242 1
  20038490.501    -7780760.659 7   1071976.491 3
  19472642.587   -21659126.982 7 -16721852.698 2
  22551339.228    -8722405.360 5  -5406082.031 1
  19694399.056   -25354491.412 7 -18344637.363 2
 90 10 11 14 15 14.9970000  0  5 02 06 13 12 09
  21928934.431     5725848.725 6   4491364.089 1
  20042238.392    -7761064.237 7   1087324.310 3
  19471843.353   -21663328.925 7 -16725126.964 2
  22540796.399    -8777805.012 6  -5449250.628 1
  19689786.290   -25378733.227 7 -18363527.111 2
 90 10 11 14 15 29.9970000  0  5 02 06 13 12 09
  21933224.579     5748405.752 6   4508940.915 1
  20046016.306    -7741216.487 7   1102790.044 3
  19471068.985   -21667396.243 7 -16728296.332 2
  22530263.446    -8833154.384 5  -5492380.039 1
  19685202.587   -25402823.697 7 -18382298.933 2
 90 10 11 14 15 44.9970000  0  5 02 06 13 12 09
  21937527.462     5771011.336 6   4526555.576 1
  20049819.774    -7721230.650 7   1118363.379 3
  19470319.360   -21671342.483 7 -16731371.352 2
  22519735.634    -8888466.220 5  -5535480.194 1
  19680643.884   -25426775.910 7 -18400963.020 2
 90 10 11 14 15 59.9970000  0  5 02 06 13 12 09
  21941840.423     5793676.917 6   4544216.991 1
  20053650.259    -7701095.201 7   1134053.273 3
  19469593.353   -21675156.139 7 -16734343.055 1
  22509221.845    -8943728.559 5  -5578541.780 1
  19676115.188   -25450577.775 7 -18419509.950 2
 90 10 11 14 16 14.9970000  0  5 02 06 13 12 09
  21946160.501     5816387.316 6   4561913.332 1
  20057508.587    -7680825.478 7   1149847.806 3
  19468890.259   -21678852.644 7 -16737223.476 2
  22498713.173    -8998956.410 6  -5621576.510 1
  19671611.517   -25474244.190 7 -18437951.340 2
 90 10 11 14 16 29.9970000  0  5 02 06 13 12 09
  21950494.954     5839140.722 6   4579643.180 1
  20061389.915    -7660423.324 7   1165745.540 3
  19468207.368   -21682433.949 7 -16740014.129 2
  22488210.032    -9054151.120 6  -5664585.398 1
  19667133.157   -25497776.884 7 -18456288.528 2
 90 10 11 14 16 44.9970000  0  5 02 06 13 12 09
  21954828.337     5861937.437 6   4597406.780 1
  20065298.931    -7639888.646 7   1181746.552 3
  19467548.079   -21685900.045 7 -16742715.012 1
  22477712.446    -9109312.089 6  -5707568.005 1
  19662680.876   -25521175.288 7 -18474521.075 2
 90 10 11 14 16 59.9970000  0  5 02 06 13 12 09
  21959178.282     5884781.565 6   4615207.326 1
  20069230.610    -7619217.571 7   1197853.834 3
  19466912.993   -21689247.157 7 -16745323.176 2
  22467224.048    -9164435.002 6  -5750520.948 1
  19658253.931   -25544435.056 7 -18492645.596 2
 90 10 11 14 17 14.9970000  0  5 02 06 13 12 09
  21963531.704     5907665.853 6   4633039.153 1
  20073190.298    -7598417.347 7   1214061.752 3
  19466296.157   -21692482.720 7 -16747844.422 2
  22456740.446    -9219526.880 6  -5793449.709 1
  19653852.798   -25567563.254 7 -18510667.594 2
 90 10 11 14 17 29.9970000  0  5 02 06 13 12 09
  21967892.962     5930591.016 6   4650902.841 1
  20077173.103    -7577487.619 7   1230370.578 3
  19465702.579   -21695606.183 7 -16750278.319 2
  22446261.306    -9274586.658 6  -5836353.460 1
  19649477.501   -25590558.934 7 -18528586.327 2
 90 10 11 14 17 44.9970000  0  5 02 06 13 12 09
  21972265.220     5953553.729 6   4668795.775 1
  20081178.751    -7556431.537 7   1246777.862 3
  19465130.001   -21698621.104 7 -16752627.634 2
  22435790.821    -9329617.227 6  -5879234.444 1
  19645125.095   -25613424.958 7 -18546404.036 2
 90 10 11 14 17 59.9970000  0  5 02 06 13 12 09
  21976645.603     5976562.104 6   4686724.307 1
  20085211.626    -7535241.204 7   1263289.764 3
  19464577.353   -21701519.964 7 -16754886.510 2
  22425324.126    -9384610.246 6  -5922086.191 1
  19640800.657   -25636153.262 7 -18564114.426 2
 90 10 11 14 18 14.9970000  0  5 02 06 13 12 09
  21981031.540     5999616.429 6   4704688.637 1
  20089269.556    -7513916.307 7   1279906.526 3
  19464046.899   -21704302.322 7 -16757054.612 2
  22414869.290    -9439564.937 6  -5964908.049 1
  19636502.228   -25658743.027 7 -18581716.866 2
 90 10 11 14 18 29.9970000  0  5 02 06 13 12 09
  21985429.353     6022727.387 6   4722697.090 1
  20093355.384    -7492446.351 7   1296636.317 3
  19463541.056   -21706957.856 7 -16759123.890 2
  22404421.454    -9494470.329 6  -6007691.505 1
  19632232.189   -25681183.263 7 -18599202.783 2
 90 10 11 14 18 44.9970000  0  5 02 06 13 12 09
  21989837.634     6045892.800 6   4740747.983 1
  20097469.298    -7470833.804 7   1313477.215 3
  19463060.032   -21709488.767 7 -16761096.053 2
  22393981.454    -9549328.381 6  -6050438.067 1
  19627990.274   -25703476.154 7 -18616573.895 2
 90 10 11 14 18 59.9970000  0  5 02 06 13 12 09
  21994254.431     6069112.146 6   4758840.894 1
  20101608.493    -7449079.359 7   1330428.661 3
  19462602.079   -21711896.087 7 -16762971.913 2
  22383551.392    -9604139.476 6  -6093148.044 1
  19623775.438   -25725621.953 7 -18633830.383 2
 90 10 11 14 19 14.9970000  0  5 02 06 13 12 09
  21998684.837     6092381.345 6   4776972.652 1
  20105773.587    -7427187.343 7   1347487.314 3
  19462167.485   -21714184.245 7 -16764754.922 1
  22373128.462    -9658907.396 6  -6135824.359 1
  19619587.814   -25747624.696 7 -18650975.407 2
 90 10 11 14 19 29.9970000  0  5 02 06 13 12 09
  22003119.110     6115688.262 6   4795133.806 1
  20109963.993    -7405169.662 7   1364643.893 3
  19461751.017   -21716365.381 7 -16766454.537 2
  22362711.985    -9713643.580 6  -6178475.958 1
  19615426.337   -25769495.931 7 -18668017.952 2
 90 10 11 14 19 44.9970000  0  5 02 06 13 12 09
  22007559.603     6139026.966 6   4813319.726 1
  20114177.985    -7383032.483 7   1381893.593 3
  19461355.556   -21718445.519 7 -16768075.456 2
  22352301.782    -9768353.689 6  -6221107.243 1
  19611288.798   -25791241.538 7 -18684962.602 2
 90 10 11 14 19 59.9970000  0  5 02 06 13 12 09
  22012006.282     6162404.259 6   4831535.710 1
  20118413.548    -7360769.400 7   1399241.408 3
  19460980.517   -21720418.395 7 -16769612.790 2
  22341895.853    -9823030.960 6  -6263712.944 1
  19607176.845   -25812854.355 7 -18701803.784 2
 90 10 11 14 20 14.9970000  0  5 02 06 13 12 09
  22016468.759     6185837.094 6   4849794.982 1
  20122676.259    -7338363.275 7   1416700.678 3
  19460629.626   -21722267.155 7 -16771053.411 2
  22331501.071    -9877657.775 6  -6306279.311 1
  19603091.103   -25834317.268 7 -18718528.155 2
 90 10 11 14 20 29.9970000  0  5 02 06 13 12 09
  22020936.876     6209333.333 6   4868103.651 1
  20126970.384    -7315806.659 7   1434277.212 3
  19460302.329   -21723984.252 7 -16772391.434 2
  22321119.587    -9932226.182 6  -6348800.173 1
  19599037.220   -25855622.429 7 -18735129.605 2
 90 10 11 14 20 44.9970000  0  5 02 06 13 12 09
  22025418.774     6232875.648 6   4886448.233 1
  20131287.587    -7293116.954 7   1451957.455 3
  19459996.595   -21725587.205 7 -16773640.516 2
  22310743.845    -9986753.075 6  -6391288.687 1
  19595010.735   -25876786.649 7 -18751621.226 2
 90 10 11 14 20 59.9970000  0  5 02 06 13 12 09
  22029906.751     6256468.246 6   4904831.983 1
  20135631.587    -7270290.228 7   1469744.466 3
  19459714.173   -21727072.260 7 -16774797.729 2
  22300375.282   -10041234.087 6  -6433741.451 1
  19591010.509   -25897805.778 7 -18767999.796 2
 90 10 11 14 21 14.9970000  0  5 02 06 13 12 09
  22034412.314     6280125.869 6   4923266.413 1
  20140003.329    -7247311.707 7   1487649.752 3
  19459457.290   -21728424.831 7 -16775851.708 2
  22290018.923   -10095653.979 6  -6476146.588 1
  19587040.423   -25918664.549 7 -18784253.404 2
 90 10 11 14 21 29.9970000  0  5 02 06 13 12 09
  22038915.970     6303816.974 6   4941726.923 1
  20144399.845    -7224212.899 7   1505648.760 3
  19459219.728   -21729676.513 7 -16776827.073 2
  22279668.345   -10150043.834 6  -6518528.309 1
  19583097.665   -25939394.168 7 -18800406.376 2
 90 10 11 14 21 44.9970000  0  5 02 06 13 12 09
  22043437.876     6327557.302 6   4960225.790 1
  20148821.923    -7200978.458 7   1523753.453 3
  19459004.431   -21730811.788 7 -16777711.732 2
  22269327.446   -10204387.855 6  -6560874.335 1
  19579179.188   -25959979.055 7 -18816446.577 2
 90 10 11 14 21 59.9970000  0  5 02 06 13 12 09
  22047963.665     6351343.490 6   4978760.396 1
  20153267.571    -7177611.954 7   1541961.059 3
  19458808.438   -21731834.351 7 -16778508.558 2
  22258994.556   -10258689.004 6  -6603186.946 1
  19575289.103   -25980422.186 7 -18832376.313 2
 90 10 11 14 22 14.9970000  0  5 02 06 13 12 09
  22052499.454     6375178.214 6   4997332.824 1
  20157740.095    -7154110.720 7   1560273.653 3
  19458636.337   -21732741.750 7 -16779215.653 2
  22248670.337   -10312944.299 6  -6645463.822 1
  19571426.962   -26000720.534 7 -18848193.233 2
 90 10 11 14 22 29.9970000  0  5 02 06 13 12 09
  22057041.712     6399059.502 6   5015941.523 1
  20162237.274    -7130477.044 7   1578689.459 3
  19458486.181   -21733536.540 7 -16779834.997 2
  22238353.571   -10367155.579 6  -6687706.401 1
  19567589.798   -26020876.265 7 -18863899.023 2
 90 10 11 14 22 44.9970000  0  5 02 06 13 12 09
  22061593.735     6422981.815 6   5034582.201 1
  20166759.087    -7106716.674 7   1597203.984 3
  19458353.048   -21734224.388 7 -16780371.012 2
  22228045.540   -10421327.879 6  -6729918.613 1
  19563782.407   -26040894.598 7 -18879497.753 2
 90 10 11 14 22 59.9970000  0  5 02 06 13 12 09
  22066154.040     6446950.098 6
  20171304.149    -7082824.645 7
  19458243.556   -21734800.335 7 -16780819.833 2
  22217747.103   -10475455.834 6  -6772096.266 1
  19559999.509   -26060770.097 7 -18894985.182 2
 90 10 11 14 23 14.9970000  0  5 02 06 13 12 09
  22070726.485     6470971.554 6
  20175878.274    -7058793.905 7
  19458159.024   -21735257.395 7 -16781176.012 2
  22207454.837   -10529531.926 6  -6814233.507 1
  19556247.196   -26080495.326 7 -18910355.516 2
 90 10 11 14 23 29.9970000  0  5 02 06 13 12 09
  22075308.954     6495050.116 6   5090739.053 1
  20180477.673    -7034620.693 7   1653382.518 3
  19458093.993   -21735592.031 7 -16781436.797 2
  22197174.407   -10583551.826 6  -6856326.963 1
  19552521.251   -26100066.368 7 -18925605.705 2
 90 10 11 14 23 44.9970000  0  5 02 06 13 12 09
  22079897.149     6519170.655 6   5109534.192 1
  20185102.181    -7010320.314 7   1672317.813 3
  19458051.892   -21735819.460 7
  22186903.157   -10637530.453 6  -6898388.262 1
  19548825.079   -26119497.810 7 -18940747.116 2
 90 10 11 14 23 59.9970000  0  5 02 06 13 12 09
  22084495.540     6543326.905 6   5128357.159 1
  20189749.876    -6985899.136 7   1691347.233 3
  19458025.634   -21735946.396 7
  22176638.829   -10691473.689 6  -6940421.976 1
  19545151.540   -26138795.802 7 -18955784.538 2
 90 10 11 14 24 14.9970000  0  5 02 06 13 12 09
  22089104.196     6567536.827 6   5147221.939 1
  20194423.048    -6961339.393 7   1710484.641 3
  19458023.899   -21735955.088 7
  22166385.314   -10745363.311 6  -6982413.916 1
  19541508.290   -26157942.517 7 -18970704.084 2
 90 10 11 14 24 29.9970000  0  5 02 06 13 12 09
  22093720.337     6591797.210 6   5166126.049 1
  20199121.759    -6936644.442 7   1729727.408 3
  19458045.478   -21735848.991 7
  22156138.735   -10799202.212 6  -7024366.335 1
  19537892.907   -26176940.514 7 -18985507.748 2
 90 10 11 14 24 44.9970000  0  5 02 06 13 12 09
  22098342.337     6616094.645 6   5185059.025 1
  20203844.743    -6911828.048 7   1749064.812 3
  19458085.985   -21735641.814 7
  22145900.321   -10853003.685 6  -7066289.586 1
  19534304.157   -26195803.371 7 -19000206.104 2
 90 10 11 14 24 59.9970000  0  5 02 06 13 12 09
  22102978.228     6640438.508 6   5204028.167 1
  20208591.720    -6886880.889 7   1768504.106 3
  19458143.954   -21735324.228 7
  22135670.993   -10906757.803 6  -7108175.941 1
  19530742.376   -26214521.355 7 -19014791.570 2
 90 10 11 14 25 14.9970000  0  5 02 06 13 12 09
  22107616.954     6664826.637 6   5223031.822 1
  20213364.954    -6861805.269 7   1788043.495 3
  19458227.751   -21734898.803 7        -0.32612
  22125450.970   -10960466.286 6  -7150026.732 1
  19527206.251   -26233096.254 7 -19029265.542 2
 90 10 11 14 25 29.9970000  0  5 02 06 13 12 09
  22112270.509     6689269.526 6   5242078.141 1
  20218161.821    -6836590.718 7   1807691.141 3
  19458328.962   -21734355.203 7       423.229 2
  22115241.595   -11014118.327 6  -7191833.547 1
  19523702.110   -26251517.565 7 -19043619.838 2
 90 10 11 14 25 44.9970000  0  5 02 06 13 12 09
  22116930.993     6713767.740 6   5261167.572 1
  20222987.071    -6811237.098 7   1827447.159 3
  19458455.579   -21733693.169 7       939.070 2
  22105043.181   -11067713.144 6  -7233595.754 1
  19520226.579   -26269784.306 7 -19057853.692 2
 90 10 11 14 25 59.9970000  0  5 02 06 13 12 09
  22121603.907     6738311.460 6   5280292.455 1
  20227836.118    -6785754.288 7   1847303.840 3
  19458602.048   -21732922.946 7      1539.214 2
  22094854.454   -11121260.165 6  -7275320.737 1
  19516777.618   -26287906.513 7 -19071974.914 2
 90 10 11 14 26 14.9970000  0  5 02 06 13 12 09
  22126279.415     6762894.025 6   5299447.612 1
  20232708.907    -6760149.110 7   1867255.869 3
  19458767.649   -21732051.363 7      2218.346 2
  22084672.157   -11174765.733 6  -7317013.417 1
  19513353.954   -26305890.220 7 -19085988.219 2
 90 10 11 14 26 29.9970000  0  5 02 06 13 12 09
  22130964.462     6787523.013 6   5318638.940 1
  20237606.001    -6734414.066 7   1887309.095 3
  19458953.876   -21731070.954 7      2982.267 2
  22074499.142   -11228221.825 6  -7358667.543 1
  19509960.923   -26323727.702 7 -19099887.582 2
 90 10 11 14 26 44.9970000  0  5 02 06 13 12 09
  22135665.829     6812212.888 6   5337877.711 1
  20242531.071    -6708535.019 7   1907474.525 3
  19459163.485   -21729967.437 7      3842.124 2
  22064338.235   -11281613.701 6  -7400271.619 1
  19506598.235   -26341404.413 7 -19113661.671 2
 90 10 11 14 26 59.9970000  0  5 02 06 13 12 09
  22140373.798     6836957.930 6   5357159.468 1
  20247480.767    -6682517.912 7   1927747.535 3
  19459396.892   -21728746.855 7      4793.202 2
  22054190.110   -11334946.950 6  -7441830.020 1
  19503262.853   -26358925.900 7 -19127314.805 2
 90 10 11 14 27 14.9970000  0  5 02 06 13 12 09
  22145091.696     6861749.131 6   5376477.194 1
  20252456.321    -6656371.868 7   1948121.009 3
  19459649.274   -21727418.624 7      5828.154 2
  22044050.431   -11388230.165 6  -7483349.437 1
  19499956.735   -26376301.066 7 -19140853.920 2
 90 10 11 14 27 29.9970000  0  5 02 06 13 12 09
  22149820.259     6886598.830 6   5395840.503 1
  20257459.251    -6630084.780 7   1968604.396 2
  19459924.931   -21725970.819 7      6956.282 2
  22033924.040   -11441450.704 6  -7524820.011 1
  19496679.970   -26393517.189 7 -19154269.109 2
 90 10 11 14 27 44.9970000  0  5 02 06 13 12 09
  22154558.798     6911490.929 6   5415236.839 1
  20262485.478    -6603672.713 7   1989185.176 3
  19460220.329   -21724419.687 7      8164.929 2
  22023804.946   -11494624.172 6  -7566253.902 1
  19493431.071   -26410590.266 7 -19167572.828 2
 90 10 11 14 27 59.9970000  0  5 02 06 13 12 09
  22159304.056     6936428.305 6   5434668.466 1
  20267535.087    -6577133.218 7   2009865.235 2
  19460535.165   -21722762.524 7      9456.193 2
  22013695.993   -11547747.492 6  -7607648.725 1
  19490210.735   -26427517.219 7 -19180762.689 2
 90 10 11 14 28 14.9970000  0  5 02 06 13 12 09
  22164058.681     6961415.790 6   5454139.131 1
  20272611.345    -6550461.270 7   2030648.515 3
  19460872.524   -21720994.592 7     10833.773 2
  22003596.720   -11600815.092 6  -7649000.125 1
  19487018.063   -26444292.752 7 -19193834.560 2
 90 10 11 14 28 29.9970000  0  5 02 06 13 12 09
  22168824.243     6986457.809 6   5473652.298 1
  20277712.962    -6523652.727 7   2051538.230 3
  19461230.095   -21719111.683 7     12300.942 2
  21993511.329   -11653822.299 6  -7690304.473 1
  19483855.181   -26460912.380 7 -19206784.946 2
 90 10 11 14 28 44.9970000  0  5 02 06 13 12 09
  22173599.579     7011562.787 6   5493214.519 1
  20282841.063    -6496699.585 7   2072540.617 2
  19461613.142   -21717105.623 7     13864.080 2
  21983435.321   -11706760.493 6  -7731555.041 1
  19480723.868   -26477367.540 7 -19219607.180 2
 90 10 11 14 28 59.9970000  0  5 02 06 13 12 09
  22178391.071     7036741.751 6   5512834.399 1
  20288002.110    -6469591.033 7   2093664.092 2
  19462020.243   -21714965.896 7     15531.371 2
  21973377.665   -11759618.458 6  -7772743.091 1
  19477626.728   -26493647.148 7 -19232292.612 2
 90 10 11 14 29 14.9970000  0  5 02 06 13 12 09
  22183196.149     7061979.339 6   5532499.953 1
  20293186.360    -6442342.457 7   2114896.674 2
  19462449.071   -21712708.223 7     17290.564 2
  21963331.978   -11812411.111 6  -7813880.253 1
  19474558.743   -26509766.357 7 -19244853.066 2
 90 10 11 14 29 29.9970000  0  5 02 06 13 12 09
  22188002.759     7087240.250 6   5552183.674 1
  20298390.946    -6414989.419 7   2136210.661 2
  19462893.876   -21710368.023 7     19114.064 2
  21953292.657   -11865173.463 6  -7854993.798 1
  19471514.962   -26525759.866 7 -19257315.565 2
 90 10 11 14 29 44.9970000  0  5 02 06 13 12 09
  22192811.938     7112520.548 6   5571882.514 1
  20303615.212    -6387535.979 7   2157602.883 3
  19463354.181   -21707949.369 7     20998.703 2
  21943257.259   -11917909.045 6  -7896086.490 1
  19468495.532   -26541632.049 7 -19269683.528 2
 90 10 11 14 29 59.9970000  0  5 02 06 13 12 09
  22197634.681     7137856.959 6   5591625.062 1
  20308866.188    -6359945.726 7   2179101.710 3
  19463835.665   -21705416.050 7     22972.684 2
  21933233.524   -11970580.977 6  -7937129.578 1
  19465505.454   -26557345.691 7 -19281927.952 2
 90 10 11 14 30 14.9970000  0  5 02 06 13 12 09
  22202465.595     7163258.282 6   5611418.202 1
  20314144.235    -6332209.940 7   2200713.943 3
  19464341.556   -21702759.311 7     25042.841 2
  21923224.540   -12023180.039 6  -7978115.885 1
  19462547.446   -26572891.756 7 -19294041.800 1
 90 10 11 14 30 29.9970000  0  5 02 06 13 12 09
  22207314.626     7188729.433 6   5631265.751 1
  20319449.728    -6304323.864 7   2222443.289 2
  19464873.556   -21699974.417 7     27212.854 2
  21913229.478   -12075700.879 6  -8019041.248 1
  19459621.064   -26588265.229 7 -19306021.155 2
 90 10 11 14 30 44.9970000  0  5 02 06 13 12 09
  22212173.642     7214262.979 6   5651161.927 1
  20324784.384    -6276295.212 7   2244283.741 2
  19465425.634   -21697069.355 7     29476.510 2
  21903248.439   -12128150.699 6  -8059911.275 1
  19456727.540   -26603473.361 7 -19317871.681 1
 90 10 11 14 30 59.9970000  0  5 02 06 13 12 09
  22217037.524     7239828.294 6   5671082.837 1
  20330138.587    -6248154.754 7   2266211.302 3
  19465993.931   -21694074.817 7     31809.888 2
  21893275.454   -12180559.666 6  -8100749.449 1
  19453859.345   -26618546.624 7 -19329617.110 1
 90 10 11 14 31 14.9970000  0  5 02 06 13 12 09
  22221903.462     7265394.371 6   5691004.359 1
  20335508.603    -6219933.637 7   2288201.715 2
  19466574.939   -21691022.063 7     34188.626 2
  21883304.149   -12232958.360 6  -8141579.626 1
  19451011.907   -26633515.688 7 -19341281.342 2
 90 10 11 14 31 29.9970000  0  5 02 06 13 12 09
  22226778.048     7290999.625 6   5710956.401 1
  20340901.024    -6191593.633 7   2310284.776 2
  19467175.282   -21687873.056 7     36642.370 2
  21873343.024   -12285308.151 6  -8182371.699 1
  19448188.204   -26648342.081 7 -19352834.406 2
 90 10 11 14 31 44.9970000  0  5 02 06 13 12 09
  22231659.946     7316652.156 6   5730945.279 1
  20346318.978    -6163126.962 7   2332466.542 3
  19467794.321   -21684619.803 7     39177.347 2
  21863392.212   -12337600.606 6  -8223119.101 1
  19445397.079   -26663017.435 7 -19364269.776 2
 90 10 11 14 31 59.9970000  0  5 02 06 13 12 09
  22236550.954     7342351.127 6   5750970.338 1
  20351760.251    -6134534.607 7   2354746.243 3
  19468432.282   -21681263.515 7     41792.605 1
  21853451.821   -12389836.247 6  -8263822.219 1
  19442633.087   -26677542.476 7 -19375588.017 2
 90 10 11 14 32 14.9970000  0  5 02 06 13 12 09
  22241445.399     7368092.107 6   5771028.143 1
  20357224.829    -6105820.984 7   2377120.430 3
  19469090.079   -21677808.697 7     44484.645 2
  21843522.485   -12442018.896 6  -8304484.041 1
  19439896.642   -26691921.324 7 -19386792.341 1
 90 10 11 14 32 29.9970000  0  5 02 06 13 12 09
  22246358.126     7393892.595 6   5791132.312 1
  20362714.431    -6076969.203 7   2399602.264 2
  19469769.626   -21674238.358 7     47266.702 2
  21833606.564   -12494131.026 6  -8345090.920 1
  19437192.439   -26706136.511 7 -19397869.136 1
 90 10 11 14 32 44.9970000  0  5 02 06 13 12 09
  22251275.274     7419747.987 6   5811279.253 1
  20368230.337    -6047983.909 7   2422188.143 3
  19470470.939   -21670557.329 7     50135.005 2
  21823701.720   -12546176.902 6  -8385646.176 1
  19434516.243   -26720192.510 7 -19408821.894 2
 90 10 11 14 32 59.9970000  0  5 02 06 13 12 09
  22256205.282     7445645.222 6   5831458.809 1
  20373768.704    -6018878.218 7   2444867.847 3
  19471189.228   -21666778.941 7     53079.179 2
  21813807.704   -12598169.086 6  -8426159.593 1
  19431869.915   -26734102.126 7 -19419660.580 2
 90 10 11 14 33 14.9970000  0  5 02 06 13 12 09
  22261144.188     7471593.283 6   5851677.970 1
  20379331.813    -5989643.531 7   2467648.060 2
  19471928.571   -21662894.436 7     56106.034 2
  21803926.345   -12650098.177 6  -8466623.833 1
  19429251.884   -26747856.198 7 -19430378.069 2
 90 10 11 14 33 29.9970000  0  5 02 06 13 12 09
  22266090.368     7497593.123 5   5871937.471 1
  20384919.806    -5960278.965 7   2490529.473 2
  19472688.071   -21658903.159 7     59216.097 2
  21794055.985   -12701962.870 6  -8507037.899 1
  19426665.110   -26761453.497 7 -19440973.391 1
 90 10 11 14 33 44.9970000  0  5 02 06 13 12 09
  22271047.798     7523640.199 6   5892233.772 1
  20390532.532    -5930789.255 7   2513508.399 3
  19473465.915   -21654809.550 7     62405.891 2
  21784198.774   -12753767.346 6  -8547405.050 1
  19424107.001   -26774898.349 7 -19451449.927 2
 90 10 11 14 33 59.9970000  0  5 02 06 13 12 09
  22276013.235     7549731.742 6   5912564.731 1
  20396168.603    -5901177.508 7   2536582.410 2
  19474265.024   -21650616.775 7     65672.964 2
  21774350.860   -12805514.053 6  -8587727.183 1
  19421575.407   -26788193.433 7 -19461809.763 1
 90 10 11 14 34 14.9970000  0  5 02 06 13 12 09
  22280989.064     7575868.998 6   5932931.303 1
  20401824.696    -5871442.637 7   2559752.375 2
  19475081.595   -21646324.095 7     69017.878 2
  21764515.548   -12857201.451 6  -8628003.096 1
  19419075.642   -26801337.464 7 -19472051.890 1
 90 10 11 14 34 29.9970000  0  5 02 06 13 12 09
  22285974.657     7602076.099 6   5953352.305 1
  20407511.720    -5841560.821 7   2583036.836 2
  19475921.884   -21641907.566 7     72459.298 2
  21754695.313   -12908805.231 6  -8668213.858 1
  19416607.259   -26814306.294 7 -19482157.498 1
 90 10 11 14 34 44.9970000  0  5 02 06 13 12 09
  22290971.048     7628345.818 6   5973822.091 1
  20413225.087    -5811539.301 7   2606430.153 3
  19476785.337   -21637374.806 7     75991.290 2
  21744890.923   -12960332.082 6  -8708364.671 1
  19414171.181   -26827106.763 7 -19492131.917 1
 90 10 11 14 34 59.9970000  0  5 02 06 13 12 09
  22295982.860     7654668.986 6   5994333.539 1
  20418962.774    -5781387.510 7   2629924.976 2
  19477667.712   -21632735.164 7     79606.566 2
  21735098.774   -13011790.721 6  -8748462.330 1
  19411765.610   -26839747.839 7 -19501982.136 1
 90 10 11 14 35 14.9970000  0  5 02 06 13 12 09
  22301006.267     7681075.225 6   6014909.713 1
  20424730.579    -5751076.003 7   2653544.250 2
  19478576.189   -21627959.057 7     83328.176 2
  21725324.048   -13063151.236 6  -8788483.531 1
  19409396.657   -26852199.746 7 -19511684.947 1
 90 10 11 14 35 29.9970000  0  5 02 06 13 12 09
  22306035.509     7707501.150 6   6035501.216 1
  20430516.673    -5720668.302 7   2677238.482 2
  19479499.228   -21623110.110 7     87106.545 2
  21715557.868   -13114476.580 6  -8828477.331 1
  19407050.845   -26864525.701 7 -19521289.620 2
 90 10 11 14 35 44.9970000  0  5 02 06 13 12 09
  22311070.290     7733954.259 6   6056113.904 1
  20436322.657    -5690157.302 7   2701013.226 2
  19480436.173   -21618181.510 7     90946.983 2
  21705799.032   -13165759.071 6  -8868437.735 1
  19404731.571   -26876718.025 7 -19530790.156 1
 90 10 11 14 35 59.9970000  0  5 02 06 13 12 09
  22316109.759     7760447.518 5   6076757.883 1
  20442152.181    -5659530.158 7   2724878.472 2
  19481392.618   -21613160.313 7     94859.577 2
  21696051.501   -13216985.311 6  -8908354.305 1
  19402438.548   -26888763.742 7 -19540176.459 1
 90 10 11 14 36 14.9970000  0  5 02 06 13 12 09
  22321159.657     7786989.140 5   6097439.540 1
  20448003.821    -5628778.890 7   2748840.434 2
  19482367.868   -21608038.663 7     98850.446 2
  21686313.938   -13268146.787 6  -8948220.414 1
  19400176.626   -26900654.356 7 -19549441.900 1
 90 10 11 14 36 29.9970000  0  5 02 06 13 12 09
  22326229.751     7813613.487 6   6118185.674 1
  20453884.220    -5597869.431 7   2772925.646 2
  19483367.548   -21602782.572 7    102946.069 1
  21676598.548   -13319208.787 6  -8988009.008 1
  19397949.962   -26912355.508 7 -19558559.710 1
 90 10 11 14 36 44.9970000  0  5 02 06 13 12 09
  22331303.673     7840286.949 5   6138970.069 1
  20459789.813    -5566835.545 7   2797107.816 2
  19484387.454   -21597425.502 7    107120.383 2
  21666894.649   -13370204.495 6  -9027745.948 1
  19395752.548   -26923900.473 7 -19567555.815 2
 90 10 11 14 36 59.9970000  0  5 02 06 13 12 09
  22336392.939     7867017.631 6   6159799.052 1
  20465721.954    -5535669.214 7   2821393.198 2
  19485427.415   -21591959.603 7    111379.496 2
  21657204.595   -13421125.460 6  -9067424.646 1
  19393587.649   -26935281.048 7 -19576423.822 2
 90 10 11 14 37 14.9970000  0  5 02 06 13 12 09
  22341483.688     7893784.416 5   6180656.171 1
  20471673.501    -5504391.906 7   2845765.056 2
  19486483.032   -21586406.813 7    115706.312 1
  21647525.157   -13471992.468 6  -9107061.291 1
  19391448.431   -26946518.246 7 -19585180.112 1
 90 10 11 14 37 29.9970000  0  5 02 06 13 12 09
  22346587.368     7920606.688 5   6201556.513 1
  20477649.579    -5472984.373 7   2870238.392 2
  19487560.579   -21580747.802 7    120115.896 2
  21637859.399   -13522785.839 6  -9146640.571 1
  19389341.485   -26957592.516 7 -19593809.438 1
 90 10 11 14 37 44.9970000  0  5 02 06 13 12 09
  22351701.642     7947467.643 5   6222487.004 1
  20483648.517    -5441463.755 7   2894799.852 2
  19488655.649   -21574999.495 7    124595.068 1
  21628204.251   -13573522.050 6  -9186175.311 1
  19387262.032   -26968520.424 7 -19602324.723 1
 90 10 11 14 37 59.9970000  0  5 02 06 13 12 09
  22356829.493     7974404.617 5   6243476.725 1
  20489675.298    -5409792.770 7   2919478.473 2
  19489773.165   -21569124.713 7    129172.791 2
  21618567.556   -13624163.229 6  -9225635.986 1
  19385217.532   -26979264.464 7 -19610696.730 1
 90 10 11 14 38 14.9970000  0  5 02 06 13 12 09
  22361960.017     8001378.166 5   6264494.943 1
  20495722.915    -5378011.093 7   2944243.351 2
  19490907.048   -21563163.477 7    133817.880 2
  21608941.579   -13674748.455 6  -9265053.060 1
  19383200.142   -26989864.015 7 -19618956.149 2
 90 10 11 14 38 29.9970000  0  5 02 06 13 12 09
  22367105.673     8028414.100 5   6285561.777 1
  20501797.220    -5346093.267 7   2969114.312 2
  19492062.181   -21557090.241 7    138550.237 2
  21599331.376   -13725251.683 6  -9304406.255 1
  19381216.337   -27000293.350 7 -19627082.932 1
 90 10 11 14 38 44.9970000  0  5 02 06 13 12 09
  22372254.282     8055484.861 5   6306655.744 1
  20507891.274    -5314067.152 7   2994069.659 2
  19493235.556   -21550932.825 7    143348.194 2
  21589732.235   -13775700.203 6  -9343716.807 1
  19379258.251   -27010579.636 7 -19635098.250 1
 90 10 11 14 38 59.9970000  0  5 02 06 13 12 09
  22377416.767     8082607.467 5   6327790.108 1
  20514009.228    -5281915.923 7   3019122.490 2
  19494426.337   -21544674.229 7    148224.991 1
  21580145.196   -13826076.590 6  -9382971.160 1
  19377331.337   -27020705.764 7 -19642988.767 1
 90 10 11 14 39 14.9970000  0  5 02 06 13 12 09
  22382593.868     8109803.407 5   6348981.625 1
  20520155.649    -5249618.110 7   3044289.549 2
  19495640.603   -21538293.233 7    153197.161 2
  21570577.579   -13876358.964 6  -9422152.253 1
  19375440.329   -27030650.167 7 -19650737.687 1
 90 10 11 14 39 29.9970000  0  5 02 06 13 12 09
  22387778.157     8137045.935 5   6370209.426 1
  20526324.259    -5217201.056 7   3069549.516 2
  19496872.665   -21531817.161 7    158243.418 2
  21561020.548   -13926573.808 6  -9461280.725 1
  19373575.915   -27040439.617 7 -19658365.859 1
 90 10 11 14 39 44.9960000  0  5 02 06 13 12 09
  22392969.824     8164341.515 5   6391478.576 1
  20532516.418    -5184658.713 7   3094907.110 2
  19498123.527   -21525238.263 7    163369.803 1
  21551480.793   -13976708.882 6  -9500347.040 1
  19371744.731   -27050064.716 7 -19665865.966 1
 90 10 11 14 39 59.9960000  0  5 02 06 13 12 09
  22398174.840     8191687.658 5   6412787.116 1
  20538733.613    -5151992.988 7   3120360.838 2
  19499394.965   -21518561.880 7    168572.146 2
  21541953.848   -14026776.713 6  -9539360.956 1
  19369941.981   -27059532.989 7 -19673243.870 1
 90 10 11 14 40 14.9960000  0  5 02 06 13 12 09
  22403388.832     8219097.722 5   6434145.455 1
  20544974.574    -5119191.005 7   3145920.754 2
  19500685.895   -21511773.775 7    173861.545 2
  21532442.402   -14076758.281 6  -9578307.656 1
  19368174.574   -27068828.245 7 -19680486.958 1
 90 10 11 14 40 29.9960000  0  5 02 06 13 12 09
  22408618.246     8246564.415 5   6455547.914 1
  20551242.707    -5086260.321 7   3171580.955 2
  19501998.152   -21504881.389 7    179232.203 2
  21522946.020   -14126660.430 6  -9617192.468 1
  19366436.434   -27077957.414 7 -19687600.623 1
 90 10 11 14 40 44.9960000  0  5 02 06 13 12 09
  22413854.887     8274079.360 5   6476987.959 1
  20557531.676    -5053209.506 7   3197334.767 2
  19503328.793   -21497893.560 7    184677.231 2
  21513464.027   -14176491.377 6  -9656021.803 1
  19364729.621   -27086929.096 7 -19694591.573 1
 90 10 11 14 40 59.9960000  0  5 02 06 13 12 09
  22419096.582     8301634.118 5   6498459.042 1
  20563842.074    -5020047.522 7   3223175.195 2
  19504673.809   -21490818.991 7    190189.845 2
  21503993.746   -14226259.348 6  -9694802.058 1
  19363050.699   -27095751.838 7 -19701466.468 1
 90 10 11 14 41 14.9960000  0  5 02 06 13 12 09
  22424351.027     8329237.024 5   6519967.657 1
  20570175.160    -4986766.306 7   3249108.530 2
  19506039.035   -21483649.608 7    195776.344 2
  21494536.066   -14275955.734 6  -9733526.542 1
  19361401.723   -27104416.995 7 -19708218.567 1
 90 10 11 14 41 29.9960000  0  5 02 06 13 12 09
  22429608.379     8356862.511 5   6541493.857 1
  20576525.809    -4953391.317 7   3275114.936 2
  19507416.043   -21476411.213 7    201416.621 2
  21485087.715   -14325605.418 6  -9772214.629 1
  19359777.207   -27112949.954 7 -19714867.659 1
 90 10 11 14 41 44.9960000  0  5 02 06 13 12 09
  22434870.020     8384523.007 5   6563047.325 1
  20582897.699    -4919910.462 7   3301203.839 2
  19508808.777   -21469091.667 7    207120.129 2
  21475651.254   -14375195.707 6  -9810856.436 1
  19358181.762   -27121338.081 7 -19721403.891 1
 90 10 11 14 41 59.9960000  0  5 02 06 13 12 09
  22440140.488     8412209.137 5   6584620.764 1
  20589288.215    -4886333.374 7   3327367.728 2
  19510215.207   -21461700.243 7    212879.648 2
  21466223.434   -14424735.533 6  -9849458.913 1
  19356611.973   -27129590.596 7 -19727834.450 1
 90 10 11 14 42 14.9960000  0  5 02 06 13 12 09
  22445415.738     8439940.086 5   6606229.143 1
  20595698.121    -4852640.919 7   3353621.509 2
  19511639.168   -21454218.216 7    218709.768 2
  21456810.918   -14474205.315 6  -9888006.823 1
  19355071.457   -27137688.213 7 -19734144.312 1
 90 10 11 14 42 29.9960000  0  5 02 06 13 12 09
  22450706.004     8467729.090 5   6627882.755 1
  20602134.246    -4818820.318 7   3379975.148 2
  19513082.684   -21446632.772 7    224620.471 2
  21447413.262   -14523591.527 6  -9926489.605 1
  19353562.090   -27145617.571 7 -19740323.066 1
 90 10 11 14 42 44.9960000  0  5 02 06 13 12 09
  22456005.863     8495579.243 5   6649584.024 1
  20608595.035    -4784868.748 7   3406430.842 2
  19514546.074   -21438941.138 7    230613.920 2
  21438032.113   -14572890.872 6  -9964904.700 1
  19352085.637   -27153375.719 7 -19746368.401 1
 90 10 11 14 42 59.9960000  0  5 02 06 13 12 09
  22461317.285     8523492.535 5   6671334.503 1
  20615082.691    -4750784.499 7   3432989.930 2
  19516030.684   -21431141.389 7    236691.616 2
  21428666.410   -14622100.953 6 -10003250.243 1
  19350642.426   -27160960.358 7 -19752278.546 1
 90 10 11 14 43 14.9960000  0  5 02 06 13 12 09
  22466639.027     8551460.725 5   6693127.750 1
  20621591.723    -4716575.947 7   3459645.867 2
  19517534.051   -21423242.115 7    242846.865 2
  21419317.606   -14671229.537 6 -10041532.273 1
  19349230.957   -27168379.593 7 -19758059.794 1
 90 10 11 14 43 29.9960000  0  5 02 06 13 12 09
  22471970.051     8579479.447 5   6714960.371 1
  20628124.606    -4682247.687 7   3486395.081 2
  19519054.301   -21415248.066 7    249075.962 2
  21409984.082   -14720280.473 6 -10079753.803 1
  19347849.762   -27175637.773 7 -19763715.552 1
 90 10 11 14 43 44.9960000  0  5 02 06 13 12 09
  22477309.762     8607540.491 5   6736825.973 1
  20634678.645    -4647808.127 7   3513231.015 2
  19520592.848   -21407167.299 7    255372.633 1
  21400664.020   -14769261.648 6 -10117920.973 1
  19346497.465   -27182742.866 7 -19769252.020 1
 90 10 11 14 43 59.9960000  0  5 02 06 13 12 09
  22482658.676     8635643.444 5   6758724.235 1
  20641252.582    -4613257.962 7   3540153.140 2
  19522147.762   -21399000.682 7    261736.204 2
  21391355.348   -14818173.212 6 -10156033.907 1
  19345173.902   -27189695.141 7 -19774669.406 1
 90 10 11 14 44 14.9960000  0  5 02 06 13 12 09
  22488016.684     8663800.630 5   6780664.762 1
  20647849.957    -4578585.066 7   3567170.893 2
  19523719.918   -21390736.409 7    268175.868 2
  21382064.395   -14867002.474 6 -10194082.701 1
  19343882.301   -27196482.253 7 -19779958.091 1
 90 10 11 14 44 29.9960000  0  5 02 06 13 12 09
  22493389.027     8692026.362 5   6802658.701 1
  20654474.481    -4543775.435 7   3594295.195 2
  19525313.613   -21382360.154 7    274702.788 2
  21372791.207   -14915734.816 6 -10232055.973 1
  19342625.176   -27203089.845 7 -19785106.897 1
 90 10 11 14 44 44.9960000  0  5 02 06 13 12 09
  22498768.598     8720301.845 5   6824691.415 1
  20661120.223    -4508848.015 6   3621511.280 2
  19526925.199   -21373891.043 7    281302.067 2
  21363531.777   -14964388.544 6 -10269967.993 1
  19341399.004   -27209536.425 7 -19790130.239 1
 90 10 11 14 44 59.9960000  0  5 02 06 13 12 09
  22504159.535     8748623.363 5   6846759.988 1
  20667787.934    -4473806.915 6   3648815.947 2
  19528553.856   -21365333.201 7    287970.485 2
  21354287.856   -15012967.196 6 -10307821.506 1
  19340201.184   -27215825.811 7 -19795031.088 1
 90 10 11 14 45 14.9960000  0  5 02 06 13 12 09
  22509552.559     8776972.940 5   6868850.436 1
  20674475.098    -4438670.495 6   3676194.888 2
  19530195.926   -21356705.053 7    294693.688 2
  21345053.934   -15061488.480 6 -10345630.324 1
  19339031.324   -27221976.076 7 -19799823.531 1
 90 10 11 14 45 29.9960000  0  5 02 06 13 12 09
  22514955.090     8805356.040 5   6890966.975 1
  20681180.613    -4403433.266 6   3703652.384 2
  19531852.152   -21348000.929 7    301476.092 2
  21335833.168   -15109946.247 6 -10383389.643 1
  19337888.551   -27227981.201 7 -19804502.879 1
 90 10 11 14 45 44.9960000  0  5 02 06 13 12 09
  22520362.402     8833780.164 5   6913115.502 1
  20687907.590    -4368087.856 6   3731194.165 2
  19533523.871   -21339213.793 7    308323.184 2
  21326625.129   -15158332.738 6 -10421093.425 1
  19336775.879   -27233833.551 7 -19809063.188 1
 90 10 11 14 45 59.9960000  0  5 02 06 13 12 09
  22525782.074     8862253.465 5   6935302.345 1
  20694655.105    -4332626.445 6   3758826.346 2
  19535213.957   -21330335.723 7    315241.122 2
  21317434.059   -15206639.322 6 -10458734.939 1
  19335692.777   -27239524.901 7 -19813498.035 1
 90 10 11 14 46 14.9960000  0  5 02 06 13 12 09
  22531209.934     8890778.292 5   6957529.348 1
  20701427.035    -4297047.038 6   3786550.464 2
  19536921.051   -21321364.674 7    322231.519 2
  21308256.777   -15254863.328 6 -10496312.111 1
  19334639.832   -27245053.084 7 -19817805.745 1
 90 10 11 14 46 29.9960000  0  5 02 06 13 12 09
  22536644.723     8919340.254 5   6979785.268 1
  20708216.332    -4261364.226 6   3814355.165 2
  19538643.231   -21312315.312 7    329282.938 2
  21299092.434   -15303018.937 6 -10533835.978 1
  19333616.473   -27250432.195 7 -19821997.293 1
 90 10 11 14 46 44.9960000  0  5 02 06 13 12 09
  22542091.715     8947948.486 5   7002077.263 1
  20715028.738    -4225569.272 6   3842247.246 2
  19540381.949   -21303178.863 7    336402.215 2
  21289943.629   -15351096.566 6 -10571299.091 1
  19332623.668   -27255653.141 7 -19826065.596 1
 90 10 11 14 46 59.9960000  0  5 02 06 13 12 09
  22547542.637     8976609.358 5   7024410.235 1
  20721862.152    -4189655.963 6   3870231.561 2
  19542137.926   -21293949.479 7    343593.910 2
  21280810.520   -15399089.357 6 -10608696.089 2
  19331661.004   -27260709.445 7 -19830005.605 1
 90 10 11 14 47 14.9960000  0  5 02 06 13 12 09
  22553009.238     9005326.135 5   7046786.804 1
  20728718.762    -4153621.368 6   3898310.394 2
  19543912.809   -21284624.016 7    350860.480 2
  21271694.926   -15446993.839 6 -10646024.275 1
  19330730.934   -27265597.793 7 -19833814.740 1
 90 10 11 14 47 29.9960000  0  5 02 06 13 12 09
  22558484.879     9034096.444 5   7069205.069 1
  20735599.027    -4117467.945 6   3926481.812 2
  19545704.668   -21275204.697 7    358200.183 2
  21262596.395   -15494811.792 6 -10683285.029 1
  19329831.551   -27270320.319 7 -19837494.653 1
 90 10 11 14 47 44.9960000  0  5 02 06 13 12 09
  22563967.754     9062911.558 5   7091658.260 1
  20742499.457    -4081204.664 6   3954738.826 2
  19547513.660   -21265700.793 7    365605.791 2
  21253511.098   -15542551.527 6 -10720484.843 2
  19328963.082   -27274885.645 7 -19841052.081 1
 90 10 11 14 47 59.9960000  0  5 02 06 13 12 09
  22569459.590     9091767.297 5   7114143.109 1
  20749420.129    -4044835.800 6   3983078.119 2
  19549337.168   -21256116.524 7    373074.022 2
  21244441.402   -15590216.847 6 -10757626.665 1
  19328123.801   -27279297.706 7 -19844490.083 1
 90 10 11 14 48 14.9960000  0  5 02 06 13 12 09
  22574959.371     9120675.071 5   7136668.512 1
  20756365.191    -4008350.232 6   4011508.344 2
  19551177.637   -21246440.828 7    380613.501 2
  21235387.160   -15637795.900 6 -10794701.269 2
  19327315.941   -27283545.119 7 -19847799.784 1
 90 10 11 14 48 29.9960000  0  5 02 06 13 12 09
  22580471.676     9149640.741 5   7159239.015 1
  20763329.918    -3971742.651 6   4040033.637 2
  19553037.707   -21236668.198 7    388228.507 2
  21226350.574   -15685282.813 6 -10831704.077 1
  19326539.856   -27287622.029 7 -19850976.628 1
 90 10 11 14 48 44.9960000  0  5 02 06 13 12 09
  22585994.934     9178662.118 5   7181852.933 1
  20770317.574    -3935015.367 6   4068652.207 2
  19554915.527   -21226801.059 7    395917.159 2
  21217331.074   -15732679.335 6 -10868636.445 1
  19325795.285   -27291530.519 7 -19854022.238 1
 90 10 11 14 48 59.9960000  0  5 02 06 13 12 09
  22591525.848     9207729.231 5   7204502.487 1
  20777329.191    -3898178.680 6   4097356.028 2
  19556809.473   -21216849.650 7    403671.476 2
  21208326.387   -15779995.030 6 -10905505.843 2
  19325082.606   -27295280.520 7 -19856944.345 1
 90 10 11 14 49 14.9960000  0  5 02 06 13 12 09
  22597064.418     9236844.996 5   7227189.925 1
  20784361.356    -3861229.644 6   4126147.395 2
  19558719.582   -21206811.341 7    411493.509 2
  21199340.012   -15827226.464 6 -10942309.570 2
  19324398.340   -27298868.932 7 -19859740.548 1
 90 10 11 14 49 29.9960000  0  5 02 06 13 12 09
  22602616.934     9266009.041 5   7249915.023 1
  20791412.129    -3824169.183 6   4155025.591 2
  19560646.840   -21196687.025 7    419382.559 2
  21190367.152   -15874373.860 6 -10979047.815 2
  19323748.152   -27302296.237 7 -19862411.205 1
 90 10 11 14 49 44.9960000  0  5 02 06 13 12 09
  22608177.840     9295229.617 5   7272684.148 1
  20798486.879    -3786989.230 6   4183996.894 2
  19562590.832   -21186468.407 7    427345.088 2
  21181413.254   -15921428.418 6 -11015713.718 2
  19323127.637   -27305553.825 7 -19864949.615 1
 90 10 11 14 49 59.9960000  0  5 02 06 13 12 09
  22613746.160     9324509.272 5   7295499.325 1
  20805584.137    -3749687.491 6   4213063.094 2
  19564553.699   -21176153.068 7    435382.987 2
  21172477.512   -15968387.167 6 -11052304.978 2
  19322539.988   -27308639.175 7 -19867353.819 1
 90 10 11 14 50 14.9960000  0  5 02 06 13 12 09
  22619328.918     9353838.022 5   7318352.730 1
  20812705.652    -3712274.226 6   4242216.204 2
  19566532.637   -21165751.557 7    443488.031 2
  21163557.449   -16015259.771 7 -11088829.093 2
  19321984.598   -27311562.379 7 -19869631.672 1
 90 10 11 14 50 29.9960000  0  5 02 06 13 12 09
  22624917.402     9383212.552 5   7341241.838 1
  20819846.090    -3674752.955 6   4271453.463 2
  19568528.895   -21155267.262 7    451657.581 2
  21154653.816   -16062049.151 7 -11125288.370 2
  19321457.902   -27314326.532 7 -19871785.593 1
 90 10 11 14 50 44.9960000  0  5 02 06 13 12 09
  22630518.082     9412640.450 5   7364172.523 1
  20827006.410    -3637116.429 6   4300780.536 2
  19570540.863   -21144692.851 7    459897.347 2
  21145767.395   -16108747.411 6 -11161676.641 2
  19320964.301   -27316923.842 7 -19873809.502 1
 90 10 11 14 50 59.9960000  0  5 02 06 13 12 09
  22636126.660     9442108.029 5   7387134.110 1
  20834188.434    -3599378.548 6   4330186.585 2
  19572567.285   -21134042.528 7    468196.272 2
  21136895.551   -16155367.925 7 -11198004.325 2
  19320498.957   -27319368.119 7 -19875714.170 1
 90 10 11 14 51 14.9960000  0  5 02 06 13 12 09
  22641740.613     9471621.006 5   7410131.081 1
  20841390.199    -3561533.842 6   4359675.875 2
  19574609.754   -21123310.608 7    476558.772 2
  21128040.801   -16201904.506 7 -11234266.610 2
  19320063.480   -27321653.591 7 -19877495.090 1
 90 10 11 14 51 29.9960000  0  5 02 06 13 12 09
  22647367.684     9501185.496 5   7433168.182 1
  20848614.035    -3523576.509 6   4389252.925 2
  19576668.777   -21112491.450 7    484989.253 2
  21119201.707   -16248350.692 7 -11270458.458 2
  19319660.168   -27323774.014 7 -19879147.398 1
 90 10 11 14 51 44.9960000  0  5 02 06 13 12 09
  22653004.879     9530799.203 5   7456243.645 1
  20855857.879    -3485509.025 6   4418915.806 2
  19578742.645   -21101587.467 7    493485.828 2
  21110379.770   -16294708.366 7 -11306581.339 2
  19319288.340   -27325731.514 7 -19880672.757 1
 90 10 11 14 51 59.9960000  0  5 02 06 13 12 09
  22658647.637     9560464.105 5   7479358.994 1
  20863123.934    -3447329.506 6   4448665.987 2
  19580835.340   -21090596.674 7    502050.048 2
  21101576.621   -16340975.046 7 -11342633.314 2
  19318946.613   -27327523.956 7 -19882069.503 1
 90 10 11 14 52 14.9960000  0  5 02 06 13 12 09
  22664307.332     9590176.782 5   7502511.579 1
  20870408.348    -3409041.810 6   4478500.464 2
  19582941.426   -21079523.076 7    510678.792 2
  21092787.605   -16387153.855 7 -11378616.818 2
  19318636.262   -27329154.910 7 -19883340.406 1
 90 10 11 14 52 29.9960000  0  5 02 06 13 12 09
  22669966.918     9619933.792 5   7525698.721 1
  20877714.738    -3370649.891 6   4508416.152 2
  19585064.184   -21068370.567 7    519369.028 2
  21084018.199   -16433247.994 7 -11414534.341 2
  19318356.035   -27330627.883 7 -19884488.209 1
 90 10 11 14 52 44.9960000  0  5 02 06 13 12 09
  22675639.613     9649741.746 5   7548925.539 1
  20885040.824    -3332147.186 6   4538418.162 2
  19587203.379   -21057132.712 7    528125.762 2
  21075263.176   -16479250.528 7 -11450380.484 2
  19318106.832   -27331935.946 7 -19885507.515 1
 90 10 11 14 52 59.9960000  0  5 02 06 13 12 09
  22681322.949     9679600.938 5   7572192.280 1
  20892390.223    -3293533.564 6   4568506.593 2
  19589358.176   -21045809.291 7    536949.174 2
  21066526.121   -16525160.641 7 -11486154.619 2
  19317890.816   -27333078.863 7 -19886398.129 1
 90 10 11 14 53 14.9960000  0  5 02 06 13 12 09
  22687015.082     9709512.120 5   7595499.524 1
  20899759.082    -3254808.816 6   4598681.619 2
  19591528.551   -21034399.896 7    545839.578 2
  21057808.879   -16570977.357 7 -11521855.970 2
  19317703.934   -27334055.877 7 -19887159.474 1
 90 10 11 14 53 29.9960000  0  5 02 06 13 12 09
  22692714.426     9739473.053 5   7618845.549 1
  20907149.645    -3215975.159 6   4628941.504 2
  19593715.793   -21022907.030 7    554795.020 2
  21049108.051   -16616702.370 7 -11557485.867 2
  19317547.637   -27334869.005 7 -19887793.109 1
 90 10 11 14 53 44.9960000  0  5 02 06 13 12 09
  22698430.379     9769487.406 5   7642233.202 1
  20914558.012    -3177029.259 6   4659288.859 2
  19595919.512   -21011327.256 7    563818.189 2
  21040424.738   -16662331.577 7 -11593041.109 2
  19317426.316   -27335514.630 7 -19888296.237 1
 90 10 11 14 53 59.9960000  0  5 02 06 13 12 09
  22704147.402     9799555.482 5   7665662.731 1
  20921993.137    -3137971.162 6   4689723.642 2
  19598139.231   -20999660.384 7    572909.218 2
  21031760.676   -16707864.309 7 -11628521.175 2
  19317334.762   -27335992.404 7 -19888668.556 1
 90 10 11 14 54 14.9960000  0  5 02 06 13 12 09
  22709877.332     9829668.603 5   7689127.346 1
  20929444.371    -3098809.521 6   4720239.107 1
  19600375.199   -20987915.344 7    582061.163 2
  21023111.621   -16753308.756 7 -11663932.448 2
  19317276.855   -27336310.636 7 -19888916.565 1
 90 10 11 14 54 29.9960000  0  5 02 06 13 12 09
  22715616.051     9859828.443 5   7712628.359 1
  20936917.637    -3059543.137 6   4750836.198 2
  19602624.551   -20976090.677 7    591275.153 2
  21014481.215   -16798662.876 7 -11699273.332 2
  19317245.426   -27336467.781 7
 90 10 11 14 54 44.9960000  0  5 02 06 13 12 09
  22721367.059     9890039.434 5   7736169.239 1
  20944410.691    -3020168.005 6   4781518.018 2
  19604890.754   -20964182.642 7    600554.104 2
  21005868.816   -16843922.076 7 -11734540.262 2
  19317246.809   -27336459.500 7
 90 10 11 14 54 59.9960000  0  5 02 06 13 12 09
  22727122.746     9920301.516 5   7759749.894 1
  20951922.207    -2980684.449 6   4812284.324 2
  19607172.949   -20952191.412 7    609897.882 2
  20997275.090   -16889086.119 7 -11769733.038 2
  19317279.879   -27336285.974 7
 90 10 11 14 55 14.9960000  0  5 02 06 13 12 09
  22732894.543     9950610.987 5   7783367.514 1
  20959456.738    -2941096.033 6   4843132.339 1
  19609470.113   -20940120.616 7    619303.659 2
  20988697.113   -16934157.769 7 -11804853.824 2
  19317345.199   -27335950.194 7
 90 10 11 14 55 29.9960000  0  5 02 06 13 12 09
  22738671.074     9980968.565 5   7807022.582 1
  20967010.473    -2901402.574 6   4874062.203 2
  19611781.762   -20927970.152 7    628771.517 2
  20980138.168   -16979136.299 7 -11839902.044 2
  19317437.387   -27335451.901 7        -0.09811
 90 10 11 14 55 44.9960000  0  5 02 06 13 12 09
  22744459.246    10011370.176 5   7830711.979 1
  20974583.090    -2861608.457 6   4905070.502 1
  19614108.520   -20915744.269 7    638298.140 2
  20971596.738   -17024025.482 7 -11874880.641 2
  19317565.723   -27334795.119 7       511.645 1
 90 10 11 14 55 59.9960000  0  5 02 06 13 12 09
  22750251.262    10041823.422 5   7854441.607 1
  20982178.402    -2821706.457 6   4936162.863 2
  19616450.066   -20903435.756 7    647889.153 2
  20963073.230   -17068817.347 7 -11909783.410 2
  19317719.856   -27333972.194 7      1152.848 1
 90 10 11 14 56 14.9960000  0  5 02 06 13 12 09
  22756055.113    10072334.267 5   7878216.148 1
  20989790.965    -2781690.649 6   4967343.912 1
  19618809.207   -20891038.647 7    657549.203 2
  20954569.332   -17113505.434 7 -11944605.314 2
  19317909.160   -27332976.962 7      1928.320 1
 90 10 11 14 56 29.9960000  0  5 02 06 13 12 09
  22761875.340    10102898.040 5   7902031.909 1
  20997427.106    -2741566.071 6   4998609.716 1
  19621185.270   -20878557.964 7    667274.369 2
  20946084.512   -17158094.037 7 -11979349.693 2
  19318129.621   -27331814.118 7      2834.399 1
 90 10 11 14 56 44.9960000  0  5 02 06 13 12 09
  22767701.777    10133510.074 5   7925885.272 1
  21005081.004    -2701337.695 6   5029956.403 1
  19623574.551   -20865998.543 7    677060.894 2
  20937616.645   -17202587.502 7 -12014019.943 2
  19318383.043   -27330488.463 7      3867.339 1
 90 10 11 14 56 59.9960000  0  5 02 06 13 12 09
  22773531.246    10164167.910 5   7949774.317 1
  21012756.504    -2661008.174 6   5061381.904 1
  19625978.527   -20853363.140 7    686906.629 2
  20929167.902   -17246987.856 7 -12048617.631 2
  19318665.207   -27329002.366 7      5025.299 1
 90 10 11 14 57 14.9960000  0  5 02 06 13 12 09
  22779376.981    10194878.465 5   7973704.459 1
  21020453.488    -2620570.814 6   5092891.435 1
  19628399.387   -20840645.126 7    696816.731 2
  20920738.082   -17291287.728 7 -12083137.030 2
  19318980.941   -27327348.460 7      6314.025 1
 90 10 11 14 57 29.9960000  0  5 02 06 13 12 09
  22785231.035    10225642.684 5   7997676.403 1
  21028168.668    -2580025.084 6   5124485.408 1
  19630835.691   -20827843.910 7    706791.672 2
  20912326.973   -17335485.886 7 -12117577.173 2
  19319327.832   -27325526.161 7      7733.956 1
 90 10 11 14 57 44.9960000  0  5 02 06 13 12 09
  22791095.488    10256456.511 5   8021687.008 1
  21035903.434    -2539375.204 6   5156160.540 1
  19633286.785   -20814963.588 7    716828.246 2
  20903935.629   -17379585.875 7 -12151940.816 2
  19319706.012   -27323539.403 7      9282.044 1
 90 10 11 14 57 59.9960000  0  5 02 06 13 12 09
  22796966.824    10287323.475 5   8045739.018 1
  21043659.410    -2498617.859 6   5187919.404 1
  19635753.738   -20802000.883 7    726929.014 2
  20895563.293   -17423583.859 7 -12186224.974 2
  19320116.098   -27321384.530 7     10961.127 1
 90 10 11 14 58 14.9960000  0  5 02 06 13 12 09
  22802853.199    10318246.220 5   8069834.474 1
  21051434.762    -2457750.718 6   5219763.820 1
  19638236.137   -20788953.507 7    737095.775 2
  20887210.356   -17467476.692 7 -12220427.201 2
  19320557.973   -27319058.850 7     12773.310 1
 90 10 11 14 58 29.9960000  0  5 02 06 13 12 09
  22808747.582    10349223.497 5   8093972.438 1
  21059233.918    -2416775.509 6   5251692.446 1
  19640734.512   -20775823.248 7    747327.112 2
  20878877.871   -17511265.534 7 -12254548.393 2
  19321033.684   -27316563.887 7     14717.400 1
 90 10 11 14 58 44.9960000  0  5 02 06 13 12 09
  22814656.184    10380261.074 5   8118157.387 1
  21067052.965    -2375686.565 6   5283709.695 1
  19643250.231   -20762604.375 7    757627.495 2
  20870566.371   -17554944.078 7 -12288583.641 2
  19321541.715   -27313893.501 7     16798.178 1
 90 10 11 14 58 59.9960000  0  5 02 06 13 12 09
  22820570.699    10411347.451 5   8142380.357 1
  21074890.449    -2334495.788 6   5315806.300 1
  19645779.754   -20749308.573 7    767987.824 2
  20862273.465   -17598523.540 7 -12322541.686 2
  19322081.465   -27311059.447 7     19006.500 1
 90 10 11 14 59 14.9960000  0  5 02 06 13 12 09
  22826502.277    10442515.700 5   8166667.104 1
  21082756.574    -2293170.279 6   5348007.888 1
  19648331.137   -20735903.084 7    778433.631 2
  20854006.145   -17641970.343 7 -12356396.353 2
  19322656.738   -27308028.575 7     21368.179 1
 90 10 11 14 59 29.9960000  0  5 02 06 13 12 09
  22832439.949    10473733.769 5   8190992.697 1
  21090635.418    -2251742.333 6   5380289.299 1
  19650897.355   -20722420.004 7    788939.889 2
  20845757.301   -17685316.185 7 -12390172.353 2
  19323265.973   -27304832.722 7     23858.420 1
 90 10 11 14 59 44.9960000  0  5 02 06 13 12 09
  22838391.629    10504991.833 5   8215349.437 1
  21098538.301    -2210222.054 6   5412642.652 1
  19653476.027   -20708869.610 7    799498.607 2
  20837526.684   -17728570.381 7 -12423876.945 2
  19323904.301   -27301481.655 7     26469.603 1
 90 10 11 14 59 59.9960000  0  5 02 06 13 12 09
  22844352.566    10536326.285 5   8239765.717 1
  21106465.254    -2168573.358 6   5445096.078 1
  19656074.605   -20695215.787 7    810137.917 2
  20829320.121   -17771696.292 7 -12457481.568 2
  19324575.488   -27297939.180 7     29229.937 1
 90 10 11 15  0 14.9960000  0  5 02 06 13 12 09
  22850324.699    10567703.626 5   8264215.393 1
  21114406.160    -2126830.097 6   5477623.187 1
  19658685.481   -20681492.169 7    820831.611 2
  20821130.996   -17814727.036 7 -12491012.035 2
  19325282.332   -27294238.761 7     32113.346 1
 90 10 11 15  0 29.9960000  0  5 02 06 13 12 09
  22856299.910    10599107.129 5   8288685.488 1
  21122367.074    -2085009.115 6   5510210.849 1
  19661307.895   -20667715.649 7    831566.528 2
  20812957.129   -17857678.866 7 -12524481.010 2
  19326011.668   -27290396.906 7     35106.960 1
 90 10 11 15  0 44.9960000  0  5 02 06 13 12 09
  22862285.207    10630545.929 5   8313183.059 1
  21130338.957    -2043101.805 6   5542865.791 1
  19663940.137   -20653877.752 7    842349.270 2
  20804801.231   -17900542.463 7 -12557881.237 2
  19326773.184   -27286404.680 7     38217.748 1
 90 10 11 15  0 59.9960000  0  5 02 06 13 12 09
  22868276.168    10662035.044 5   8337719.844 1
  21138334.238    -2001093.319 6   5575599.562 1
  19666588.332   -20639963.644 7    853191.394 2
  20796664.121   -17943302.325 7 -12591200.623 2
  19327564.629   -27282247.100 7     41457.385 1
 90 10 11 15  1 14.9960000  0  5 02 06 13 12 09
  22874278.746    10693586.327 5   8362305.062 1
  21146351.543    -1958972.012 6   5608421.250 1
  19669253.637   -20625961.449 7    864102.160 2
  20788549.887   -17985946.187 7 -12624429.619 2
  19328388.098   -27277912.159 7     44835.225 1
 90 10 11 15  1 29.9960000  0  5 02 06 13 12 09
  22880296.621    10725194.155 5   8386934.353 1
  21154386.473    -1916743.734 6   5641326.284 1
  19671933.637   -20611876.766 7    875077.204 2
  20780455.113   -18028479.206 7 -12657572.253 2
  19329246.168   -27273405.238 7     48347.072 1
 90 10 11 15  1 44.9960000  0  5 02 06 13 12 09
  22886315.941    10756850.083 5   8411601.109 1
  21162441.246    -1874417.241 6   5674307.857 1
  19674627.543   -20597718.740 7    886109.398 2
  20772380.309   -18070909.603 7 -12690634.913 2
  19330135.551   -27268735.190 7     51986.032 1
 90 10 11 15  1 59.9960000  0  5 02 06 13 12 09
  22892354.199    10788555.222 5   8436306.220 1
  21170515.324    -1831991.846 6   5707366.494 1
  19677334.746   -20583486.542 7    897199.390 2
  20764327.574   -18113235.827 7 -12723616.401 2
  19331055.363   -27263900.752 7     55753.090 2
 90 10 11 15  2 14.9960000  0  5 02 06 13 12 09
  22898397.176    10820306.461 5   8461047.259 1
  21178607.191    -1789470.895 6   5740499.589 1
  19680056.762   -20569183.405 7    908344.655 2
  20756291.074   -18155460.627 7 -12756518.861 2
  19332007.301   -27258904.875 7     59645.945 2
 90 10 11 15  2 29.9960000  0  5 02 06 13 12 09
  22904441.012    10852104.785 4   8485824.977 1
  21186717.582    -1746853.627 6   5773707.730 1
  19682792.434   -20554808.480 7    919545.862 2
  20748276.613   -18197582.660 7 -12789341.238 2
  19332988.145   -27253746.906 7     63665.106 2
 90 10 11 15  2 44.9960000  0  5 02 06 13 12 09
  22910507.988    10883947.787 5   8510637.517 1
  21194844.012    -1704142.805 6   5806988.771 1
  19685541.340   -20540364.598 7    930800.804 2
  20740279.863   -18239603.906 7 -12822085.077 2
  19334000.566   -27248429.060 7     67808.845 2
 90 10 11 15  2 59.9960000  0  5 02 06 13 12 09
  22916574.223    10915839.301 4   8535487.858 1
  21202990.027    -1661334.731 6   5840345.595 1
  19688304.457   -20525848.150 7    942112.287 2
  20732303.355   -18281520.047 7 -12854747.022 2
  19335041.840   -27242947.340 7     72080.276 1
 90 10 11 15  3 14.9960000  0  5 02 06 13 12 09
  22922648.941    10947769.320 4   8560368.189 1
  21211152.582    -1618439.823 6   5873770.078 1
  19691078.606   -20511269.016 7    953472.620 2
  20724344.504   -18323340.712 7 -12887334.566 2
  19336114.512   -27237311.911 7     76471.476 2
 90 10 11 15  3 29.9960000  0  5 02 06 13 12 09
  22928734.715    10979748.785 4   8585287.072 1
  21219334.332    -1575447.459 6   5907270.506 1
  19693866.051   -20496616.995 7    964889.751 2
  20716406.980   -18365054.789 7 -12919839.060 2
  19337218.566   -27231511.976 7     80990.869 1
 90 10 11 15  3 44.9960000  0  5 02 06 13 12 09
  22934833.824    11011777.215 4   8610244.085 1
  21227531.848    -1532358.386 6   5940846.284 1
  19696667.715   -20481892.709 7    976363.185 2
  20708488.566   -18406662.279 7 -12952260.491 2
  19338354.129   -27225547.963 7     85638.112 2
 90 10 11 15  3 59.9960000  0  5 02 06 13 12 09
  22940934.957    11043869.797 4   8635251.096 1
  21235754.012    -1489157.606 6   5974509.109 1
  19699487.855   -20467081.238 7    987904.557 2
  20700594.887   -18448147.493 7 -12984586.646 2
  19339521.152   -27219404.458 7     90425.217 2
 90 10 11 15  4 14.9960000  0  5 02 06 13 12 09
  22947055.566    11076024.841 4   8660306.801 1
  21243997.371    -1445847.151 6   6008257.394 1
  19702321.941   -20452184.427 7    999512.434 2
  20692723.527   -18489511.831 7 -13016818.613 2
  19340725.621   -27213083.344 7     95350.721 2
 90 10 11 15  4 29.9960000  0  5 02 06 13 12 09
  22953187.059    11108229.443 4   8685401.076 1
  21252257.887    -1402440.073 6   6042080.971 1
  19705170.395   -20437215.302 7   1011176.653 2
  20684873.082   -18530767.705 7 -13048966.063 2
  19341959.356   -27206597.413 7    100404.652 2
 90 10 11 15  4 44.9960000  0  5 02 06 13 12 09
  22959322.863    11140480.682 4   8710531.728 1
  21260534.973    -1358939.579 6   6075977.338 1
  19708032.410   -20422177.128 7   1022894.678 2
  20677042.723   -18571917.740 7 -13081031.033 2
  19343225.418   -27199949.461 7    105584.829 2
 90 10 11 15  4 59.9960000  0  5 02 06 13 12 09
  22965469.637    11172776.228 4   8735696.877 1
  21268831.231    -1315348.432 6   6109944.346 1
  19710906.988   -20407072.626 7   1034664.390 2
  20669232.059   -18612963.882 7 -13113015.056 2
  19344519.426   -27193142.069 7    110889.253 2
 90 10 11 15  5 14.9960000  0  5 02 06 13 12 09
  22971625.465    11205128.845 4   8760906.497 1
  21277145.996    -1271653.946 6   6143991.866 1
  19713795.637   -20391888.966 7   1046495.778 2
  20661443.106   -18653892.711 7 -13144907.658 2
  19345848.949   -27186162.338 7    116327.961 2
 90 10 11 15  5 29.9960000  0  5 02 06 13 12 09
  22977794.363    11237533.210 4   8786156.437 1
  21285480.027    -1227861.784 6   6178115.508 1
  19716697.856   -20376631.762 7   1058384.475 2
  20653677.215   -18694709.370 7 -13176712.859 2
  19347209.738   -27179015.399 7    121896.962 2
 90 10 11 15  5 44.9960000  0  5 02 06 13 12 09
  22983965.574    11269985.919 4   8811444.055 1
  21293828.488    -1183975.737 6   6212312.306 1
  19719616.559   -20361304.735 7   1070327.579 2
  20645929.840   -18735416.916 7 -13208433.038 2
  19348599.184   -27171704.915 7    127593.397 2
 90 10 11 15  5 59.9960000  0  5 02 06 13 12 09
  22990156.082    11302489.991 4   8836771.707 1
  21302198.707    -1139993.091 6   6246584.370 1
  19722547.199   -20345905.144 7   1082327.228 2
  20638205.449   -18776012.015 7 -13240065.591 2
  19350021.395   -27164228.095 7    133419.450 2
 90 10 11 15  6 14.9960000  0  5 02 06 13 12 09
  22996346.090    11335036.952 4   8862132.788 1
  21310584.426    -1095922.643 6   6280924.856 1
  19725489.902   -20330441.795 7   1094376.561 2
  20630500.395   -18816502.890 7 -13271616.935 2
  19351474.715   -27156593.237 7    139368.648 2
 90 10 11 15  6 29.9960000  0  5 02 06 13 12 09
  23002554.074    11367635.686 4   8887534.234 1
  21318988.106    -1051755.848 6   6315340.414 1
  19728446.731   -20314906.001 7   1106482.335 2
  20622815.527   -18856880.184 7 -13303079.776 2
  19352959.043   -27148791.669 7    145447.751 2
 90 10 11 15  6 44.9960000  0  5 02 06 13 12 09
  23008766.309    11400280.548 4   8912971.584 1
  21327412.066    -1007498.386 6   6349826.625 1
  19731415.770   -20299303.450 7   1118640.135 2
  20615153.168   -18897148.945 7 -13334458.042 2
  19354473.957   -27140828.782 7    151652.553 2
 90 10 11 15  6 59.9960000  0  5 02 06 13 12 09
  23014990.621    11432994.450 4   8938462.764 1
  21335856.731     -963127.903 6   6384400.903 1
  19734400.941   -20283611.682 7   1130867.456 2
  20607516.699   -18937286.132 7 -13365733.786 2
  19356024.598   -27132681.823 7    158000.788 2
 90 10 11 15  7 14.9960000  0  5 02 06 13 12 09
  23021224.059    11465757.146 4   8963991.936 1
  21344317.902     -918664.638 6   6419047.477 1
  19737398.934   -20267851.117 7   1143148.384 2
  20599898.598   -18977311.376 7 -13396922.303 2
  19357607.957   -27124370.828 7    164476.848 2
 90 10 11 15  7 29.9960000  0  5 02 06 13 12 09
  23027469.605    11498582.935 4   8989570.308 1
  21352796.652     -874094.764 6   6453777.117 1
  19740412.738   -20252007.861 7   1155493.745 2
  20592305.902   -19017210.101 7 -13428012.232 2
  19359224.324   -27115881.859 7    171091.585 2
 90 10 11 15  7 44.9960000  0  5 02 06 13 12 09
  23033729.910    11531447.036 4   9015178.521 1
  21361294.106     -829443.285 6   6488570.355 1
  19743440.613   -20236106.696 7   1167884.227 2
  20584733.652   -19057006.722 7 -13459022.604 2
  19360867.426   -27107239.461 7    177825.879 2
 90 10 11 15  7 59.9960000  0  5 02 06 13 12 09
  23039986.980    11564355.716 4   9040821.443 1
  21369811.480     -784704.148 6   6523431.892 1
  19746479.074   -20220141.419 7   1180324.672 2
  20577180.762   -19096694.524 7 -13489948.179 2
  19362541.613   -27098437.443 7    184684.555 2
 90 10 11 15  8 14.9960000  0  5 02 06 13 12 09
  23046253.856    11597306.792 4   9066497.412 1
  21378341.832     -739879.890 6   6558359.749 1
  19749527.621   -20204114.736 7   1192812.963 2
  20569649.254   -19136275.368 7 -13520790.404 2
  19364248.668   -27089477.976 7    191665.915 2
 90 10 11 15  8 29.9960000  0  5 02 06 13 12 09
  23052537.191    11630316.899 4   9092219.391 1
  21386887.238     -694954.181 6   6593366.671 1
  19752594.277   -20188009.904 7   1205362.152 2
  20562141.152   -19175732.172 7 -13551535.987 2
  19365984.231   -27080344.510 7    198782.859 2
 90 10 11 15  8 44.9960000  0  5 02 06 13 12 09
  23058833.652    11663379.882 4   9117982.545 1
  21395453.027     -649933.572 6   6628447.534 1
  19755669.988   -20171833.554 7   1217967.065 2
  20554654.215   -19215070.845 7 -13582189.515 2
  19367757.340   -27071043.284 7    206030.525 2
 90 10 11 15  8 59.9960000  0  5 02 06 13 12 09
  23065133.809    11696498.835 5   9143789.337 1
  21404042.254     -604815.082 6   6663604.673 1
  19758764.363   -20155582.813 7   1230629.946 2
  20547192.332   -19254287.856 7 -13612748.237 2
  19369556.902   -27061571.333 7    213411.225 2
 90 10 11 15  9 14.9960000  0  5 02 06 13 12 09
  23071447.356    11729670.877 5   9169637.512 1
  21412644.160     -559601.903 6   6698835.589 1
  19761870.035   -20139260.661 7   1243348.473 2
  20539751.965   -19293385.615 7 -13643214.040 2
  19371392.512   -27051931.241 7    220922.946 2
 90 10 11 15  9 29.9960000  0  5 02 06 13 12 09
  23077755.746    11762840.185 5   9195483.493 1
  21421256.887     -514350.307 6   6734096.444 1
  19764977.207   -20122923.471 7   1256078.715 2
  20532323.887   -19332419.680 7 -13673630.208 2
  19373249.473   -27042179.248 7    228521.856 2
 90 10 11 15  9 44.9960000  0  5 02 06 13 12 09
  23084083.481    11796075.410 4   9221380.851 1
  21429885.668     -468991.979 6   6769440.474 1
  19768103.043   -20106502.844 7   1268873.974 2
  20524921.410   -19371321.166 7 -13703943.071 2
  19375138.363   -27032246.694 7    236261.473 2
 90 10 11 15  9 59.9960000  0  5 02 06 13 12 09
  23090414.379    11829360.675 5   9247317.223 1
  21438535.645     -423543.059 6   6804855.084 1
  19771241.121   -20090014.950 7   1281721.645 2
  20517540.855   -19410105.640 7 -13734164.749 2
  19377059.082   -27022149.550 7    244129.333 2
 90 10 11 15 10 14.9960000  0  5 02 06 13 12 09
  23096763.215    11862709.589 5   9273303.161 1
  21447206.418     -377989.859 6   6840350.955 1
  19774394.949   -20073445.882 7   1294632.574 2
  20510185.762   -19448758.593 7 -13764283.946 2
  19379014.199   -27011873.759 7    252136.405 2
 90 10 11 15 10 29.9960000  0  5 02 06 13 12 09
  23103122.074    11896117.928 5   9299335.450 1
  21455895.168     -332336.873 6   6875924.578 1
  19777561.957   -20056800.209 7   1307603.193 2
  20502853.871   -19487283.978 7 -13794303.744 2
  19381002.590   -27001423.723 7    260279.249 2
 90 10 11 15 10 44.9960000  0  5 02 06 13 12 09
  23109486.434    11929572.528 5   9325403.740 1
  21464592.730     -286597.822 6   6911565.270 1
  19780741.566   -20040091.489 7   1320622.942 2
  20495545.512   -19525694.612 7 -13824234.117 2
  19383021.613   -26990812.791 7    268547.468 2
 90 10 11 15 10 59.9960000  0  5 02 06 13 12 09
  23115867.855    11963072.783 5   9351507.640 1
  21473314.160     -240773.862 6   6947272.124 1
  19783932.645   -20023320.824 7   1333690.958 2
  20488258.262   -19563990.943 7 -13854075.428 2
  19385072.746   -26980041.918 7    276940.317 2
 90 10 11 15 11 14.9960000  0  5 02 06 13 12 09
  23122250.582    11996618.677 5   9377647.091 1
  21482054.184     -194865.007 6   6983045.130 1
  19787134.551   -20006488.278 7   1346807.193 2
  20480992.168   -19602172.500 7 -13883827.306 2
  19387153.660   -26969110.727 7    285458.090 2
 90 10 11 15 11 29.9960000  0  5 02 06 13 12 09
  23128640.059    12030215.888 5   9403826.485 1
  21490805.590     -148865.741 6   7018888.585 1
  19790350.801   -19989588.281 7   1359975.987 2
  20473749.957   -19640233.108 7 -13913484.933 2
  19389266.199   -26958013.633 7    294105.141 2
 90 10 11 15 11 44.9960000  0  5 02 06 13 12 09
  23135042.738    12063861.607 5   9430043.742 1
  21499575.160     -102779.153 6   7054800.080 1
  19793580.902   -19972623.796 7   1373195.027 2
  20466529.824   -19678175.206 7 -13943050.218 2
  19391406.184   -26946753.435 7    302879.282 2
 90 10 11 15 11 59.9960000  0  5 02 06 13 12 09
  23141455.668    12097555.117 5   9456298.224 1
  21508359.887      -56606.602 6   7090778.559 1
  19796821.043   -19955595.980 7   1386463.420 2
  20459330.652   -19715999.363 7 -13972523.600 2
  19393580.488   -26935331.223 7    311779.666 2
 90 10 11 15 12 14.9960000  0  5 02 06 13 12 09
  23147871.004    12131291.453 5   9482586.067 1
  21517163.832      -10353.242 6   7126820.003 1
  19800070.660   -19938510.168 7   1399777.006 2
  20452156.223   -19753710.042 7 -14001908.558 2
  19395785.934   -26923751.956 7    320802.436 2
 90 10 11 15 12 29.9960000  0  5 02 06 13 12 09
  23154305.129    12165083.344 5   9508917.180 1
  21525986.340       35993.295 6   7162934.055 1
  19803337.410   -19921353.682 7   1413145.664 2
  20445003.543   -19791294.319 7 -14031195.022 2
  19398019.574   -26912002.989 7    329957.434 2
 90 10 11 15 12 44.9960000  0  5 02 06 13 12 09
  23160739.496    12198913.421 5   9535278.074 1
  21534817.176       82415.773 6   7199107.275 1
  19806611.410   -19904143.812 7   1426555.917 2
  20437871.660   -19828768.793 7 -14060395.917 2
  19400286.105   -26900101.289 7    339231.448 2
 90 10 11 15 12 59.9960000  0  5 02 06 13 12 09
  23167193.285    12232794.835 5   9561678.955 1
  21543670.137      128926.903 6   7235349.581 1
  19809898.441   -19886867.637 7   1440017.842 2
  20430764.277   -19866119.907 7 -14089500.699 2
  19402581.949   -26888033.921 7    348634.556 2
 90 10 11 15 13 14.9960000  0  5 02 06 13 12 09
  23173645.309    12266719.642 5   9588113.662 1
  21552535.731      175518.229 6   7271654.379 1
  19813198.551   -19869533.741 7   1453524.740 2
  20423678.488   -19903355.554 7 -14118515.497 2
  19404906.355   -26875809.264 7    358160.221 2
 90 10 11 15 13 29.9960000  0  5 02 06 13 12 09
  23180109.965    12300686.269 5   9614580.954 1
  21561417.090      222188.172 6   7308020.429 1
  19816507.020   -19852143.572 7   1467075.491 2
  20416614.824   -19940476.788 7 -14147441.146 2
  19407263.762   -26863428.504 7    367807.527 2
 90 10 11 15 13 44.9960000  0  5 02 06 13 12 09
  23186580.082    12334708.814 5   9641091.753 1
  21570316.246      268950.312 6   7344458.312 1
  19819828.137   -19834683.318 7   1480680.856 2
  20409575.996   -19977469.123 7 -14176266.357 2
  19409653.980   -26850877.860 7    377587.208 2
 90 10 11 15 13 59.9960000  0  5 02 06 13 12 09
  23193068.574    12368786.559 5   9667645.645 1
  21579235.020      315803.640 6   7380967.266 1
  19823163.855   -19817153.701 7   1494340.265 2
  20402560.199   -20014333.044 7 -14204991.504 2
  19412073.457   -26838158.164 7    387498.620 2
 90 10 11 15 14 14.9960000  0  5 02 06 13 12 09
  23199559.160    12402909.817 5   9694234.997 1
  21588165.129      362738.236 6   7417539.540 1
  19826511.160   -19799564.902 7   1508045.789 2
  20395568.324   -20051077.817 7 -14233623.809 2
  19414524.863   -26825278.911 7    397534.366 2
 90 10 11 15 14 29.9960000  0  5 02 06 13 12 09
  23206070.231    12437081.637 5   9720862.161 1
  21597111.402      409756.930 6   7454177.342 1
  19829869.582   -19781914.202 7   1521799.552 2
  20388599.824   -20087699.944 7 -14262160.543 2
  19417006.199   -26812237.260 7    407696.650 2
 90 10 11 15 14 44.9960000  0  5 02 06 13 12 09
  23212574.207    12471290.279 5   9747517.989 1
  21606071.707      456847.459 6   7490871.131 1
  19833238.574   -19764213.698 7   1535592.128 2
  20381651.543   -20124210.945 7 -14290610.685 2
  19419517.512   -26799045.116 7    417976.204 2
 90 10 11 15 14 59.9960000  0  5 02 06 13 12 09
  23219091.356    12505536.501 5   9774203.155 1
  21615046.262      504010.505 6   7527621.411 1
  19836616.746   -19746462.581 7   1549424.135 2
  20374725.285   -20160609.415 7 -14318973.146 2
  19422056.066   -26785701.676 7    428373.647 2
 90 10 11 15 15 14.9960000  0  5 02 06 13 12 09
  23225613.379    12539829.919 5   9800925.072 1
  21624039.152      551255.377 6   7564435.448 1
  19840007.356   -19728651.380 7   1563302.958 2
  20367821.715   -20196885.499 7 -14347240.236 2
  19424624.129   -26772197.359 7    438896.453 2
 90 10 11 15 15 29.9960000  0  5 02 06 13 12 09
  23232150.426    12574159.216 5   9827674.930 1
  21633041.621      598570.661 6   7601304.360 1
  19843406.363   -19710791.538 7   1577219.688 2
  20360940.207   -20233050.170 7 -14375420.510 2
  19427222.606   -26758543.449 7    449535.821 2
 90 10 11 15 15 44.9960000  0  5 02 06 13 12 09
  23238688.707    12608541.347 4   9854465.982 1
  21642062.465      645972.768 6   7638240.919 1
  19846815.426   -19692866.343 7   1591187.340 2
  20354083.520   -20269086.066 7 -14403500.444 2
  19429854.160   -26744723.076 7    460304.902 2
 90 10 11 15 15 59.9960000  0  5 02 06 13 12 09
  23245240.129    12642962.750 4   9881287.589 1
  21651099.043      693447.818 6   7675234.315 1
  19850237.332   -19674889.839 7   1605194.970 2
  20347247.754   -20305006.383 7 -14431490.311 2
  19432511.012   -26730750.031 7    471192.947 2
 90 10 11 15 16 14.9960000  0  5 02 06 13 12 09
  23251801.520    12677431.261 5   9908145.955 1
  21660145.832      741003.328 6   7712290.410 1
  19853668.379   -19656854.498 7   1619248.457 2
  20340435.801   -20340802.920 7 -14459383.732 2
  19435201.090   -26716616.758 7    482205.847 2
 90 10 11 15 16 29.9960000  0  5 02 06 13 12 09
  23258369.801    12711948.013 5   9935041.913 1
  21669209.941      788640.158 6   7749409.870 1
  19857114.020   -19638759.215 7   1633348.648 2
  20333647.613   -20376474.117 7 -14487179.483 2
  19437920.754   -26702321.952 7    493344.616 2
 90 10 11 15 16 44.9960000  0  5 02 06 13 12 09
  23264944.520    12746515.360 4   9961977.303 1
  21678289.293      836360.463 6   7786594.381 1
  19860566.121   -19620601.571 7   1647497.432 2
  20326884.152   -20412017.274 7 -14514875.459 2
  19440674.902   -26687863.270 7    504611.081 2
 90 10 11 15 16 59.9960000  0  5 02 06 13 12 09
  23271533.387    12781121.964 5   9988943.241 1
  21687387.684      884152.808 6   7823835.019 1
  19864034.004   -19602393.187 7   1661685.754 2
  20320142.996   -20447443.027 7 -14542479.957 2
  19443451.715   -26673252.003 7    515996.439 2
 90 10 11 15 17 14.9960000  0  5 02 06 13 12 09
  23278131.098    12815772.678 5  10015943.570 1
  21696497.801      932021.602 6   7861135.229 1
  19867509.926   -19584129.665 7   1675917.044 2
  20313424.879   -20482746.440 7 -14569989.121 2
  19446264.059   -26658483.485 7    527504.332 2
 90 10 11 15 17 29.9960000  0  5 02 06 13 12 09
  23284732.949    12850470.737 4  10042980.805 1
  21705619.543      979969.676 6   7898497.227 1
  19870994.246   -19565807.841 7   1690193.761 2
  20306730.332   -20517924.043 7 -14597400.253 2
  19449106.715   -26643554.644 7    539137.154 2
 90 10 11 15 17 44.9960000  0  5 02 06 13 12 09
  23291346.449    12885216.225 4  10070054.947 1
  21714757.559     1027996.900 6   7935920.886 1
  19874490.973   -19547427.901 7   1704515.758 2
  20300060.527   -20552975.342 7 -14624712.970 2
  19451978.480   -26628465.534 7    550894.859 2
 90 10 11 15 17 59.9960000  0  5 02 06 13 12 09
  23297965.598    12920011.640 4  10097168.002 1
  21723913.043     1076105.560 6   7973408.010 1
  19878000.840   -19528987.300 7   1718885.028 2
  20293414.574   -20587897.315 7 -14651924.909 2
  19454880.168   -26613213.382 7    562779.611 2
 90 10 11 15 18 14.9960000  0  5 02 06 13 12 09
  23304599.645    12954856.673 5  10124319.734 1
  21733085.848     1124294.934 6   8010958.013 1
  19881520.770   -19510486.763 7   1733301.002 2
  20286793.215   -20622689.990 7 -14679036.101 2
  19457814.145   -26597798.901 7    574790.850 2
 90 10 11 15 18 29.9960000  0  5 02 06 13 12 09
  23311232.840    12989747.752 4  10151507.353 1
  21742267.106     1172560.995 6   8048567.778 1
  19885052.215   -19491930.412 7   1747760.469 2
  20280197.426   -20657356.718 7 -14706049.148 2
  19460777.496   -26582225.803 7    586925.687 2
 90 10 11 15 18 44.9960000  0  5 02 06 13 12 09
  23317881.309    13024676.222 4  10178724.122 1
  21751466.934     1220895.065 5   8086230.537 1
  19888592.426   -19473326.660 7   1762256.870 2
  20273622.949   -20691905.564 7 -14732970.340 2
  19463769.746   -26566502.767 7    599177.361 2
 90 10 11 15 18 59.9960000  0  5 02 06 13 12 09
  23324533.863    13059645.885 3  10205972.939 1
  21760674.535     1269300.526 6   8123948.917 1
  19892144.473   -19454672.016 7   1776792.926 2
  20267072.129   -20726332.393 7 -14759796.457 2
  19466787.855   -26550626.037 7    611548.792 2
 90 10 11 15 19 14.9960000  0  5 02 06 13 12 09
  23331205.527    13094654.874 4  10233252.443 1
  21769901.004     1317775.238 6   8161721.266 1
  19895704.918   -19435968.441 7   1791367.109 2
  20260543.152   -20760638.825 7 -14786528.758 2
  19469836.965   -26534597.610 7    624038.433 2
 90 10 11 15 19 29.9960000  0  5 02 06 13 12 09
  23337873.441    13129720.671 3  10260576.198 1
  21779141.746     1366336.412 6   8199560.988 1
  19899273.887   -19417198.734 7   1805992.828 1
  20254042.340   -20794806.959 7 -14813153.289 2
  19472922.652   -26518399.982 7    636659.914 2
 90 10 11 15 19 44.9960000  0  5 02 06 13 12 09
  23344554.606    13164827.379 3  10287931.792 1
  21788397.605     1414967.940 5   8237455.530 1
  19902856.645   -19398379.031 7   1820657.505 2
  20247562.512   -20828852.197 7 -14839682.064 2
  19476032.598   -26502049.153 7    649400.779 2
 90 10 11 15 19 59.9960000  0  5 02 06 13 12 09
  23351245.191    13199974.531 3  10315318.976 1
  21797663.730     1463668.929 5   8275404.189 1
  19906446.426   -19379510.201 7   1835360.458 2
  20241107.348   -20862774.813 7 -14866115.289 2
  19479172.418   -26485545.713 7    662260.554 2
 90 10 11 15 20 14.9960000  0  4 06 13 12 09
  21806944.051     1512443.594 5   8313410.265 1
  19910047.949   -19360587.811 7   1850105.147 2
  20234677.418   -20896569.988 7 -14892449.201 2
  19482344.293   -26468885.393 7    675242.581 2
 90 10 11 15 20 29.9960000  0  4 06 13 12 09
  21816244.637     1561294.337 5   8351475.620 1
  19913657.699   -19341609.434 7   1864893.464 1
  20228270.652   -20930234.521 7 -14918681.326 2
  19485545.012   -26452065.534 7    688348.917 2
 90 10 11 15 20 44.9960000  0  4 06 13 12 09
  21825560.340     1610223.684 6   8389602.218 1
  19917282.941   -19322572.419 7   1879727.470 2
  20221890.145   -20963765.186 7 -14944809.134 2
  19488774.957   -26435083.362 7    701581.737 2
 90 10 11 15 20 59.9960000  0  4 06 13 12 09
  21834878.277     1659230.381 5   8427789.084 1
  19920915.004   -19303477.753 7   1894606.405 2
  20215534.582   -20997162.600 7 -14970833.105 2
  19492038.395   -26417939.980 7    714940.168 2
 90 10 11 15 21 14.9960000  0  4 06 13 12 09
  21844218.934     1708308.992 5   8466032.000 1
  19924556.684   -19284330.945 7   1909525.966 2
  20209203.613   -21030431.663 7 -14996757.067 2
  19495332.652   -26400640.574 7    728420.183 2
 90 10 11 15 21 29.9960000  0  4 06 13 12 09
  21853571.871     1757463.532 5   8504334.071 1
  19928210.793   -19265127.982 7   1924489.282 1
  20202897.379   -21063567.604 7 -15022577.296 2
  19498655.496   -26383180.898 7    742025.079 2
 90 10 11 15 21 44.9960000  0  4 06 13 12 09
  21862943.863     1806686.544 5   8542689.502 1
  19931874.410   -19245876.082 7   1939490.730 1
  20196617.207   -21096577.310 7 -15048299.162 2
  19502006.504   -26365568.454 7    755749.014 2
 90 10 11 15 21 59.9960000  0  4 06 13 12 09
  21872319.895     1855983.724 5   8581102.727 1
  19935549.801   -19226569.400 7   1954534.870 2
  20190359.629   -21129454.402 7 -15073917.690 2
  19505387.613   -26347797.292 7    769596.627 2
 90 10 11 15 22 14.9960000  0  4 06 13 12 09
  21881720.996     1905356.753 5   8619575.052 1
  19939233.754   -19207206.293 7   1969622.969 1
  20184129.965   -21162196.536 7 -15099431.058 2
  19508800.598   -26329865.279 7    783569.580 2
 90 10 11 15 22 29.9960000  0  4 06 13 12 09
  21891124.731     1954797.274 5   8658099.966 1
  19942926.590   -19187794.886 7   1984748.712 2
  20177923.066   -21194811.439 7 -15124845.287 2
  19512242.473   -26311780.912 7    797661.246 2
 90 10 11 15 22 44.9960000  0  4 06 13 12 09
  21900547.301     2004305.157 5   8696677.375 1
  19946632.543   -19168335.316 7   1999911.978 1
  20171741.723   -21227298.583 7 -15150159.959 2
  19515710.629   -26293543.920 7    811871.846 2
 90 10 11 15 22 59.9960000  0  4 06 13 12 09
  21909979.770     2053880.747 5   8735307.532 1
  19950346.434   -19148827.145 7   2015113.115 2
  20165584.559   -21259656.893 7 -15175374.245 2
  19519208.363   -26275153.830 7    826201.739 2
 90 10 11 15 23 14.9960000  0  4 06 13 12 09
  21919429.043     2103522.322 5   8773989.116 1
  19954063.910   -19129271.793 7   2030351.018 1
  20159450.301   -21291887.499 7 -15200489.019 2
  19522740.168   -26256612.201 7    840649.717 2
 90 10 11 15 23 29.9960000  0  4 06 13 12 09
  21928887.184     2153233.729 5   8812725.107 1
  19957796.465   -19109665.303 7   2045628.764 2
  20153342.785   -21323985.933 7 -15225500.800 2
  19526295.527   -26237914.980 7    855218.931 2
 90 10 11 15 23 44.9960000  0  4 06 13 12 09
  21938363.668     2203021.782 5   8851520.816 1
  19961537.668   -19090001.142 7   2060951.454 1
  20147261.332   -21355944.625 7 -15250403.696 2
  19529885.184   -26219055.262 7    869914.771 2
 90 10 11 15 23 59.9960000  0  4 06 13 12 09
  21947849.910     2252881.059 5   8890372.035 1
  19965292.473   -19070284.453 7   2076315.064 1
  20141204.395   -21387768.463 7 -15275201.504 2
  19533503.410   -26200038.043 7    884733.336 2
 90 10 11 15 24 14.9960000  0  4 06 13 12 09
  21957350.488     2302813.073 5   8929279.926 1
  19969051.223   -19050513.715 7   2091720.798 1
  20135175.512   -21419455.275 7 -15299892.544 2
  19537155.879   -26180861.978 7    899675.680 2
 90 10 11 15 24 29.9960000  0  4 06 13 12 09
  21966865.660     2352819.330 5   8968245.661 1
  19972826.910   -19030687.181 7   2107170.007 1
  20129171.332   -21451002.885 7 -15324475.111 2
  19540831.270   -26161525.033 7    914743.381 2
 90 10 11 15 24 44.9960000  0  4 06 13 12 09
  21976396.738     2402894.799 5   9007265.334 1
  19976610.449   -19010809.630 7   2122658.967 2
  20123193.996   -21482415.634 7 -15348952.592 2
  19544541.293   -26142032.360 7    929932.429 2
 90 10 11 15 24 59.9960000  0  4 06 13 12 09
  21985939.801     2453028.459 5   9046330.352 1
  19980397.957   -18990891.908 7   2138179.229 2
  20117240.676   -21513703.884 7 -15373333.062 2
  19548280.020   -26122394.657 7    945234.494 2
 90 10 11 15 25 14.9960000  0  4 06 13 12 09
  21995489.223     2503232.347 5   9085450.071 1
  19984197.746   -18970921.963 7   2153740.191 1
  20111312.652   -21544854.959 7 -15397606.637 2
  19552049.434   -26102599.825 7    960658.988 2
 90 10 11 15 25 29.9960000  0  4 06 13 12 09
  22005056.832     2553497.696 5   9124617.708 1
  19988005.582   -18950908.548 7
  20105408.856   -21575877.089 7 -15421779.743 2
  19555843.793   -26082656.377 7
 90 10 11 15 25 44.9960000  0  4 06 13 12 09
  22014631.309     2603821.010 5   9163830.492 1
  19991821.512   -18930855.228 7
  20099530.199   -21606773.240 7 -15445854.673 2
  19559666.043   -26062567.652 7
 90 10 11 15 25 59.9960000  0  4 06 13 12 09
  22024223.199     2654217.674 5   9203100.446 1
  19995649.184   -18910746.226 7   2200630.252 1
  20093678.020   -21637527.126 7 -15469818.757 2
  19563519.316   -26042317.923 7   1007631.760 2
 90 10 11 15 26 14.9960000  0  4 06 13 12 09
  22033825.621     2704684.293 5   9242424.895 1
  19999488.121   -18890584.921 7   2216340.320 1
  20087851.902   -21668141.587 7 -15493674.195 2
  19567400.957   -26021910.704 7   1023533.443 2
 90 10 11 15 26 29.9960000  0  4 06 13 12 09
  22043445.699     2755215.318 5   9281799.538 1
  20003333.340   -18870376.802 7   2232086.867 1
  20082052.160   -21698621.515 7 -15517424.799 2
  19571311.785   -26001351.194 7   1039553.791 2
 90 10 11 15 26 44.9960000  0  4 06 13 12 09
  22053068.988     2805808.614 5   9321222.693 1
  20007185.262   -18850123.943 7   2247868.276 2
  20076276.199   -21728968.495 7 -15541071.814 2
  19575255.824   -25980641.443 7   1055691.213 2
 90 10 11 15 26 59.9960000  0  4 06 13 12 09
  22062707.793     2856461.490 5   9360692.302 1
  20011048.145   -18829828.787 7   2263682.645 2
  20070526.949   -21759184.500 7 -15564616.762 2
  19579224.770   -25959784.095 7   1071943.649 2
 90 10 11 15 27 14.9960000  0  4 06 13 12 09
  22072357.910     2907184.981 5   9400216.910 1
  20014921.418   -18809480.297 7   2279538.574 1
  20064803.473   -21789257.777 7 -15588050.502 2
  19583221.340   -25938767.679 7   1088320.028 2
 90 10 11 15 27 29.9960000  0  4 06 13 12 09
  22082026.785     2957973.230 5   9439791.987 1
  20018801.137   -18789084.120 7   2295431.663 1
  20059107.559   -21819193.613 7 -15611377.137 2
  19587252.527   -25917597.994 7   1104815.841 2
 90 10 11 15 27 44.9960000  0  4 06 13 12 09
  22091702.785     3008824.490 5   9479416.150 1
  20022692.512   -18768642.099 7   2311360.470 1
  20053436.824   -21848993.129 7 -15634597.555 2
  19591308.488   -25896276.746 7   1121429.754 2
 90 10 11 15 27 59.9960000  0  4 06 13 12 09
  22101390.668     3059741.785 5   9519091.777 1
  20026592.270   -18748150.987 7   2327327.535 2
  20047793.004   -21878652.708 7 -15657708.931 2
  19595394.574   -25874800.692 7   1138164.290 2
 90 10 11 15 28 14.9960000  0  4 06 13 12 09
  22111091.863     3110718.603 5   9558813.789 1
  20030497.277   -18727617.139 7   2343327.891 1
  20042174.855   -21908178.177 7 -15680715.797 2
  19599512.996   -25853176.198 7   1155014.500 2
 90 10 11 15 28 29.9960000  0  4 06 13 12 09
  22120804.981     3161755.903 5   9598582.931 1
  20034414.293   -18707039.482 7   2359362.390 1
  20036581.145   -21937567.813 7 -15703616.832 2
  19603655.082   -25831402.107 7   1171981.276 2
 90 10 11 15 28 44.9960000  0  4 06 13 12 09
  22130529.246     3212852.182 5   9638398.018 1
  20038338.457   -18686419.155 7   2375430.135 1
  20031014.731   -21966822.556 7 -15726412.747 2
  19607824.332   -25809479.698 7   1189063.629 2
 90 10 11 15 28 59.9960000  0  4 06 13 12 09
  22140265.785     3264006.984 5   9678258.725 1
  20042270.887   -18665756.663 7   2391530.735 1
  20025473.824   -21995942.314 7 -15749103.487 2
  19612023.691   -25787409.424 7   1206261.195 2
 90 10 11 15 29 14.9960000  0  4 06 13 12 09
  22150011.238     3315226.301 5   9718169.693 1
  20046212.848   -18645046.039 7   2407668.845 1
  20019959.488   -22024920.353 7 -15771683.788 2
  19616253.270   -25765184.985 7   1223578.894 2
 90 10 11 15 29 29.9960000  0  4 06 13 12 09
  22159767.106     3366509.108 5   9758130.127 1
  20050162.809   -18624288.244 7   2423843.710 1
  20014471.316   -22053757.090 7 -15794153.987 2
  19620512.395   -25742807.328 7   1241015.982 2
 90 10 11 15 29 44.9960000  0  4 06 13 12 09
  22169537.980     3417846.331 5   9798132.981 1
  20054118.816   -18603492.145 7   2440048.425 1
  20009009.590   -22082461.182 7 -15816520.825 2
  19624798.621   -25720285.556 7   1258565.369 2
 90 10 11 15 29 59.9960000  0  4 06 13 12 09
  22179317.418     3469236.323 5   9838176.932 1
  20058081.504   -18582659.141 7   2456281.896 1
  20003572.301   -22111033.462 7 -15838784.957 2
  19629114.730   -25697621.007 7   1276226.015 2
 90 10 11 15 30 14.9950000  0  4 06 13 12 09
  22189109.608     3520685.635 5   9878267.115 1
  20062055.804   -18561780.475 7   2472550.947 1
  19998162.187   -22139461.395 7 -15860936.604 2
  19633455.147   -25674805.060 7   1294004.627 2
 90 10 11 15 30 29.9950000  0  4 06 13 12 09
  22198912.077     3572199.015 5   9918407.221 1
  20066040.421   -18540855.462 7   2488856.113 1
  19992778.960   -22167750.260 7 -15882979.895 2
  19637822.319   -25651836.594 7   1311902.086 2
 90 10 11 15 30 44.9950000  0  4 06 13 12 09
  22208722.171     3623752.190 5   9958578.332 1
  20070023.890   -18519906.091 7   2505180.259 1
  19987419.218   -22195918.372 7 -15904929.089 2
  19642222.655   -25628737.895 7   1329901.025 2
 90 10 11 15 30 59.9950000  0  4 06 13 12 09
  22218541.124     3675348.931 5   9998783.378 1
  20074018.593   -18498928.725 7   2521526.229 1
  19982083.210   -22223961.474 7 -15926780.876 2
  19646640.765   -25605504.998 7   1348004.536 2
 90 10 11 15 31 14.9950000  0  4 06 13 12 09
  22228369.952     3727004.877 5  10039034.571 1
  20078016.452   -18477907.314 7   2537906.506 1
  19976774.265   -22251863.131 7 -15948522.442 2
  19651092.351   -25582122.095 7   1366224.934 2
 90 10 11 15 31 29.9950000  0  4 06 13 12 09
  22238213.608     3778723.784 5  10079334.817 1
  20082027.905   -18456838.160 7   2554323.986 1
  19971492.101   -22279619.025 7 -15970150.429 2
  19655568.257   -25558585.437 7   1384565.142 2
 90 10 11 15 31 44.9950000  0  4 06 13 12 09
  22248067.397     3830500.680 5  10119680.250 1
  20086043.515   -18435726.143 7   2570774.872 1
  19966236.249   -22307233.562 7 -15991668.271 2
  19660078.741   -25534899.801 7   1403021.437 2
 90 10 11 15 31 59.9950000  0  4 06 13 12 09
  22257925.655     3882336.781 5  10160071.824 1
  20090068.866   -18414569.858 7   2587260.246 1
  19961009.452   -22334705.002 7 -16013074.600 2
  19664614.476   -25511063.811 7   1421594.885 2
 90 10 11 15 32 14.9950000  0  4 06 13 12 09
  22267805.257     3934234.027 5  10200511.034 1
  20094103.913   -18393367.124 7   2603781.819 1
  19955809.663   -22362030.573 7 -16034367.270 2
  19669178.077   -25487075.502 7   1440287.028 2
 90 10 11 15 32 29.9950000  0  4 06 13 12 09
  22277687.648     3986180.866 5  10240988.888 1
  20098146.929   -18372129.562 7   2620330.527 1
  19950635.351   -22389221.357 7 -16055554.913 2
  19673768.163   -25462946.041 7   1459089.159 2
 90 10 11 15 32 44.9950000  0  4 06 13 12 09
  22287584.898     4038179.217 5  10281506.874 1
  20102196.093   -18350854.976 7   2636908.088 1
  19945487.124   -22416274.631 7 -16076635.404 3
  19678386.851   -25438673.473 7   1478002.800 2
 90 10 11 15 32 59.9950000  0  4 06 13 12 09
  22297493.882     4090246.237 5  10322078.371 1
  20106254.022   -18329526.263 7   2653527.827 1
  19940368.148   -22443172.676 7 -16097594.935 2
  19683037.163   -25414240.652 7   1497041.314 2
 90 10 11 15 33 14.9950000  0  4 06 13 12 09
  22307413.366     4142374.050 5  10362697.259 1
  20110321.460   -18308150.968 7   2670183.858 1
  19935278.874   -22469922.849 7 -16118439.243 3
  19687715.405   -25389655.110 7   1516198.829 2
 90 10 11 15 33 29.9950000  0  4 06 13 12 09
  22317346.929     4194562.110 5  10403363.047 1
  20114397.249   -18286729.593 7   2686875.805 1
  19930216.429   -22496525.112 7 -16139168.292 2
  19692424.671   -25364917.578 7   1535474.782 2
 90 10 11 15 33 44.9950000  0  4 06 13 12 09
  22327291.187     4246813.956 5  10444078.570 1
  20118481.905   -18265258.396 7   2703606.571 1
  19925182.335   -22522975.226 7 -16159778.792 3
  19697162.944   -25340024.232 7   1554872.146 2
 90 10 11 15 33 59.9950000  0  4 06 13 12 09
  22337241.640     4299118.154 5  10484834.864 1
  20122576.437   -18243748.647 7   2720367.377 1
  19920176.023   -22549283.993 7 -16180279.147 3
  19701925.444   -25314986.154 7   1574382.287 2
 90 10 11 15 34 14.9950000  0  4 06 13 12 09
  22347204.702     4351466.871 5  10525625.873 1
  20126675.757   -18222208.108 7   2737152.176 1
  19915195.554   -22575458.606 7 -16200674.964 3
  19706715.679   -25289811.307 7   1593999.002 2
 90 10 11 15 34 29.9950000  0  4 06 13 12 09
  22357177.804     4403862.640 5  10566453.530 1
  20130779.491   -18200634.154 7   2753963.013 1
  19910240.983   -22601495.931 7 -16220963.808 3
  19711534.780   -25264497.028 7   1613724.365 2
 90 10 11 15 34 44.9950000  0  4 06 13 12 09
  22367154.679     4456318.122 5  10607327.725 1
  20134895.694   -18179014.063 7   2770809.801 1
  19905314.616   -22627382.753 7 -16241135.378 3
  19716378.804   -25239030.459 7   1633568.396 2
 90 10 11 15 34 59.9950000  0  4 06 13 12 09
  22377145.679     4508811.369 5  10648231.332 1
  20139013.390   -18157369.279 7   2787675.829 1
  19900413.929   -22653140.473 7 -16261206.349 3
  19721251.319   -25213433.396 7   1653514.109 2
 90 10 11 15 35 14.9950000  0  4 06 13 12 09
  22387142.358     4561347.182 5  10689168.133 1
  20143138.093   -18135694.963 7   2804564.867 1
  19895537.483   -22678763.590 7 -16281172.429 3
  19726147.671   -25187700.914 7   1673565.342 2
 90 10 11 15 35 29.9950000  0  4 06 13 12 09
  22397147.655     4613931.576 5  10730142.763 1
  20147271.062   -18113985.196 7   2821481.531 1
  19890688.413   -22704245.468 7 -16301028.457 3
  19731070.062   -25161826.833 7   1693726.913 2
 90 10 11 15 35 44.9950000  0  4 06 13 12 09
  22407169.179     4666570.859 5  10771160.166 1
  20151409.444   -18092233.775 7   2838430.647 1
  19885867.491   -22729579.162 7 -16320769.015 3
  19736023.530   -25135804.914 7   1714003.681 2
 90 10 11 15 35 59.9950000  0  4 06 13 12 09
  22417196.827     4719279.864 5  10812231.911 1
  20155558.233   -18070425.457 7   2855424.110 1
  19881077.765   -22754749.306 7 -16340382.131 3
  19741006.944   -25109620.263 7   1734407.253 2
 90 10 11 15 36 14.9950000  0  4 06 13 12 09
  22427237.233     4772041.315 5  10853344.515 1
  20159715.616   -18048577.273 7   2872448.628 1
  19876316.280   -22779772.546 7 -16359880.779 3
  19746018.194   -25083289.802 7   1754924.448 2
 90 10 11 15 36 29.9950000  0  4 06 13 12 09
  22437285.523     4824854.309 5  10894497.264 1
  20163880.108   -18026690.107 7   2889503.530 1
  19871582.030   -22804649.050 7 -16379265.084 3
  19751056.273   -25056814.415 7   1775554.566 2
 90 10 11 15 36 44.9950000  0  4 06 13 12 09
  22447347.069     4877720.210 5  10935691.250 1
  20168054.273   -18004762.366 7   2906590.045 1
  19866876.827   -22829377.005 7 -16398533.638 3
  19756121.944   -25030192.563 7   1796298.810 2
 90 10 11 15 36 59.9950000  0  4 06 13 12 09
  22457417.398     4930636.392 5  10976924.420 1
  20172234.382   -17982796.780 7   2923706.054 1
  19862199.171   -22853958.395 7 -16417687.985 3
  19761214.968   -25003426.848 7   1817155.166 2
 90 10 11 15 37 14.9950000  0  4 06 13 12 09
  22467498.437     4983607.723 5  11018200.565 1
  20176422.812   -17960788.238 7   2940855.530 1
  19857550.358   -22878387.825 7 -16436723.921 3
  19766333.530   -24976512.217 7   1838127.553 2
 90 10 11 15 37 29.9950000  0  4 06 13 12 09
  22477585.413     5036622.399 5  11059510.483 1
  20180617.062   -17938748.241 7   2958029.520 1
  19852928.608   -22902676.393 7 -16455650.097 3
  19771481.765   -24949460.428 7   1859206.818 2
 90 10 11 15 37 44.9950000  0  4 06 13 12 09
  22487682.827     5089683.756 5  11100856.773 1
  20184815.983   -17916673.509 7   2975230.580 1
  19848334.757   -22926820.337 7 -16474463.578 3
  19776659.210   -24922267.977 7   1880395.689 2
 90 10 11 15 37 59.9950000  0  4 06 13 12 09
  22497787.522     5142792.171 5  11142239.745 1
  20189025.397   -17894563.552 7   2992459.082 1
  19843767.163   -22950818.588 7 -16493163.531 3
  19781858.765   -24894934.483 7   1901694.461 2
 90 10 11 15 38 14.9950000  0  4 06 13 12 09
  22507904.983     5195948.517 5  11183660.067 1
  20193238.054   -17872417.062 7   3009716.061 1
  19839228.374   -22974669.727 7 -16511748.849 3
  19787088.694   -24867458.898 7   1923103.951 2
 90 10 11 15 38 29.9950000  0  4 06 13 12 09
  22518030.585     5249156.517 5  11225120.615 1
  20197462.093   -17850230.238 7   3027004.459 1
  19834717.788   -22998369.441 7 -16530216.175 3
  19792343.335   -24839837.456 7   1944627.100 2
 90 10 11 15 38 44.9950000  0  4 06 13 12 09
  22528166.562     5302414.772 5  11266620.363 1
  20201688.569   -17828004.382 7   3044323.273 1
  19830237.585   -23021918.418 7 -16548566.040 3
  19797629.983   -24812071.328 7   1966262.990 2
 90 10 11 15 38 59.9950000  0  4 06 13 12 09
  22538310.429     5355721.828 5  11308158.104 1
  20205927.585   -17805740.756 7   3061671.521 1
  19825784.773   -23045317.489 7 -16566799.098 3
  19802937.671   -24784161.896 7   1988010.547 2
 90 10 11 15 39 14.9950000  0  4 06 13 12 09
  22548461.733     5409071.197 5  11349728.820 1
  20210170.866   -17783445.678 7   3079044.270 1
  19821358.671   -23068572.625 7 -16584919.998 3
  19808275.210   -24756115.606 7   2009864.749 2
 90 10 11 15 39 29.9950000  0  4 06 13 12 09
  22558621.671     5462468.677 5  11391337.017 1
  20214419.187   -17761113.144 7   3096446.206 1
  19816962.882   -23091677.445 7 -16602923.769 3
  19813641.694   -24727926.517 7   2031830.215 2
 90 10 11 15 39 44.9950000  0  4 06 13 12 09
  22568791.530     5515906.622 5  11432976.771 1
  20218674.093   -17738750.815 7   3113871.357 1
  19812592.108   -23114639.193 7 -16620816.058 3
  19819031.632   -24699602.270 7   2053901.004 2
 90 10 11 15 39 59.9950000  0  4 06 13 12 09
  22578969.421     5569389.246 5  11474651.323 1
  20222936.148   -17716354.294 7   3131323.146 1
  19808251.788   -23137452.936 7 -16638593.015 3
  19824448.554   -24671138.580 7   2076080.448 2
 90 10 11 15 40 14.9950000  0  4 06 13 12 09
  22589156.023     5622921.167 5  11516364.300 1
  20227205.194   -17693918.829 7   3148805.288 1
  19803938.819   -23160113.377 7 -16656250.516 3
  19829892.460   -24642530.606 7   2098372.320 2
 90 10 11 15 40 29.9950000  0  4 06 13 12 09
  22599354.562     5676497.276 5  11558111.693 1
  20231480.773   -17671449.269 7   3166313.991 1
  19799655.452   -23182625.018 7 -16673792.074 3
  19835361.866   -24613783.415 7   2120772.673 2
 90 10 11 15 40 44.9950000  0  4 06 13 12 09
  22609552.187     5730109.432 5  11599887.191 1
  20235763.765   -17648953.814 7   3183842.880 1
  19795398.124   -23204995.489 7 -16691223.625 3
  19840856.929   -24584905.069 7   2143275.227 2
 90 10 11 15 40 59.9950000  0  4 06 13 12 09
  22619766.062     5783761.219 5  11641693.560 1
  20240049.952   -17626428.845 7   3201394.754 1
  19791169.023   -23227220.713 7 -16708541.997 3
  19846376.999   -24555891.861 7   2165882.867 2
 90 10 11 15 41 14.9950000  0  4 06 13 12 09
  22629981.069     5837454.781 5  11683532.514 1
  20244341.452   -17603871.801 7   3218971.635 1
  19786968.890   -23249297.817 7 -16725744.951 3
  19851924.882   -24526741.465 7   2188597.404 2
 90 10 11 15 41 29.9950000  0  4 06 13 12 09
  22640206.608     5891193.596 5  11725406.687 1
  20248640.507   -17581279.161 7   3236576.245 1
  19782796.515   -23271222.881 7 -16742829.437 3
  19857499.390   -24497450.487 7   2211421.486 2
 90 10 11 15 41 44.9950000  0  4 06 13 12 09
  22650442.804     5944979.113 5  11767317.265 1
  20252948.382   -17558649.196 7   3254209.944 1
  19778653.077   -23292993.799 7 -16759793.804 3
  19863098.530   -24468017.352 7   2234356.339 2
 90 10 11 15 41 59.9950000  0  4 06 13 12 09
  22660686.577     5998807.618 5  11809261.328 1
  20257259.007   -17535985.482 7   3271869.937 1
  19774539.530   -23314613.761 7 -16776640.550 3
  19868728.046   -24438445.471 7   2257399.310 2
 90 10 11 15 42 14.9950000  0  4 06 13 12 09
  22670938.241     6052676.989 5  11851237.268 1
  20261580.319   -17513289.749 7   3289554.885 1
  19770453.069   -23336084.301 7 -16793370.858 3
  19874378.905   -24408737.237 7   2280548.525 2
 90 10 11 15 42 29.9950000  0  4 06 13 12 09
  22681192.405     6106589.981 4  11893247.164 1
  20265904.351   -17490559.324 7   3307266.857 1
  19766396.882   -23357401.810 7 -16809981.919 3
  19880061.108   -24378889.630 7   2303806.346 2
 90 10 11 15 42 44.9950000  0  4 06 13 12 09
  22691464.015     6160549.283 5  11935293.140 1
  20270236.562   -17467791.706 7   3325007.818 1
  19762370.202   -23378563.530 7 -16826471.592 3
  19885767.312   -24348899.912 7   2327174.899 2
 90 10 11 15 42 59.9950000  0  4 06 13 12 09
  22701740.773     6214542.260 5  11977365.396 1
  20274575.429   -17444998.772 7   3342768.501 1
  19758371.077   -23399581.194 7 -16842849.011 3
  19891497.304   -24318780.353 7   2350644.630 2
 90 10 11 15 43 14.9950000  0  4 06 13 12 09
  22712018.023     6268553.146 5  12019451.566 1
  20278914.749   -17422196.676 7   3360536.328 1
  19754395.405   -23420470.347 7 -16859126.293 3
  19897251.655   -24288547.020 7   2374203.015 2
 90 10 11 15 43 29.9950000  0  4 06 13 12 09
  22722304.858     6322603.262 5  12061568.331 1
  20283258.499   -17399363.800 7   3378328.129 1
  19750449.233   -23441208.851 7 -16875286.185 3
  19903031.312   -24258178.410 7   2397866.809 2
 90 10 11 15 43 44.9950000  0  4 06 13 12 09
  22732597.179     6376691.486 5  12103714.770 1
  20287609.210   -17376500.912 7   3396143.327 1
  19746530.851   -23461797.246 7 -16891329.110 3
  19908835.866   -24227675.513 7   2421635.245 2
 90 10 11 15 43 59.9950000  0  4 06 13 12 09
  22742896.655     6430796.046 5  12145873.943 1
  20291962.335   -17353629.649 7   3413965.044 1
  19742637.991   -23482256.717 7 -16907271.571 3
  19914661.116   -24197060.131 7   2445491.326 2
 90 10 11 15 44 14.9950000  0  4 06 13 12 09
  22753197.140     6484938.015 5  12188062.272 1
  20296320.366   -17330729.000 7   3431809.661 1
  19738773.624   -23502565.721 7 -16923096.790 3
  19920511.108   -24166310.771 7   2469451.810 2
 90 10 11 15 44 29.9950000  0  4 06 13 12 09
  22763504.374     6539118.488 4  12230280.586 1
  20300684.077   -17307797.676 7   3449678.179 1
  19734936.944   -23522722.651 7 -16938803.511 3
  19926388.327   -24135426.953 7   2493517.065 2
 90 10 11 15 44 44.9950000  0  4 06 13 12 09
  22773822.874     6593330.872 5  12272523.765 1
  20305050.718   -17284841.957 7   3467565.709 1
  19731129.905   -23542733.432 7 -16954396.343 3
  19932291.546   -24104414.717 7   2517682.382 2
 90 10 11 15 44 59.9950000  0  4 06 13 12 09
  22784143.530     6647577.560 5  12314793.681 1
  20309424.257   -17261859.142 7   3485474.364 1
  19727350.257   -23562594.910 7 -16969872.844 3
  19938218.702   -24073271.304 7   2541949.921 2
 90 10 11 15 45 14.9950000  0  4 06 13 12 09
  22794474.632     6701860.682 5  12357091.964 1
  20313805.343   -17238847.128 7   3503405.756 1
  19723599.546   -23582304.790 7 -16985231.212 3
  19944169.265   -24041995.261 7   2566320.806 2
 90 10 11 15 45 29.9950000  0  4 06 13 12 09
  22804814.655     6756181.787 5  12399419.890 1
  20318189.202   -17215804.007 7   3521361.396 1
  19719878.491   -23601860.863 7 -17000469.730 3
  19950146.851   -24010584.238 7   2590796.868 2
 90 10 11 15 45 44.9950000  0  4 06 13 12 09
  22815152.991     6810537.765 4  12441774.963 1
  20322579.694   -17192732.901 7   3539338.836 1
  19716184.562   -23621265.674 7 -17015590.386 3
  19956148.702   -23979041.771 7   2615375.354 2
 90 10 11 15 45 59.9950000  0  4 06 13 12 09
  22825506.374     6864931.082 4  12484159.115 1
  20326975.249   -17169631.244 7   3557340.092 1
  19712521.702   -23640516.203 7 -17030590.818 3
  19962177.624   -23947365.265 7   2640058.287 2
 90 10 11 15 46 14.9950000  0  4 06 13 12 09
  22835864.679     6919364.569 4  12526574.568 1
  20331378.179   -17146496.012 7   3575367.500 1
  19708889.241   -23659608.894 7 -17045468.265 3
  19968230.554   -23915551.628 7   2664848.075 2
 90 10 11 15 46 29.9950000  0  4 06 13 12 09
  22846230.655     6973837.119 4  12569020.475 1
  20335787.398   -17123327.940 7   3593420.503 1
  19705285.726   -23678544.418 7 -17060223.241 3
  19974311.148   -23883602.085 7   2689743.762 2
 90 10 11 15 46 44.9950000  0  4 06 13 12 09
  22856605.335     7028351.651 4  12611499.079 1
  20340202.116   -17100124.053 7   3611501.414 1
  19701713.116   -23697319.359 7 -17074853.087 3
  19980417.718   -23851513.371 7   2714747.893 2
 90 10 11 15 46 59.9950000  0  4 06 13 12 09
  22866986.218     7082893.299 4  12653998.810 1
  20344621.272   -17076899.121 7   3629598.722 1
  19698167.897   -23715948.011 7 -17089368.947 3
  19986547.577   -23819300.626 7   2739848.674 2
 90 10 11 15 47 14.9950000  0  4 06 13 12 09
  22877371.671     7137464.072 4  12696521.253 1
  20349046.335   -17053651.148 7   3647713.984 1
  19694651.780   -23734427.942 7 -17103768.916 3
  19992700.421   -23786961.529 7   2765047.912 2
 90 10 11 15 47 29.9950000  0  4 06 13 12 09
  22887762.530     7192068.766 4  12739070.112 1
  20353476.007   -17030374.973 7   3665851.222 1
  19691164.358   -23752753.702 7 -17118048.752 3
  19998880.093   -23754491.327 7   2790349.306 2
 90 10 11 15 47 44.9950000  0  4 06 13 12 09
  22898156.499     7246705.359 3  12781643.829 1
  20357909.460   -17007072.374 7   3684009.056 1
  19687706.171   -23770926.814 7 -17132209.642 3
  20005083.741   -23721891.907 7   2815751.389 2
 90 10 11 15 47 59.9950000  0  4 06 13 12 09
  22908562.390     7301379.699 3  12824246.959 1
  20362350.288   -16983737.310 7   3702192.177 1
  19684278.312   -23788940.817 7 -17146246.550 3
  20011313.046   -23689157.487 7   2841258.669 2
 90 10 11 15 48 14.9950000  0  4 06 13 12 09
  22918971.390     7356089.260 3  12866877.528 1
  20366797.249   -16960372.202 7   3720398.713 1
  19680879.905   -23806797.848 7 -17160161.148 3
  20017567.835   -23656290.317 7   2866869.389 2
 90 10 11 15 48 29.9950000  0  4 06 13 12 09
  22929387.616     7410829.998 3  12909532.373 1
  20371248.343   -16936981.106 7   3738625.500 1
  19677511.694   -23824501.404 7 -17173956.147 3
  20023845.999   -23623294.782 7   2892580.138 2
 90 10 11 15 48 44.9950000  0  4 06 13 12 09
  22939816.101     7465600.466 4  12952210.407 1
  20375704.226   -16913565.316 7   3756871.521 1
  19674171.546   -23842052.449 7 -17187632.310 3
  20030148.960   -23590172.082 7   2918389.968 2
 90 10 11 15 48 59.9950000  0  4 06 13 12 09
  22950240.874     7520399.829 3  12994910.950 1
  20380163.608   -16890125.203 7   3775136.502 1
  19670860.976   -23859450.986 7 -17201189.635 3
  20036476.773   -23556922.825 7   2944298.418 2
 90 10 11 15 49 14.9950000  0  4 06 13 12 09
  22960677.405     7575241.373 3  13037644.378 1
  20384632.397   -16866647.514 7   3793430.760 1
  19667581.108   -23876683.385 7 -17214617.502 3
  20042829.780   -23523533.816 7   2970315.765 2
 90 10 11 15 49 29.9950000  0  4 06 13 12 09
  22971120.390     7630124.702 3  13080410.338 1
  20389106.351   -16843132.267 7   3811754.278 1
  19664334.077   -23893749.355 7 -17227915.690 3
  20049210.632   -23490005.373 7   2996441.762 2
 90 10 11 15 49 44.9950000  0  4 06 13 12 09
  22981570.538     7685041.913 3  13123202.704 1
  20393587.843   -16819587.313 7   3830100.947 1
  19661116.210   -23910656.394 7 -17241090.034 3
  20055615.335   -23456345.355 7   3022670.286 2
 90 10 11 15 49 59.9950000  0  4 06 13 12 09
  22992024.835     7739990.905 3  13166019.855 1
  20398073.288   -16796014.650 7   3848469.209 1
  19657929.241   -23927406.323 7 -17254141.951 3
  20062045.616   -23422556.003 7   3048999.585 2
 90 10 11 15 50 14.9950000  0  4 06 13 12 09
  23002492.132     7794973.077 3  13208862.846 1
  20402563.702   -16772412.493 7   3866860.455 1
  19654772.163   -23943996.938 7 -17267069.730 3
  20068500.788   -23388635.881 7   3075430.788 2
 90 10 11 15 50 29.9950000  0  4 06 13 12 09
  23012960.976     7849980.763 3  13251725.715 1
  20407059.648   -16748788.473 7   3885268.732 1
  19651644.148   -23960435.552 7 -17279879.067 3
  20074978.312   -23354592.250 7   3101958.229 2
 90 10 11 15 50 44.9950000  0  4 06 13 12 09
  23023432.694     7905011.546 3  13294606.587 1
  20411560.069   -16725144.795 7   3903692.328 1
  19648545.327   -23976723.945 7 -17292571.345 3
  20081480.671   -23320427.747 7   3128579.854 2
 90 10 11 15 50 59.9950000  0  4 06 13 12 09
  23033908.608     7960069.245 4  13337508.387 1
  20416062.522   -16701477.345 7   3922134.449 1
  19645474.046   -23992857.701 7 -17305143.132 3
  20088005.077   -23286138.361 7   3155298.794 2
 90 10 11 15 51 14.9950000  0  4 06 13 12 09
  23044391.772     8015152.669 3  13380430.306 1
  20420571.171   -16677787.341 7   3940594.133 1
  19642433.241   -24008837.660 7 -17317595.071 3
  20094554.280   -23251725.168 7   3182114.205 2
 90 10 11 15 51 29.9950000  0  4 06 13 12 09
  23054881.202     8070266.348 4  13423375.771 1
  20425084.796   -16654070.103 7   3959075.058 1
  19639422.819   -24024658.750 7 -17329923.215 3
  20101127.796   -23217183.864 7   3209029.441 2
 90 10 11 15 51 44.9950000  0  4 06 13 12 09
  23065377.398     8125411.276 4  13466345.584 1
  20429602.765   -16630324.609 7   3977577.984 1
  19636443.116   -24040319.481 7 -17342126.407 3
  20107724.569   -23182513.310 7   3236045.394 2
 90 10 11 15 51 59.9950000  0  4 06 13 12 09
  23075873.812     8180581.402 4  13509335.042 1
  20434125.999   -16606556.335 7   3996098.667 1
  19633492.335   -24055825.091 7 -17354208.722 3
  20114345.733   -23147719.447 7   3263157.426 2
 90 10 11 15 52 14.9950000  0  4 06 13 12 09
  23086375.202     8235774.664 4  13552342.491 1
  20438653.382   -16582767.272 7   4014635.546 1
  19630570.280   -24071177.356 7 -17366171.548 3
  20120990.132   -23112804.300 7   3290363.975 2
 90 10 11 15 52 29.9950000  0  4 06 13 12 09
  23096884.304     8290995.838 5  13595371.702 1
  20443184.882   -16558952.658 7   4033192.335 1
  19627679.397   -24086371.100 7 -17378010.853 3
  20127658.179   -23077763.020 7   3317668.806 2
 90 10 11 15 52 44.9950000  0  4 06 13 12 09
  23107394.671     8346244.132 4  13638422.100 1
  20447721.343   -16535113.023 7   4051768.626 1
  19624818.280   -24101406.705 7 -17389726.931 3
  20134348.921   -23042596.657 7   3345071.102 2
 90 10 11 15 52 59.9950000  0  4 06 13 12 09
  23117915.179     8401519.923 4  13681493.884 1
  20452263.046   -16511247.576 7   4070365.021 1
  19621987.647   -24116283.189 7 -17401319.021 3
  20141066.023   -23007304.392 7   3372571.504 2
 90 10 11 15 53 14.9950000  0  4 06 13 12 09
  23128439.226     8456816.366 4  13724581.778 1
  20456807.663   -16487363.157 7   4088976.202 1
  19619186.421   -24131006.773 7 -17412791.970 3
  20147804.460   -22971893.419 7   3400164.408 2
 90 10 11 15 53 29.9950000  0  4 06 13 12 09
  23138965.202     8512137.958 4  13767689.274 1
  20461357.413   -16463455.151 7   4107605.762 1
  19616414.616   -24145572.543 7 -17424141.947 3
  20154566.679   -22936358.830 7   3427853.631 2
 90 10 11 15 53 44.9950000  0  4 06 13 12 09
  23149498.593     8567483.689 4  13810815.566 1
  20465910.405   -16439524.413 7   4126253.037 1
  19613673.210   -24159980.893 7 -17435369.258 3
  20161351.210   -22900701.829 7   3455638.244 2
 90 10 11 15 53 59.9950000  0  4 06 13 12 09
  23160032.702     8622844.855 4  13853953.881 1
  20470468.663   -16415579.347 7   4144911.476 1
  19610958.663   -24174240.119 7 -17446480.366 3
  20168159.952   -22864931.126 7   3483511.451 2
 90 10 11 15 54 14.9950000  0  4 06 13 12 09
  23170576.882     8678235.389 4  13897115.094 1
  20475029.921   -16391605.978 7   4163591.963 1
  19608276.679   -24188335.947 7 -17457464.158 3
  20174989.194   -22829032.761 7   3511484.136 2
 90 10 11 15 54 29.9950000  0  4 06 13 12 09
  23181121.265     8733653.148 4  13940297.519 1
  20479597.718   -16367606.080 7   4182293.134 1
  19605624.671   -24202269.861 7 -17468321.779 3
  20181846.265   -22793008.749 7   3539554.730 2
 90 10 11 15 54 44.9950000  0  4 06 13 12 09
  23191670.491     8789096.723 4
  20484169.843   -16343580.879 7   4201014.026 1
  19603003.773   -24216042.792 7 -17479053.953 3
  20188724.460   -22756860.236 7   3567722.334 2
 90 10 11 15 54 59.9950000  0  4 06 13 12 09
  23202226.929     8844563.618 4
  20488745.288   -16319532.648 7   4219752.851 1
  19600413.194   -24229656.742 7 -17489662.257 3
  20195626.530   -22720589.953 7   3595984.826 2
 90 10 11 15 55 14.9950000  0  4 06 13 12 09
  23212787.140     8900054.364 4
  20493325.413   -16295460.612 7   4238510.232 1
  19597852.819   -24243110.743 7 -17500145.917 3
  20202551.749   -22684197.282 7   3624342.686 2
 90 10 11 15 55 29.9950000  0  4 06 13 12 09
  23223347.437     8955565.554 4
  20497910.397   -16271368.237 7   4257283.455 1
  19595322.913   -24256407.702 7 -17510507.209 3
  20209500.687   -22647685.707 7   3652793.192 2
 90 10 11 15 55 44.9950000  0  4 06 13 12 09
  23233918.366     9011099.003 4        -0.23011
  20502500.202   -16247253.483 7   4276074.126 1
  19592822.530   -24269545.421 7 -17520744.419 3
  20216470.991   -22611053.342 7   3681337.822 2
 90 10 11 15 55 59.9950000  0  4 06 13 12 09
  23244492.187     9066653.408 4     43288.647 1
  20507092.468   -16223117.467 7   4294881.364 1
  19590353.030   -24282524.674 7 -17530858.151 3
  20223464.280   -22574301.462 7   3709975.584 2
 90 10 11 15 56 14.9950000  0  4 06 13 12 09
  23255066.335     9122226.085 4     86591.774 1
  20511689.499   -16198962.521 7   4313703.345 1
  19587912.858   -24295347.499 7 -17540849.991 3
  20230479.851   -22537432.854 7   3738704.295 2
 90 10 11 15 56 29.9950000  0  4 06 13 12 09
  23265639.655     9177819.556 4    129911.099 1
  20516289.976   -16174786.106 7   4332542.056 1
  19585502.976   -24308011.079 7 -17550717.741 3
  20237519.054   -22500444.734 7   3767526.142 2
 90 10 11 15 56 44.9950000  0  4 06 13 12 09
  23276227.866     9233433.732 4    173246.551 1
  20520894.046   -16150587.982 7   4351397.691 1
  19583124.054   -24320514.880 7 -17560460.991 3
  20244579.476   -22463337.454 7   3796440.836 2
 90 10 11 15 56 59.9950000  0  4 06 13 12 09
  23286816.015     9289070.414 4    216599.530 1
  20525504.218   -16126366.144 7   4370271.795 1
  19580775.515   -24332856.677 7 -17570078.002 3
  20251665.194   -22426108.791 7   3825450.109 2
 90 10 11 15 57 14.9950000  0  4 06 13 12 09
  23297407.210     9344728.854 4    259969.440 1
  20530118.069   -16102121.103 7   4389163.990 1
  19578457.343   -24345036.814 7 -17579569.046 3
  20258772.312   -22388759.774 7   3854553.166 2
 90 10 11 15 57 29.9950000  0  4 06 13 12 09
  23307997.351     9400403.806 3    303352.275 1
  20534734.616   -16077857.946 7   4408070.298 1
  19576169.577   -24357060.077 7 -17588937.847 3
  20265901.366   -22351295.505 7   3883746.028 2
 90 10 11 15 57 44.9950000  0  4 06 13 12 09
  23318606.116     9456110.623 3    346759.860 1
  20539358.390   -16053561.303 7   4427002.694 1
  19573914.249   -24368910.570 7 -17598172.027 3
  20273056.218   -22313700.625 7   3913040.669 2
 90 10 11 15 57 59.9950000  0  4 06 13 12 09
  23329203.741     9511838.921 3    390184.222 1
  20543986.233   -16029241.546 7   4445953.110 1
  19571690.944   -24380598.245 7 -17607279.337 3
  20280232.913   -22275985.660 7   3942428.878 2
 90 10 11 15 58 14.9950000  0  4 06 13 12 09
  23339816.468     9567579.409 3    433618.059 1
  20548617.429   -16004907.650 7   4464914.545 1
  19569496.616   -24392131.922 7 -17616266.646 3
  20287430.546   -22238159.931 7   3971903.398 2
 90 10 11 15 58 29.9950000  0  5 20 06 13 12 09
  23249925.749          -0.11714
  23350425.757     9623334.038 3    477062.955 1
  20553251.319   -15980557.254 7   4483888.830 1
  19567330.835   -24403509.121 7 -17625132.025 3
  20294650.710   -22200220.995 7   4001466.130 2
 90 10 11 15 58 44.9950000  0  5 20 06 13 12 09
  23239311.640      -55794.429 4
  23361039.827     9679109.799 2    520524.255 1
  20557890.023   -15956183.381 7   4502881.413 1
  19565196.351   -24414722.501 7 -17633869.754 3
  20301892.319   -22162162.317 7   4031122.171 2
 90 10 11 15 58 59.9950000  0  5 20 06 13 12 09
  23228692.851     -111594.158 4
  23371653.648     9734902.786 2    563999.027 1
  20562530.249   -15931789.622 7   4521889.485 1
  19563093.671   -24425775.441 7 -17642482.461 3
  20309157.288   -22123987.602 7   4060868.627 2
 90 10 11 15 59 14.9950000  0  5 20 06 13 12 09
  23218074.812     -167400.509 3
  23382278.351     9790711.426 2    607485.965 1
  20567176.499   -15907377.512 7   4540911.871 1
  19561020.718   -24436669.134 7 -17650971.083 3
  20316443.898   -22085698.629 7   4090704.116 2
 90 10 11 15 59 29.9950000  0  4 20 13 12 09
  23207449.358     -223210.728 3
  20571826.343   -15882944.674 7   4559950.399 1
  19558978.280   -24447401.038 7 -17659333.637 3
  20323750.890   -22047293.022 7   4120630.486 2
 90 10 11 15 59 44.9950000  0  4 20 13 12 09
  23196834.226     -279030.245 4        -0.38711
  20576477.851   -15858496.729 7   4579000.701 1
  19556966.116   -24457976.383 7 -17667574.191 3
  20331081.476   -22008776.905 7   4150642.967 2
 90 10 11 15 59 59.9950000  0  4 20 13 12 09
  23186208.241     -334852.844 3    -43498.581 1
  20581134.015   -15834027.744 7   4598067.396 1
  19554985.374   -24468389.190 8 -17675688.099 3
  20338432.171   -21970144.338 7   4180746.189 2
 90 10 11 16  0 14.9950000  0  4 20 13 12 09
  23175587.983     -390678.316 3    -86998.987 1
  20585795.319   -15809537.564 7   4617150.602 1
  19553034.358   -24478639.155 7 -17683675.110 3
  20345805.632   -21931395.685 7   4210939.863 2
 90 10 11 16  0 29.9950000  0  4 20 13 12 09
  23164960.897     -446507.668 3   -130502.419 1
  20590459.202   -15785027.742 7   4636249.116 1
  19551114.819   -24488727.467 7 -17691536.154 3
  20353201.343   -21892532.591 7   4241222.716 2
 90 10 11 16  0 44.9950000  0  4 20 13 12 09
  23154330.007     -502345.371 3   -174012.371 1
  20595125.101   -15760503.409 7   4655358.937 1
  19549225.085   -24498658.787 7 -17699274.872 3
  20360618.655   -21853560.018 7   4271590.874 2
 90 10 11 16  0 59.9950000  0  4 20 13 12 09
  23143706.148     -558186.577 3   -217525.024 1
  20599796.749   -15735960.074 7   4674483.555 1
  19547365.405   -24508428.274 7 -17706887.487 3
  20368054.726   -21814473.586 7   4302047.750 2
 90 10 11 16  1 14.9950000  0  4 20 13 12 09
  23133081.468     -614037.059 3   -261044.953 1
  20604469.249   -15711403.439 7   4693618.544 1
  19545535.663   -24518041.751 7 -17714378.536 3
  20375514.858   -21775279.567 7   4332588.463 2
 90 10 11 16  1 29.9950000  0  4 20 13 12 09
  23122449.569     -669892.524 3   -304568.732 1
  20609145.968   -15686829.875 7   4712766.728 1
  19543737.288   -24527495.296 7 -17721744.962 3
  20382994.593   -21735974.419 7   4363215.768 2
 90 10 11 16  1 44.9950000  0  4 20 13 12 09
  23111823.640     -725754.463 3   -348097.549 1
  20613825.179   -15662241.203 7   4731926.675 1
  19541968.069   -24536790.534 7 -17728988.033 3
  20390493.335   -21696560.315 7   4393927.974 2
 90 10 11 16  1 59.9950000  0  4 20 13 12 09
  23101186.796     -781621.547 4   -391630.398 1
  20618506.616   -15637636.353 7   4751099.226 1
  19540230.616   -24545926.193 7 -17736106.754 3
  20398016.046   -21657036.266 7   4424725.846 2
 90 10 11 16  2 14.9950000  0  4 20 13 12 09
  23090554.960     -837494.906 3   -435168.141 1
  20623193.210   -15613016.603 7   4770283.396 1
  19538521.632   -24554903.235 7 -17743101.881 3
  20405557.062   -21617403.692 7   4455608.289 2
 90 10 11 16  2 29.9950000  0  4 20 13 12 09
  23079924.523     -893370.729 3   -478707.796 1
  20627880.694   -15588378.619 7   4789481.761 1
  19536844.343   -24563718.076 7 -17749970.612 3
  20413119.937   -21577659.608 7   4486577.617 2
 90 10 11 16  2 44.9950000  0  4 20 13 12 09
  23069288.968     -949251.020 3   -522250.908 1
  20632571.202   -15563724.722 7   4808692.539 1
  19535197.944   -24572372.928 7 -17756714.677 3
  20420704.577   -21537806.498 7   4517631.904 2
 90 10 11 16  2 59.9950000  0  4 20 13 12 09
  23058657.155    -1005127.555 3   -565791.130 1
  20637268.647   -15539046.946 7   4827921.915 1
  19533582.819   -24580859.621 7 -17763327.713 3
  20428309.358   -21497836.697 7   4548777.115 2
 90 10 11 16  3 14.9950000  0  4 20 13 12 09
  23048025.273    -1061007.832 3   -609334.266 1
  20641966.015   -15514353.409 7   4847163.572 1
  19531998.905   -24589186.005 7 -17769815.831 3
  20435938.312   -21457758.364 7   4580006.897 2
 90 10 11 16  3 29.9950000  0  4 20 13 12 09
  23037388.921    -1116893.832 4   -652881.834 1
  20646668.148   -15489646.478 7   4866415.664 1
  19530444.140   -24597354.096 7 -17776180.609 3
  20443583.187   -21417574.123 7   4611319.200 2
 90 10 11 16  3 44.9950000  0  4 20 13 12 09
  23026754.991    -1172780.135 4   -696429.668 1
  20651374.882   -15464920.921 7   4885682.274 1
  19528920.569   -24605358.424 7 -17782417.774 3
  20451251.452   -21377278.719 7   4642718.131 2
 90 10 11 16  3 59.9950000  0  4 20 13 12 09
  23016121.835    -1228665.453 4   -739976.715 1
  20656084.030   -15440175.472 7   4904964.377 1
  19527428.108   -24613197.794 7 -17788526.401 3
  20458941.460   -21336871.431 7   4674204.241 2
 90 10 11 16  4 14.9950000  0  4 20 13 12 09
  23005486.991    -1284552.295 5   -783524.979 1
  20660795.304   -15415413.190 7   4924259.607 1
  19525967.647   -24620874.933 7 -17794508.614 3
  20466653.038   -21296355.508 7   4705774.999 2
 90 10 11 16  4 29.9950000  0  4 20 13 12 09
  22994849.687    -1340442.458 5   -827075.801 1
  20665510.538   -15390636.414 7   4943566.123 1
  19524537.226   -24628391.835 7 -17800365.970 3
  20474381.804   -21255733.269 7   4737428.599 2
 90 10 11 16  4 44.9950000  0  4 20 13 12 09
  22984214.913    -1396332.454 5   -870626.524 1
  20670228.788   -15365841.871 7   4962886.481 1
  19523138.437   -24635745.042 7 -17806095.770 3
  20482132.241   -21215001.842 7   4769167.280 2
 90 10 11 16  4 59.9950000  0  4 20 13 12 09
  22973579.827    -1452221.259 5   -914176.303 1
  20674950.319   -15341028.808 7   4982221.281 1
  19521769.991   -24642933.723 7 -17811697.368 3
  20489905.413   -21174160.846 7   4800991.341 2
 90 10 11 16  5 14.9950000  0  4 20 13 12 09
  22962940.343    -1508111.469 5   -957727.196 1
  20679675.507   -15316200.253 7   5001568.144 1
  19520433.812   -24649960.451 7 -17817172.771 3
  20497696.812   -21133213.173 6   4832898.527 2
 90 10 11 16  5 29.9950000  0  4 20 13 12 09
  22952309.757    -1563999.878 5  -1001276.667 1
  20684404.304   -15291353.288 7   5020929.355 1
  19519127.710   -24656822.181 7 -17822519.601 3
  20505510.335   -21092156.100 6   4864890.962 2
 90 10 11 16  5 44.9950000  0  4 20 13 12 09
  22941675.218    -1619886.096 5  -1044824.421 1
  20689134.405   -15266487.872 7   5040304.938 1
  19517852.874   -24663518.646 7 -17827737.653 3
  20513343.273   -21050989.996 6   4896968.351 2
 90 10 11 16  5 59.9950000  0  4 20 13 12 09
  22931038.319    -1675772.467 5  -1088372.266 1
  20693870.140   -15241606.780 7   5059692.741 1
  19516610.257   -24670052.484 7 -17832828.984 3
  20521196.726   -21009717.972 6   4929128.274 2
 90 10 11 16  6 14.9950000  0  4 20 13 12 09
  22920403.023    -1731659.713 5  -1131920.826 1
  20698606.968   -15216710.922 7   5079092.047 1
  19515397.577   -24676424.640 7 -17837794.326 3
  20529071.140   -20968341.109 6   4961369.894 2
 90 10 11 16  6 29.9950000  0  4 20 13 12 09
  22909767.140    -1787553.043 5  -1175474.157 1
  20703346.741   -15191805.820 7   5098498.561 1
  19514214.929   -24682640.284 7 -17842637.712 3
  20536962.632   -20926865.029 6   4993688.826 2
 90 10 11 16  6 44.9950000  0  4 20 13 12 09
  22899133.077    -1843448.582 5  -1219029.152 1
  20708087.351   -15166888.100 7   5117914.901 1
  19513061.890   -24688695.934 7 -17847356.428 3
  20544874.476   -20885286.718 6   5026087.416 2
 90 10 11 16  6 59.9950000  0  4 20 13 12 09
  22888494.921    -1899344.459 5  -1262584.452 1
  20712832.241   -15141956.176 7   5137342.323 1
  19511941.343   -24694589.850 7 -17851949.118 3
  20552807.171   -20843604.817 6   5058566.728 2
 90 10 11 16  7 14.9950000  0  4 20 13 12 09
  22877860.405    -1955241.458 5  -1306140.575 1
  20717579.874   -15117011.016 7   5156780.042 1
  19510850.390   -24700322.710 8 -17856416.314 3
  20560760.452   -20801820.572 6   5091125.781 2
 90 10 11 16  7 29.9950000  0  4 20 13 12 09
  22867221.312    -2011140.879 5  -1349698.661 1
  20722328.163   -15092054.572 7   5176226.561 1
  19509789.796   -24705896.238 8 -17860759.349 3
  20568729.726   -20759936.124 6   5123762.918 2
 90 10 11 16  7 44.9950000  0  4 20 13 12 09
  22856584.991    -2067039.471 5  -1393256.081 1
  20727079.991   -15067083.767 7   5195684.269 1
  19508760.851   -24711307.271 8 -17864975.765 3
  20576719.991   -20717948.349 6   5156480.568 2
 90 10 11 16  7 59.9950000  0  4 20 13 12 09
  22845947.772    -2122933.105 5  -1436809.590 1
  20731836.304   -15042094.809 7   5215156.134 1
  19507761.046   -24716551.716 7 -17869062.379 3
  20584730.413   -20675853.849 6   5189281.381 1
 90 10 11 16  8 14.9950000  0  4 20 13 12 09
  22835311.163    -2178826.544 5  -1480363.002 1
  20736593.343   -15017092.851 7   5234638.116 1
  19506794.507   -24721634.635 8 -17873023.120 3
  20592758.468   -20633657.892 6   5222161.254 2
 90 10 11 16  8 29.9950000  0  4 20 13 12 09
  22824674.132    -2234720.506 5  -1523916.768 1
  20741354.233   -14992078.783 7   5254129.537 1
  19505857.780   -24726556.868 7 -17876858.658 3
  20600808.624   -20591361.899 6   5255119.073 1
 90 10 11 16  8 44.9950000  0  4 20 13 12 09
  22814037.022    -2290617.879 5  -1567473.205 1
  20746115.202   -14967055.869 7   5273627.854 1
  19504950.882   -24731321.457 7 -17880571.351 3
  20608874.593   -20548969.387 6   5288152.102 2
 90 10 11 16  8 59.9950000  0  4 20 13 12 09
  22803403.491    -2346510.641 5  -1611026.056 1
  20750880.741   -14942016.405 7   5293139.074 1
  19504075.679   -24735920.591 7 -17884155.120 3
  20616960.944   -20506472.847 6   5321266.199 1
 90 10 11 16  9 14.9950000  0  4 20 13 12 09
  22792769.233    -2402397.216 5  -1654574.067 1
  20755647.757   -14916959.423 7   5312663.932 1
  19503233.179   -24740352.978 8 -17887608.951 3
  20625068.374   -20463871.255 6   5354462.142 1
 90 10 11 16  9 29.9950000  0  4 20 13 12 09
  22782134.101    -2458281.872 5  -1698120.600 1
  20760418.374   -14891889.264 7   5332199.064 1
  19502420.421   -24744622.971 8 -17890936.248 3
  20633195.913   -20421169.545 6   5387736.110 1
 90 10 11 16  9 44.9950000  0  4 20 13 12 09
  22771502.015    -2514161.990 5  -1741663.584 1
  20765193.601   -14866803.881 7   5351746.061 1
  19501639.319   -24748728.040 8 -17894135.030 3
  20641340.835   -20378365.792 6   5421089.586 1
 90 10 11 16  9 59.9950000  0  4 20 13 12 09
  22760863.538    -2570042.176 5  -1785206.618 1
  20769967.898   -14841708.359 7   5371300.957 1
  19500887.585   -24752673.143 8 -17897209.166 3
  20649503.929   -20335465.071 6   5454518.623 1
 90 10 11 16 10 14.9950000  0  4 20 13 12 09
  22750232.835    -2625916.908 5  -1828745.415 1
  20774746.952   -14816597.113 7   5390868.119 1
  19500168.812   -24756452.643 8 -17900154.252 3
  20657688.179   -20292462.284 6   5488027.197 1
 90 10 11 16 10 29.9950000  0  4 20 13 12 09
  22739601.429    -2681791.072 5  -1872283.759 1
  20779527.015   -14791475.408 7   5410443.423 1
  19499480.202   -24760071.723 8 -17902974.342 3
  20665887.765   -20249362.969 6   5521610.979 2
 90 10 11 16 10 44.9950000  0  4 20 13 12 09
  22728968.351    -2737659.570 5  -1915817.679 1
  20784310.718   -14766338.678 7   5430030.435 1
  19498822.733   -24763525.673 8 -17905665.753 3
  20674110.577   -20206162.706 6   5555273.425 1
 90 10 11 16 10 59.9950000  0  4 20 13 12 09
  22718338.765    -2793526.247 5  -1959350.206 1
  20789095.851   -14741191.000 7   5449625.981 1
  19498195.546   -24766818.435 8 -17908231.566 3
  20682348.851   -20162865.826 6   5589011.161 1
 90 10 11 16 11 14.9950000  0  4 20 13 12 09
  22707706.851    -2849390.449 5  -2002880.776 1
  20793883.694   -14716031.955 7   5469230.376 1
  19497600.444   -24769949.439 8 -17910671.333 3
  20690606.608   -20119472.428 6   5622824.101 1
 90 10 11 16 11 29.9950000  0  4 20 13 12 09
  22697076.593    -2905251.813 5  -2046409.133 1
  20798674.101   -14690861.475 7   5488843.693 1
  19497035.741   -24772918.647 8 -17912985.025 3
  20698882.562   -20075982.510 6   5656712.257 2
 90 10 11 16 11 44.9950000  0  4 20 13 12 09
  22686448.858    -2961110.744 5  -2089935.594 1
  20803465.374   -14665680.260 7   5508465.370 1
  19496501.515   -24775726.610 8 -17915173.075 3
  20707176.241   -20032397.219 6   5690674.721 1
 90 10 11 16 11 59.9950000  0  4 20 13 12 09
  22675820.179    -3016963.935 5  -2133457.588 1
  20808260.312   -14640485.389 7   5528097.697 1
  19495998.226   -24778370.324 8 -17917233.131 3
  20715489.296   -19988713.747 6   5724713.699 1
 90 10 11 16 12 14.9950000  0  4 20 13 12 09
  22665190.218    -3072812.121 5  -2176975.673 1
  20813056.194   -14615278.155 7   5547739.635 1
  19495526.257   -24780850.804 8 -17919166.006 3
  20723820.093   -19944933.530 6   5758828.053 1
 90 10 11 16 12 29.9950000  0  4 20 13 12 09
  22654567.452    -3128654.476 5  -2220489.225 1
  20817855.569   -14590058.225 7   5567391.473 1
  19495084.327   -24783167.525 8 -17920971.269 2
  20732170.007   -19901056.528 6   5793017.829 1
 90 10 11 16 12 44.9950000  0  4 20 13 12 09
  22643942.421    -3184491.708 5  -2263998.783 1
  20822657.585   -14564826.225 7   5587052.728 1
  19494674.851   -24785321.235 8 -17922649.512 2
  20740538.312   -19857083.838 6   5827282.169 1
 90 10 11 16 12 59.9950000  0  4 20 13 12 09
  22633313.382    -3240328.961 5  -2307508.369 1
  20827459.608   -14539587.687 7   5606719.074 1
  19494296.085   -24787317.031 8 -17924204.705 3
  20748923.476   -19813020.996 6   5861616.751 1
 90 10 11 16 13 14.9950000  0  4 20 13 12 09
  22622688.405    -3296163.538 5  -2351015.855 1
  20832264.585   -14514340.464 7   5626392.183 1
  19493946.366   -24789152.543 8 -17925635.004 3
  20757325.913   -19768865.955 6   5896023.188 1
 90 10 11 16 13 29.9950000  0  4 20 13 12 09
  22612069.647    -3351991.641 5  -2394518.298 1
  20837071.538   -14489081.086 7   5646074.761 1
  19493628.460   -24790824.262 8 -17926937.669 3
  20765745.374   -19724615.721 6   5930503.792 1
 90 10 11 16 13 44.9950000  0  4 20 13 12 09
  22601440.366    -3407818.582 5  -2438019.826 1
  20841879.601   -14463814.907 7   5665762.648 1
  19493341.030   -24792337.674 8 -17928116.983 3
  20774181.999   -19680275.920 6   5965054.186 1
 90 10 11 16 13 59.9950000  0  4 20 13 12 09
  22590819.241    -3463641.213 5  -2481518.018 1
  20846689.468   -14438539.370 7   5685457.823 1
  19493082.077   -24793689.888 8 -17929170.689 3
  20782639.819   -19635844.069 6   5999676.310 1
 90 10 11 16 14 14.9950000  0  4 20 13 12 09
  22580196.304    -3519456.777 5  -2525010.669 1
  20851501.632   -14413252.049 7   5705162.179 1
  19492857.226   -24794878.618 8 -17930096.998 3
  20791111.046   -19591318.350 6   6034371.573 1
 90 10 11 16 14 29.9950000  0  4 20 13 12 09
  22569580.960    -3575264.458 5  -2568497.207 1
  20856316.272   -14387952.483 7   5724876.076 1
  19492662.648   -24795903.219 8 -17930895.420 3
  20799602.843   -19546698.351 6   6069140.306 1
 90 10 11 16 14 44.9950000  0  4 20 13 12 09
  22558959.366    -3631068.982 5  -2611981.275 1
  20861132.007   -14362645.581 7   5744595.688 1
  19492496.390   -24796768.515 8 -17931569.705 3
  20808110.921   -19501989.523 6   6103978.260 1
 90 10 11 16 14 59.9950000  0  4 20 13 12 09
  22548341.632    -3686864.930 5  -2655458.663 1
  20865949.647   -14337326.369 7   5764324.883 1
  19492365.632   -24797469.322 8 -17932115.818 3
  20816637.733   -19457186.866 6   6138889.315 1
 90 10 11 16 15 14.9950000  0  4 20 13 12 09
  22537724.968    -3742655.544 5  -2698931.888 1
  20870770.366   -14311998.369 7   5784060.946 1
  19492263.140   -24798009.046 8 -17932536.411 3
  20825179.960   -19412294.340 6   6173870.408 1
 90 10 11 16 15 29.9950000  0  4 20 13 12 09
  22527113.491    -3798437.342 5  -2742398.247 1
  20875592.452   -14286658.289 7   5803806.414 1
  19492191.413   -24798384.407 8 -17932828.937 3
  20833739.780   -19367308.915 6   6208923.883 1
 90 10 11 16 15 44.9950000  0  4 20 13 12 09
  22516493.726    -3854211.962 5  -2785859.004 1
  20880415.726   -14261308.303 7   5823559.599 1
  19492149.718   -24798597.669 8
  20842316.741   -19322233.071 6   6244047.822 1
 90 10 11 16 15 59.9950000  0  4 20 13 12 09
  22505883.905    -3909978.709 5  -2829313.621 1
  20885242.312   -14235947.952 7   5843320.857 1
  19492138.937   -24798648.103 7
  20850912.780   -19277066.525 6   6279242.430 1
 90 10 11 16 16 14.9950000  0  4 20 13 12 09
  22495275.835    -3965739.776 5  -2872763.812 1
  20890070.147   -14210579.835 7   5863088.178 1
  19492159.569   -24798538.078 8
  20859525.319   -19231812.079 6   6314505.529 1
 90 10 11 16 16 29.9950000  0  4 20 13 12 09
  22484661.726    -4021495.565 5  -2916209.910 1
  20894897.437   -14185204.761 7   5882860.896 1
  19492213.030   -24798268.334 8
  20868150.913   -19186470.874 6   6349836.237 1
 90 10 11 16 16 44.9950000  0  4 20 13 12 09
  22474058.249    -4077244.095 5  -2959650.342 1
  20899728.976   -14159821.279 7   5902640.179 1
  19492295.366   -24797837.251 8
  20876798.937   -19141041.811 6   6385235.407 1
 90 10 11 16 16 59.9950000  0  4 20 13 12 09
  22463449.515    -4132980.638 5  -3003081.440 1
  20904560.835   -14134424.851 7   5922429.548 1
  19492409.460   -24797240.139 8        -0.49813
  20885461.015   -19095520.441 6   6420706.500 1
 90 10 11 16 17 14.9950000  0  4 20 13 12 09
  22452847.601    -4188711.133 5  -3046507.814 1
  20909396.663   -14109021.804 7   5942224.074 1
  19492553.280   -24796483.466 8       589.083 3
  20894139.132   -19049913.446 6   6456244.317 1
 90 10 11 16 17 29.9950000  0  4 20 13 12 09
  22442242.233    -4244430.592 5  -3089925.595 1
  20914232.991   -14083607.393 7   5962027.451 1
  19492727.632   -24795562.373 8      1306.784 3
  20902836.273   -19004216.322 6   6491852.358 1
 90 10 11 16 17 44.9950000  0  4 20 13 12 09
  22431639.405    -4300142.043 5  -3133337.113 1
  20919070.046   -14058184.750 7   5981837.232 1
  19492932.788   -24794480.016 8      2150.139 3
  20911547.601   -18958432.481 6   6527527.975 1
 90 10 11 16 17 59.9950000  0  4 20 13 12 09
  22421038.421    -4355843.002 5  -3176740.467 1
  20923909.288   -14032751.887 7   6001654.981 1
  19493170.108   -24793234.297 7      3120.799 3
  20920276.577   -18912560.496 6   6563272.276 1
 90 10 11 16 18 14.9950000  0  4 20 13 12 09
  22410440.499    -4411538.566 5  -3220139.623 1
  20928750.608   -14007314.143 7   6021476.540 1
  19493437.429   -24791830.449 8      4214.667 3
  20929021.819   -18866605.844 6   6599080.987 1
 90 10 11 16 18 29.9950000  0  4 20 13 12 09
  22399843.804    -4467226.025 5  -3263532.451 1
  20933592.038   -13981869.127 7   6041303.759 1
  19493735.804   -24790266.173 8      5433.551 3
  20937782.663   -18820566.539 6   6634955.662 1
 90 10 11 16 18 44.9950000  0  4 20 13 12 09
  22389249.929    -4522904.265 5  -3306918.125 1
  20938435.194   -13956416.097 7   6061137.224 1
  19494063.937   -24788540.604 8      6778.112 3
  20946559.405   -18774441.891 6   6670896.842 1
 90 10 11 16 18 59.9950000  0  4 20 13 12 09
  22378655.952    -4578573.004 5  -3350296.385 1
  20943281.062   -13930955.111 7   6080976.887 1
  19494422.858   -24786653.732 8      8248.359 3
  20955353.007   -18728232.355 6   6706904.169 1
 90 10 11 16 19 14.9950000  0  4 20 13 12 09
  22368065.843    -4634232.249 5  -3393667.247 1
  20948126.538   -13905486.644 7   6100822.392 1
  19494813.343   -24784605.895 8      9844.040 3
  20964163.687   -18681938.477 6   6742977.212 1
 90 10 11 16 19 29.9950000  0  4 20 13 12 09
  22357475.413    -4689880.486 5  -3437029.534 1
  20952975.858   -13880009.526 7   6120674.636 1
  19495233.101   -24782395.868 8     11566.104 3
  20972990.280   -18635559.557 6   6779116.528 1
 90 10 11 16 19 44.9950000  0  4 20 13 12 09
  22346890.858    -4745516.627 5  -3480382.392 1
  20957826.187   -13854522.853 7   6140534.327 1
  19495686.483   -24780022.886 8     13415.139 3
  20981830.132   -18589095.163 6   6815322.435 1
 90 10 11 16 19 59.9950000  0  4 20 13 12 09
  22336302.562    -4801141.736 5  -3523726.658 1
  20962676.382   -13829028.141 6   6160400.268 1
  19496167.413   -24777488.202 7     15390.181 3
  20990690.710   -18542546.742 6   6851593.824 1
 90 10 11 16 20 14.9950000  0  4 20 13 12 09
  22325720.007    -4856756.843 5  -3567063.114 1
  20967531.108   -13803526.736 7   6180271.435 1
  19496679.796   -24774793.173 7     17490.168 3
  20999561.358   -18495916.180 6   6887929.222 1
 90 10 11 16 20 29.9950000  0  4 20 13 12 09
  22315139.499    -4912362.051 6  -3610391.870 1
  20972384.687   -13778019.184 6   6200147.382 1
  19497223.476   -24771938.258 7     19714.741 3
  21008452.608   -18449204.212 6   6924328.053 1
 90 10 11 16 20 44.9950000  0  4 20 13 12 09
  22304560.265    -4967956.358 6  -3653712.129 1
  20977239.116   -13752504.857 7   6220028.617 1
  19497797.210   -24768922.698 7     22064.492 3
  21017356.335   -18402410.538 6   6960790.546 1
 90 10 11 16 20 59.9950000  0  4 20 13 12 09
  22293980.835    -5023537.371 5  -3697022.035 1
  20982097.257   -13726981.609 6   6239916.789 1
  19498402.499   -24765744.505 7     24540.971 3
  21026275.296   -18355533.212 6   6997318.225 1
 90 10 11 16 21 14.9950000  0  4 20 13 12 09
  22283409.288    -5079104.138 5  -3740320.842 1
  20986954.890   -13701448.527 6   6259812.631 1
  19499039.015   -24762402.820 8     27144.843 3
  21035212.577   -18308571.869 6   7033911.369 1
 90 10 11 16 21 29.9950000  0  4 20 13 12 09
  22272836.241    -5134658.496 5  -3783609.971 1
  20991815.937   -13675907.940 6   6279714.326 1
  19499705.124   -24758899.712 7     29874.500 3
  21044165.632   -18261529.028 6   7070568.019 1
 90 10 11 16 21 44.9950000  0  4 20 13 12 09
  22262265.101    -5190201.033 5  -3826889.891 1
  20996678.233   -13650360.840 6   6299621.102 1
  19500402.233   -24755236.102 8     32729.227 3
  21053133.780   -18214405.919 6   7107287.215 1
 90 10 11 16 21 59.9950000  0  4 20 13 12 09
  22251702.038    -5245730.025 5  -3870159.269 1
  21001539.437   -13624806.092 6   6319533.830 1
  19501129.468   -24751410.879 7     35709.878 3
  21062115.101   -18167201.532 6   7144069.746 1
 90 10 11 16 22 14.9950000  0  4 20 13 12 09
  22241136.327    -5301245.681 5  -3913418.248 1
  21006403.773   -13599243.739 6   6339452.483 1
  19501888.827   -24747424.150 7     38816.389 3
  21071112.343   -18119916.469 6   7180915.134 1
 90 10 11 16 22 29.9950000  0  4 20 13 12 09
  22230575.319    -5356746.027 6  -3956665.290 1
  21011271.257   -13573672.207 6   6359378.286 1
  19502677.577   -24743274.405 7     42049.919 3
  21080129.374   -18072549.485 6   7217824.365 1
 90 10 11 16 22 44.9950000  0  4 20 13 12 09
  22220015.944    -5412233.237 5  -3999902.105 1
  21016138.374   -13548094.194 6   6379309.133 1
  19503497.929   -24738964.306 7     45408.400 3
  21089153.562   -18025103.581 6   7254795.089 1
 90 10 11 16 22 59.9950000  0  4 20 13 12 09
  22209457.421    -5467709.424 5  -4043130.329 1
  21021005.288   -13522512.003 6   6399243.252 1
  19504350.179   -24734495.997 8     48890.163 3
  21098198.202   -17977581.411 6   7291825.243 1
 90 10 11 16 23 14.9950000  0  4 20 13 12 09
  22198904.101    -5523173.681 5  -4086349.257 1
  21025874.976   -13496925.047 6   6419181.068 1
  19505229.468   -24729868.919 8     52495.638 3
  21107257.890   -17929982.573 6   7328915.130 1
 90 10 11 16 23 29.9950000  0  4 20 13 12 09
  22188352.374    -5578627.173 5  -4129559.780 1
  21030744.812   -13471335.122 6   6439121.207 1
  19506140.538   -24725084.900 8     56223.410 3
  21116329.765   -17882309.177 6   7366063.122 1
 90 10 11 16 23 44.9940000  0  4 20 13 12 09
  22177802.838    -5634064.362 5  -4172757.606 1
  21035614.979   -13445742.381 6   6459063.536 1
  19507080.650   -24720142.492 7     60074.597 3
  21125416.033   -17834562.938 6   7403267.875 1
 90 10 11 16 23 59.9940000  0  4 20 13 12 09
  22167256.033    -5689493.714 6  -4215949.328 1
  21040485.791   -13420144.695 6   6479009.728 1
  19508051.494   -24715042.366 7     64048.685 3
  21134515.861   -17786739.178 6   7440533.021 1
 90 10 11 16 24 14.9940000  0  4 20 13 12 09
  22156708.549    -5744907.963 5  -4259129.299 1
  21045358.877   -13394540.511 6   6498960.966 1
  19509052.057   -24709781.717 7     68147.855 3
  21143629.213   -17738838.228 6   7477858.324 1
 90 10 11 16 24 29.9940000  0  4 20 13 12 09
  22146168.791    -5800306.018 6  -4302296.636 1
  21050231.252   -13368928.997 6   6518917.923 1
  19510084.049   -24704359.665 7     72372.794 3
  21152760.393   -17690859.683 6   7515244.098 1
 90 10 11 16 24 44.9940000  0  4 20 13 12 09
  22135629.854    -5855689.186 5  -4345452.384 1
  21055107.236   -13343311.874 6   6538879.248 1
  19511146.611   -24698777.780 7     76722.279 3
  21161905.885   -17642805.289 6   7552688.962 1
 90 10 11 16 24 59.9940000  0  4 20 13 12 09
  22125092.940    -5911056.627 5  -4388595.845 1
  21059983.518   -13317688.758 6   6558845.251 1
  19512238.846   -24693035.740 7     81196.559 3
  21171064.166   -17594674.938 6   7590193.027 1
 90 10 11 16 25 14.9940000  0  4 20 13 12 09
  22114562.783    -5966408.908 5  -4431727.487 1
  21064858.643   -13292060.557 6   6578815.211 1
  19513362.643   -24687134.645 7     85794.783 3
  21180235.861   -17546470.189 6   7627755.054 1
 90 10 11 16 25 29.9940000  0  4 20 13 12 09
  22104028.432    -6021747.378 5  -4474848.387 1
  21069736.838   -13266428.887 6   6598787.872 1
  19514514.924   -24681075.993 7     90515.768 3
  21189424.010   -17498192.759 6   7665373.716 1
 90 10 11 16 25 44.9940000  0  4 20 13 12 09
  22093503.049    -6077068.184 6  -4517955.525 1
  21074616.400   -13240790.237 6   6618765.977 1
  19515698.775   -24674856.488 7     95362.103 3
  21198625.994   -17449839.374 6   7703051.567 1
 90 10 11 16 25 59.9940000  0  4 20 13 12 09
  22082979.494    -6132368.783 6  -4561046.915 1
  21079497.893   -13215142.463 6   6638751.179 1
  19516913.221   -24668473.802 7    100335.582 3
  21207842.400   -17401408.546 6   7740789.760 1
 90 10 11 16 26 14.9940000  0  4 20 13 12 09
  22072460.135    -6187649.691 5  -4604122.975 1
  21084379.049   -13189486.011 6   6658743.155 1
  19518158.940   -24661928.591 7    105435.711 3
  21217070.986   -17352900.822 6   7778587.875 1
 90 10 11 16 26 29.9940000  0  4 20 13 12 09
  22061941.432    -6242913.173 5  -4647185.429 1
  21089263.510   -13163823.650 6   6678739.726 1
  19519433.893   -24655223.546 7    110660.388 3
  21226317.197   -17304319.522 6   7816443.324 1
 90 10 11 16 26 44.9940000  0  4 20 13 12 09
  22051430.690    -6298158.685 5  -4690233.893 1
  21094146.205   -13138155.352 6   6698740.930 1
  19520740.393   -24648358.581 7    116009.677 3
  21235578.330   -17255664.584 6   7854356.149 1
 90 10 11 16 26 59.9940000  0  4 20 13 12 09
  22040920.283    -6353388.992 5  -4733270.489 1
  21099032.104   -13112484.149 6   6718744.387 1
  19522077.736   -24641336.861 7    121481.109 3
  21244848.979   -17206939.464 6   7892323.661 1
